[[{"header":{"parameterUnit":"m.s-1","parameterCategory":1,"la1":30.6,"la2":28.766,"lo1":-90.7593,"lo2":-88.6598,"dy":0.0162,"dx":0.0183,"nx":116,"ny":114,"refTime":"2024-02-14T06:00:00:Z","depth":0,"parameterNumber":2,"parameterNumberName":"U-component_of_WINDS"},"data":[0.0,0.0,0.0,0.0,0.0,0.0,0.0,0.0,0.0,0.0,0.0,0.0,0.0,0.0,0.0,0.0,0.0,0.0,0.0,0.0,0.0,0.0,0.0,0.0,0.0,0.0,0.0,0.0,0.0,0.0,0.0,0.0,0.0,0.0,0.0,0.0,0.0,0.0,0.0,0.0,0.0,0.0,0.0,0.0,0.0,0.0,0.0,0.0,0.0,0.0,0.0,0.0,0.0,0.0,0.0,0.0,0.0,0.0,0.0,0.0,0.0,0.0,0.0,0.0,0.0,0.0,0.0,0.0,0.0,0.0,0.0,0.0,0.0,0.0,0.0,0.0,0.0,0.0,0.0,0.0,0.0,0.0,0.0,0.0,0.0,0.0,0.0,0.0,0.0,0.0,0.0,0.0,0.0,0.0,0.0,0.0,0.0,0.0,0.0,0.0,0.0,0.0,0.0,0.0,0.0,0.0,0.0,0.0,0.0,0.0,0.0,0.0,0.0,0.0,0.0,0.0,0.0,0.0,0.0,0.0,0.0,0.0,0.0,0.0,0.0,0.0,0.0,0.0,0.0,0.0,0.0,0.0,0.0,0.0,0.0,0.0,0.0,0.0,0.0,0.0,0.0,0.0,0.0,0.0,0.0,0.0,0.0,0.0,0.0,0.0,0.0,0.0,0.0,0.0,0.0,0.0,0.0,0.0,0.0,0.0,0.0,0.0,0.0,0.0,0.0,0.0,0.0,0.0,0.0,0.0,0.0,0.0,0.0,0.0,0.0,0.0,0.0,0.0,0.0,0.0,0.0,0.0,0.0,0.0,0.0,0.0,0.0,0.0,0.0,0.0,0.0,0.0,0.0,0.0,0.0,0.0,0.0,0.0,0.0,0.0,0.0,0.0,0.0,0.0,0.0,0.0,0.0,0.0,0.0,0.0,0.0,0.0,0.0,0.0,0.0,0.0,0.0,0.0,0.0,0.0,0.0,0.0,0.0,0.0,0.0,0.0,0.0,0.0,0.0,0.0,0.0,0.0,0.0,0.0,0.0,0.0,0.0,0.0,0.0,0.0,0.0,0.0,0.0,0.0,0.0,0.0,0.0,0.0,0.0,0.0,0.0,0.0,0.0,0.0,0.0,0.0,0.0,0.0,0.0,0.0,0.0,0.0,0.0,0.0,0.0,0.0,0.0,0.0,0.0,0.0,0.0,0.0,0.0,0.0,0.0,0.0,0.0,0.0,0.0,0.0,0.0,0.0,0.0,0.0,0.0,0.0,0.0,0.0,0.0,0.0,0.0,0.0,0.0,0.0,0.0,0.0,0.0,0.0,0.0,0.0,0.0,0.0,0.0,0.0,0.0,0.0,0.0,0.0,0.0,0.0,0.0,0.0,0.0,0.0,0.0,0.0,0.0,0.0,0.0,0.0,0.0,0.0,0.0,0.0,0.0,0.0,0.0,0.0,0.0,0.0,0.0,0.0,0.0,0.0,0.0,0.0,0.0,0.0,0.0,0.0,0.0,0.0,0.0,0.0,0.0,0.0,0.0,0.0,0.0,0.0,0.0,0.0,0.0,0.0,0.0,0.0,0.0,0.0,0.0,0.0,0.0,0.0,0.0,0.0,0.0,0.0,0.0,0.0,0.0,0.0,0.0,0.0,0.0,0.0,0.0,0.0,0.0,0.0,0.0,0.0,0.0,0.0,0.0,0.0,0.0,0.0,0.0,0.0,0.0,0.0,0.0,0.0,0.0,0.0,0.0,0.0,0.0,0.0,0.0,0.0,0.0,0.0,0.0,0.0,0.0,0.0,0.0,0.0,0.0,0.0,0.0,0.0,0.0,0.0,0.0,0.0,0.0,0.0,0.0,0.0,0.0,0.0,0.0,0.0,0.0,0.0,0.0,0.0,0.0,0.0,0.0,0.0,0.0,0.0,0.0,0.0,0.0,0.0,0.0,0.0,0.0,0.0,0.0,0.0,0.0,0.0,0.0,0.0,0.0,0.0,0.0,0.0,0.0,0.0,0.0,0.0,0.0,0.0,0.0,0.0,0.0,0.0,0.0,0.0,0.0,0.0,0.0,0.0,0.0,0.0,0.0,0.0,0.0,0.0,0.0,0.0,0.0,0.0,0.0,0.0,0.0,0.0,0.0,0.0,0.0,0.0,0.0,0.0,0.0,0.0,0.0,0.0,0.0,0.0,0.0,0.0,0.0,0.0,0.0,0.0,0.0,0.0,0.0,0.0,0.0,0.0,0.0,0.0,0.0,0.0,0.0,0.0,0.0,0.0,0.0,0.0,0.0,0.0,0.0,0.0,0.0,0.0,0.0,0.0,0.0,0.0,0.0,0.0,0.0,0.0,0.0,0.0,0.0,0.0,0.0,0.0,0.0,0.0,0.0,0.0,0.0,0.0,0.0,0.0,0.0,0.0,0.0,0.0,0.0,0.0,0.0,0.0,0.0,0.0,0.0,0.0,0.0,0.0,0.0,0.0,0.0,0.0,0.0,0.0,0.0,0.0,0.0,0.0,0.0,0.0,0.0,0.0,0.0,0.0,0.0,0.0,0.0,0.0,0.0,0.0,0.0,0.0,0.0,0.0,0.0,0.0,0.0,0.0,0.0,0.0,0.0,0.0,0.0,0.0,0.0,0.0,0.0,0.0,0.0,0.0,0.0,0.0,0.0,0.0,0.0,0.0,0.0,0.0,0.0,0.0,0.0,0.0,0.0,0.0,0.0,0.0,0.0,0.0,0.0,0.0,0.0,0.0,0.0,0.0,0.0,0.0,0.0,0.0,0.0,0.0,0.0,0.0,0.0,0.0,0.0,0.0,0.0,0.0,0.0,0.0,0.0,0.0,0.0,0.0,0.0,0.0,0.0,0.0,0.0,0.0,0.0,0.0,0.0,0.0,0.0,0.0,0.0,0.0,0.0,0.0,0.0,0.0,0.0,0.0,0.0,0.0,0.0,0.0,0.0,0.0,0.0,0.0,0.0,0.0,0.0,0.0,0.0,0.0,0.0,0.0,0.0,0.0,0.0,0.0,0.0,0.0,0.0,0.0,0.0,0.0,0.0,0.0,0.0,0.0,0.0,0.0,0.0,0.0,0.0,0.0,0.0,0.0,0.0,0.0,0.0,0.0,0.0,0.0,0.0,0.0,0.0,0.0,0.0,0.0,0.0,0.0,0.0,0.0,0.0,0.0,0.0,0.0,0.0,0.0,0.0,0.0,0.0,0.0,0.0,0.0,0.0,0.0,0.0,0.0,0.0,0.0,0.0,0.0,0.0,0.0,0.0,0.0,0.0,0.0,0.0,0.0,0.0,0.0,0.0,0.0,0.0,0.0,0.0,0.0,0.0,0.0,0.0,0.0,0.0,0.0,0.0,0.0,0.0,0.0,0.0,0.0,0.0,0.0,0.0,0.0,0.0,0.0,0.0,0.0,0.0,0.0,0.0,0.0,0.0,0.0,0.0,0.0,0.0,0.0,0.0,0.0,0.0,0.0,0.0,0.0,0.0,0.0,0.0,0.0,0.0,0.0,0.0,0.0,0.0,0.0,0.0,0.0,0.0,0.0,0.0,0.0,0.0,0.0,0.0,0.0,0.0,0.0,0.0,0.0,0.0,0.0,0.0,0.0,0.0,0.0,0.0,0.0,0.0,0.0,0.0,0.0,0.0,0.0,0.0,0.0,0.0,0.0,0.0,0.0,0.0,0.0,0.0,0.0,0.0,0.0,0.0,0.0,0.0,0.0,0.0,0.0,0.0,0.0,0.0,0.0,0.0,0.0,0.0,0.0,0.0,0.0,0.0,0.0,0.0,0.0,0.0,0.0,0.0,0.0,0.0,0.0,0.0,0.0,0.0,0.0,0.0,0.0,0.0,0.0,0.0,0.0,0.0,0.0,0.0,0.0,0.0,0.0,0.0,0.0,0.0,0.0,0.0,0.0,0.0,0.0,0.0,0.0,0.0,0.0,0.0,0.0,0.0,0.0,0.0,0.0,0.0,0.0,0.0,0.0,0.0,0.0,0.0,0.0,0.0,0.0,0.0,0.0,0.0,0.0,0.0,0.0,0.0,0.0,0.0,0.0,0.0,0.0,0.0,0.0,0.0,0.0,0.0,0.0,0.0,0.0,0.0,0.0,0.0,0.0,0.0,0.0,0.0,0.0,0.0,0.0,0.0,0.0,0.0,0.0,0.0,0.0,0.0,0.0,0.0,0.0,0.0,0.0,0.0,0.0,0.0,0.0,0.0,0.0,0.0,0.0,0.0,0.0,0.0,0.0,0.0,0.0,0.0,0.0,0.0,0.0,0.0,0.0,0.0,0.0,0.0,0.0,0.0,0.0,0.0,0.0,0.0,0.0,0.0,0.0,0.0,0.0,0.0,0.0,0.0,0.0,0.0,0.0,0.0,0.0,0.0,0.0,0.0,0.0,0.0,0.0,0.0,0.0,0.0,0.0,0.0,0.0,0.0,0.0,0.0,0.0,0.0,0.0,0.0,0.0,0.0,0.0,0.0,0.0,0.0,0.0,0.0,0.0,0.0,0.0,0.0,0.0,0.0,0.0,0.0,0.0,0.0,0.0,0.0,0.0,0.0,0.0,0.0,0.0,0.0,0.0,0.0,0.0,0.0,0.0,0.0,0.0,0.0,0.0,0.0,0.0,0.0,0.0,0.0,0.0,0.0,0.0,0.0,0.0,0.0,0.0,0.0,0.0,0.0,0.0,0.0,0.0,0.0,0.0,0.0,0.0,0.0,0.0,0.0,0.0,0.0,0.0,0.0,0.0,0.0,0.0,0.0,0.0,0.0,0.0,0.0,0.0,0.0,0.0,0.0,0.0,0.0,0.0,0.0,0.0,0.0,0.0,0.0,0.0,0.0,0.0,0.0,0.0,0.0,0.0,0.0,0.0,0.0,0.0,0.0,0.0,0.0,0.0,0.0,0.0,0.0,0.0,0.0,0.0,0.0,0.0,0.0,0.0,0.0,0.0,0.0,0.0,0.0,0.0,0.0,0.0,0.0,0.0,0.0,0.0,0.0,0.0,0.0,0.0,0.0,0.0,0.0,0.0,0.0,0.0,0.0,0.0,0.0,0.0,0.0,0.0,0.0,0.0,0.0,0.0,0.0,0.0,0.0,0.0,0.0,0.0,0.0,0.0,0.0,0.0,0.0,0.0,0.0,0.0,0.0,0.0,0.0,0.0,0.0,0.0,0.0,0.0,0.0,0.0,0.0,0.0,0.0,0.0,0.0,0.0,0.0,0.0,0.0,0.0,0.0,0.0,0.0,0.0,0.0,0.0,0.0,0.0,0.0,0.0,0.0,0.0,0.0,0.0,0.0,0.0,0.0,0.0,0.0,0.0,0.0,0.0,0.0,0.0,0.0,0.0,0.0,0.0,0.0,0.0,0.0,0.0,0.0,0.0,0.0,0.0,0.0,0.0,0.0,0.0,0.0,0.0,0.0,0.0,0.0,0.0,0.0,0.0,0.0,0.0,0.0,0.0,0.0,0.0,0.0,0.0,0.0,0.0,0.0,0.0,0.0,0.0,0.0,0.0,0.0,0.0,0.0,0.0,0.0,0.0,0.0,0.0,0.0,0.0,0.0,0.0,0.0,0.0,0.0,0.0,0.0,0.0,0.0,0.0,0.0,0.0,0.0,0.0,0.0,0.0,0.0,0.0,0.0,0.0,0.0,0.0,0.0,0.0,0.0,0.0,0.0,0.0,0.0,0.0,0.0,0.0,0.0,0.0,0.0,0.0,0.0,0.0,0.0,0.0,0.0,0.0,0.0,0.0,0.0,0.0,0.0,0.0,0.0,0.0,0.0,0.0,0.0,0.0,0.0,0.0,0.0,0.0,0.0,0.0,0.0,0.0,0.0,0.0,0.0,0.0,0.0,0.0,0.0,0.0,0.0,0.0,0.0,0.0,0.0,0.0,0.0,0.0,0.0,0.0,0.0,0.0,0.0,0.0,0.0,0.0,0.0,0.0,0.0,0.0,0.0,0.0,0.0,0.0,0.0,0.0,0.0,0.0,0.0,0.0,0.0,0.0,0.0,0.0,0.0,0.0,0.0,0.0,0.0,0.0,0.0,0.0,0.0,0.0,0.0,0.0,0.0,0.0,5.6533,0.0,0.0,0.0,0.0,0.0,0.0,0.0,0.0,0.0,0.0,0.0,0.0,0.0,0.0,0.0,0.0,0.0,0.0,0.0,0.0,0.0,0.0,0.0,0.0,0.0,0.0,0.0,0.0,0.0,0.0,0.0,0.0,0.0,0.0,0.0,0.0,0.0,4.5836,4.5834,4.5834,4.5861,4.591,4.5974,4.6025,0.0,0.0,0.0,0.0,0.0,0.0,0.0,0.0,0.0,0.0,0.0,0.0,0.0,0.0,0.0,0.0,0.0,0.0,0.0,0.0,0.0,0.0,0.0,0.0,0.0,0.0,0.0,0.0,0.0,0.0,0.0,0.0,0.0,0.0,0.0,0.0,0.0,0.0,0.0,0.0,0.0,0.0,0.0,0.0,0.0,0.0,0.0,0.0,0.0,0.0,0.0,0.0,0.0,0.0,0.0,0.0,0.0,0.0,0.0,0.0,0.0,0.0,0.0,0.0,0.0,0.0,0.0,0.0,0.0,0.0,0.0,0.0,5.6517,0.0,0.0,0.0,0.0,0.0,0.0,0.0,0.0,0.0,0.0,0.0,0.0,0.0,0.0,0.0,0.0,0.0,0.0,0.0,0.0,0.0,0.0,0.0,4.5592,4.5592,4.5592,4.5592,4.561,4.5686,4.5688,4.5708,4.5712,4.5714,4.5734,4.5776,4.5783,4.5803,4.5795,4.5802,4.584,4.5904,4.5956,4.6008,0.0,0.0,0.0,0.0,0.0,0.0,0.0,0.0,0.0,0.0,0.0,0.0,0.0,0.0,0.0,0.0,0.0,0.0,0.0,0.0,0.0,0.0,0.0,0.0,0.0,0.0,0.0,0.0,0.0,0.0,0.0,0.0,0.0,0.0,0.0,0.0,0.0,0.0,0.0,0.0,0.0,0.0,0.0,0.0,0.0,0.0,0.0,0.0,0.0,0.0,0.0,0.0,0.0,0.0,0.0,0.0,0.0,0.0,0.0,0.0,0.0,0.0,0.0,0.0,0.0,5.6517,5.6475,5.6469,5.6491,5.6481,5.6478,5.6496,5.6496,5.6483,5.6483,0.0,0.0,0.0,0.0,0.0,0.0,0.0,0.0,0.0,0.0,0.0,0.0,0.0,0.0,0.0,0.0,0.0,0.0,0.0,0.0,0.0,4.5592,4.5592,4.5592,4.5592,4.5596,4.5601,4.5602,4.5622,4.5707,4.5709,4.569,4.5694,4.5769,4.579,4.5794,4.5789,4.583,4.5916,4.5919,4.5968,4.6007,4.6088,0.0,0.0,0.0,0.0,0.0,0.0,0.0,0.0,0.0,0.0,0.0,0.0,0.0,0.0,0.0,0.0,0.0,0.0,0.0,0.0,0.0,0.0,0.0,0.0,0.0,0.0,0.0,0.0,0.0,0.0,0.0,0.0,0.0,0.0,0.0,0.0,0.0,0.0,0.0,0.0,0.0,0.0,0.0,5.138,5.138,0.0,0.0,0.0,0.0,0.0,0.0,0.0,0.0,0.0,0.0,0.0,0.0,0.0,5.6485,5.6483,5.6483,5.6514,5.6497,5.6497,5.648,5.6405,5.6402,5.6427,5.6405,5.6408,0.0,5.64,5.64,0.0,0.0,0.0,0.0,0.0,0.0,0.0,0.0,0.0,0.0,0.0,0.0,0.0,0.0,0.0,0.0,0.0,0.0,0.0,0.0,0.0,4.5592,4.5592,4.5592,4.5592,4.5592,4.5592,4.5592,4.5602,4.5622,4.5624,4.5645,4.5689,4.5748,4.5742,4.5787,4.5787,4.5828,4.5911,4.5886,4.5939,4.6,4.6079,4.6137,4.6139,4.6178,0.0,0.0,0.0,0.0,0.0,0.0,0.0,0.0,0.0,0.0,0.0,0.0,0.0,0.0,0.0,0.0,0.0,0.0,0.0,0.0,0.0,0.0,0.0,0.0,0.0,0.0,0.0,0.0,0.0,0.0,0.0,0.0,0.0,0.0,0.0,0.0,0.0,0.0,0.0,5.1413,5.1413,5.1413,5.1803,5.2075,0.0,0.0,0.0,0.0,0.0,0.0,0.0,0.0,0.0,5.6506,5.6506,5.6496,5.6436,5.6436,5.6424,5.6439,5.6439,5.6428,5.6408,5.6408,5.6401,5.6389,5.6389,5.6387,5.6346,5.6362,5.64,5.6389,0.0,0.0,0.0,0.0,5.6353,5.6337,0.0,0.0,0.0,0.0,0.0,0.0,0.0,0.0,0.0,0.0,0.0,0.0,4.5592,4.5592,4.5592,4.5592,4.5592,4.5592,4.5592,4.5592,4.5592,4.5592,4.5592,4.5609,4.5682,4.5697,4.5743,4.5818,4.5785,4.5823,4.5895,4.59,4.5921,4.6,4.6079,4.6098,4.61,4.6178,4.6208,0.0,0.0,0.0,0.0,0.0,0.0,0.0,0.0,0.0,0.0,0.0,0.0,0.0,0.0,0.0,0.0,0.0,0.0,0.0,0.0,0.0,0.0,0.0,0.0,0.0,0.0,0.0,0.0,0.0,0.0,0.0,0.0,0.0,0.0,0.0,0.0,0.0,0.0,5.1348,5.1426,5.1659,5.2205,5.2672,0.0,0.0,0.0,0.0,0.0,0.0,5.6455,5.6455,5.6487,5.647,5.647,5.6455,5.6381,5.6381,5.641,5.6389,5.6389,5.6385,5.6378,5.6378,5.6374,5.6366,5.6366,5.6464,5.6591,5.6439,5.6373,5.6366,5.6366,5.6468,5.6641,5.6592,5.6766,5.6938,0.0,0.0,0.0,0.0,0.0,0.0,0.0,0.0,0.0,0.0,0.0,4.5592,4.5592,4.5592,4.5592,4.5592,4.5592,4.5592,4.5592,4.5592,4.5592,4.5592,4.5592,4.5593,4.5596,4.5688,4.5743,4.5797,4.5816,4.5845,4.5888,4.5885,4.5921,4.6,4.6079,4.6098,4.61,4.6178,4.6181,4.6229,4.6284,0.0,0.0,0.0,0.0,0.0,0.0,0.0,0.0,0.0,0.0,0.0,0.0,0.0,0.0,0.0,0.0,0.0,0.0,0.0,0.0,0.0,0.0,0.0,0.0,0.0,0.0,0.0,0.0,0.0,0.0,0.0,0.0,0.0,0.0,0.0,0.0,0.0,0.0,5.2346,5.2463,0.0,0.0,0.0,0.0,5.5112,5.5852,5.6358,5.6397,5.6397,5.6397,5.6395,5.6395,5.6394,5.6391,5.6391,5.6391,5.6389,5.6389,5.6374,5.6306,5.6306,5.6329,5.6299,5.6299,5.6742,5.7369,5.6628,5.6327,5.6299,5.6299,5.6804,5.7538,5.7458,5.7947,5.8679,0.0,0.0,0.0,0.0,0.0,0.0,0.0,0.0,4.5592,4.5592,4.5592,4.5592,4.5592,4.5592,4.5592,4.5592,4.5592,4.5592,4.5592,4.5592,4.5592,4.5592,4.5592,4.5592,4.5592,4.5652,4.5702,4.5737,4.5771,4.5805,4.5845,4.5884,4.592,4.5921,4.6039,4.6098,4.61,4.6178,4.6217,4.6185,4.6244,4.6261,0.0,0.0,0.0,0.0,0.0,0.0,0.0,0.0,0.0,0.0,0.0,0.0,0.0,0.0,0.0,0.0,0.0,0.0,0.0,0.0,0.0,0.0,0.0,0.0,0.0,0.0,0.0,0.0,0.0,0.0,0.0,0.0,0.0,0.0,0.0,0.0,0.0,5.3229,5.3816,0.0,5.4595,5.5414,5.5922,5.5922,5.6233,5.6389,5.6389,5.6389,5.6389,5.6389,5.6389,5.638,5.6321,5.6321,5.63,5.6257,5.6257,5.6278,5.6242,5.6783,5.7007,5.7032,5.7612,5.8029,5.8249,5.7969,5.7856,5.7844,5.7844,5.8039,5.8309,5.8292,5.8481,5.8712,0.0,0.0,0.0,0.0,0.0,0.0,0.0,0.0,4.5592,4.5592,4.5592,4.5592,4.5592,4.5592,4.5592,4.5592,4.5592,4.5592,4.5592,4.5592,4.5592,4.5592,4.5592,4.5592,4.5592,4.5671,4.5702,4.5683,4.5755,4.5805,4.5805,4.5883,4.5882,4.5921,4.6039,4.6098,4.61,4.6178,4.6217,4.6185,4.6205,4.6222,4.63,0.0,0.0,0.0,0.0,0.0,0.0,0.0,0.0,0.0,0.0,0.0,0.0,0.0,0.0,0.0,0.0,0.0,0.0,0.0,0.0,0.0,0.0,0.0,0.0,0.0,0.0,0.0,0.0,0.0,0.0,0.0,0.0,0.0,0.0,0.0,5.3227,5.4078,5.4713,5.519,5.5463,5.6047,5.6359,5.6359,5.6359,5.6354,5.6343,5.6342,5.6338,5.6327,5.6327,5.6316,5.6253,5.6253,5.6384,5.6604,5.6604,5.6746,5.7067,5.7607,5.7839,5.7878,5.8457,5.8836,5.9096,5.9096,5.9242,5.9463,5.891,5.8884,5.9155,5.9101,5.9289,5.9558,0.0,0.0,0.0,0.0,0.0,0.0,0.0,4.5592,4.5592,4.5592,4.5592,4.5592,4.5592,4.5592,4.5592,4.5592,4.5592,4.5592,4.5592,4.5592,4.5592,4.5592,4.5592,4.5592,4.5592,4.5671,4.5714,4.5681,4.577,4.5805,4.5805,4.5883,4.5882,4.5921,4.6039,4.6098,4.61,4.6178,4.6217,4.6185,4.6205,4.6222,4.63,0.0,0.0,0.0,0.0,0.0,0.0,0.0,0.0,0.0,0.0,0.0,0.0,0.0,0.0,0.0,0.0,0.0,0.0,0.0,0.0,0.0,0.0,0.0,0.0,0.0,0.0,0.0,0.0,0.0,0.0,0.0,0.0,0.0,5.2382,5.315,5.4024,5.4834,5.4983,5.5355,5.6212,5.629,5.629,5.629,5.629,5.6275,5.62,5.6197,5.618,5.618,5.6218,5.6218,5.6257,5.6257,5.6642,5.7451,5.7451,5.7875,5.8685,5.8724,5.8724,5.8724,5.8762,5.9207,5.9947,5.9947,6.0385,6.0932,5.9389,5.9308,6.0043,5.9963,6.0488,6.1176,0.0,0.0,0.0,0.0,0.0,0.0,0.0,4.5592,4.5592,4.5592,4.5592,4.5592,4.5592,4.5592,4.5592,4.5592,4.5592,4.5592,4.5592,4.5592,4.5592,4.5592,4.5592,4.5592,4.5592,4.5671,4.5697,4.5701,4.5784,4.5805,4.5805,4.5883,4.5882,4.5921,4.6039,4.6098,4.61,4.6178,4.6217,4.6185,4.6205,4.6222,4.63,0.0,0.0,0.0,0.0,0.0,0.0,0.0,0.0,0.0,0.0,0.0,0.0,0.0,0.0,0.0,0.0,0.0,0.0,0.0,0.0,0.0,0.0,0.0,0.0,0.0,0.0,0.0,0.0,0.0,0.0,0.0,5.3689,5.4134,5.419,5.4401,5.4873,5.5728,5.5855,5.5978,5.6213,5.6213,5.6213,5.6213,5.6213,5.6208,5.6196,5.6196,5.6191,5.6218,5.6218,5.6488,5.7066,5.7066,5.7479,5.8265,5.8265,5.8403,5.8642,5.9299,5.9569,5.9608,6.0186,6.0566,6.0788,6.0788,6.0896,6.1042,6.0602,6.0573,6.0805,6.0793,6.0903,6.1133,0.0,0.0,0.0,0.0,0.0,0.0,0.0,4.5592,4.5592,4.5592,4.5592,4.5592,4.5592,4.5592,4.5592,4.5592,4.5592,4.5592,4.5592,4.5592,4.5592,4.5592,0.0,4.5592,4.5592,4.5671,4.5682,4.5687,4.5765,4.5805,4.5805,4.5883,4.5882,4.5921,4.6039,4.6098,4.61,4.6178,4.6413,4.6733,4.6753,4.6574,4.6339,4.6691,4.6848,4.6965,4.7786,4.8097,4.8213,4.9072,0.0,0.0,0.0,0.0,0.0,0.0,0.0,0.0,0.0,0.0,0.0,0.0,0.0,0.0,0.0,0.0,0.0,0.0,0.0,0.0,0.0,0.0,0.0,0.0,5.4422,5.4916,5.5312,5.5389,5.5607,5.6114,5.6169,5.6218,5.6218,5.6218,5.6218,5.6218,5.6218,5.6172,5.6154,5.6154,5.6145,5.6127,5.6474,5.6898,5.7361,5.7711,5.8322,5.915,5.915,5.9329,5.965,6.0152,6.0373,6.0392,6.0855,6.1073,6.1051,6.1051,6.1051,6.1054,0.0,0.0,0.0,0.0,6.1047,6.1044,0.0,0.0,0.0,0.0,0.0,0.0,0.0,4.5592,4.5592,4.5592,4.5592,4.5592,4.5592,4.5592,4.5592,4.5592,4.5592,4.5592,4.5592,4.5592,4.5592,4.5592,4.5592,4.5592,4.5592,4.5671,4.5682,4.5687,4.5765,4.5805,4.5805,4.5883,4.596,4.6039,4.6197,4.6288,4.6401,4.6449,4.6922,4.7632,4.7645,4.7234,4.6652,4.7434,4.7746,4.7824,4.8645,4.8955,4.9068,4.9967,0.0,0.0,0.0,0.0,0.0,0.0,0.0,0.0,0.0,0.0,0.0,0.0,0.0,0.0,0.0,0.0,0.0,0.0,0.0,0.0,0.0,0.0,0.0,0.0,5.4817,5.5117,5.589,5.6041,5.6097,5.6107,5.6142,5.6165,5.6165,5.6165,5.6165,5.6165,5.6165,5.6149,5.6071,0.0,0.0,0.0,0.0,5.7474,5.7585,5.8365,5.9177,6.002,6.002,6.0405,6.1099,6.1099,6.1075,6.0995,6.0995,6.1003,6.0991,6.0991,6.0991,6.1001,6.1062,6.1099,6.1093,6.1011,6.0995,6.0987,0.0,0.0,0.0,0.0,0.0,0.0,0.0,4.5592,4.5592,4.5592,4.5592,4.5592,4.5592,4.5592,4.5592,4.5592,4.5592,4.5592,4.5592,4.5592,4.5592,4.5592,4.5592,4.5592,4.5592,4.5671,4.5682,4.5687,4.5765,4.5805,4.5805,4.5883,4.6275,4.6943,4.71,4.7543,4.8195,4.8227,4.8332,4.8566,4.8566,4.8448,4.8333,4.8489,4.8565,4.8679,4.9539,4.9851,4.9967,5.0867,5.114,5.1173,5.1282,0.0,0.0,0.0,0.0,0.0,0.0,0.0,0.0,0.0,0.0,0.0,0.0,0.0,0.0,0.0,0.0,0.0,0.0,0.0,0.0,5.5512,5.5674,5.572,5.5913,5.593,5.5973,5.6012,5.6029,5.6035,5.6035,5.6035,5.6035,5.6035,5.6035,5.6031,5.6022,5.6678,5.706,5.7051,5.7907,5.8665,5.932,5.9476,5.9993,6.0793,6.0793,0.0,6.1025,6.1025,6.1018,6.1009,6.1009,6.1003,6.0991,6.0991,6.0991,6.0993,6.1016,6.1025,6.1023,6.1013,6.1009,6.1008,0.0,0.0,0.0,0.0,0.0,0.0,0.0,4.5592,4.5592,4.5592,4.5592,4.5592,4.5592,4.5592,4.5592,4.5592,4.5592,4.5592,4.5592,4.5592,4.5592,4.5592,4.5592,4.5592,4.5592,4.5671,4.5918,4.6357,4.6435,4.6673,4.7106,4.7145,4.7416,4.7845,4.7903,4.8207,4.8647,4.8673,4.8984,4.9413,4.9443,4.9702,5.0014,4.9611,4.9461,4.9577,5.0436,5.0749,5.0824,5.1267,5.1374,5.133,5.1293,5.1319,5.1271,0.0,0.0,0.0,0.0,0.0,0.0,0.0,0.0,0.0,0.0,0.0,0.0,0.0,0.0,5.4043,5.4467,0.0,5.5282,5.5746,5.5847,5.5864,5.5864,5.5884,5.5917,5.5968,5.5935,5.5935,5.5935,5.5935,5.5935,5.5935,5.6321,5.6552,5.6552,5.7362,5.7864,5.7864,5.8719,5.9327,5.9765,6.0188,6.0598,6.0991,6.0991,6.0991,6.0991,6.0991,6.0976,6.0951,6.0951,6.0934,6.0909,6.0909,6.0909,6.0909,6.0909,6.0944,6.0988,6.0961,6.0951,6.0946,0.0,0.0,0.0,0.0,0.0,0.0,0.0,4.5592,4.5592,4.5592,4.5592,4.5592,4.5592,4.5592,4.5592,4.5592,4.5592,4.5592,4.5592,4.5752,4.5831,4.5831,4.5989,4.6108,4.6108,4.6147,4.6535,4.726,4.7315,4.7715,4.8386,4.8386,4.8525,4.8739,4.8769,4.8882,4.9125,4.9143,4.958,5.0222,5.0301,5.0731,5.1248,5.0562,5.0345,5.0423,5.1166,5.14,5.1394,5.138,5.1358,5.1319,5.128,5.1268,5.1278,5.1229,5.12,0.0,0.0,0.0,0.0,0.0,0.0,0.0,0.0,0.0,5.2768,5.3382,5.418,5.472,5.472,5.5269,5.5707,5.5707,5.5747,5.5776,5.5776,5.5847,5.5869,5.5869,5.5886,5.5897,5.5897,5.6052,5.6129,5.6167,5.69,5.7362,5.7362,5.8173,5.8636,5.8636,5.9486,5.9944,5.9933,6.0628,6.0971,6.096,6.096,6.096,6.096,6.096,6.0936,6.0893,6.0893,6.0867,6.0784,6.0784,6.0784,6.0784,6.0784,6.088,6.0955,6.0909,6.0893,6.0885,0.0,0.0,0.0,0.0,0.0,0.0,0.0,0.0,4.5592,4.5592,4.5592,4.5592,4.5592,4.5592,4.5592,4.5592,4.5592,4.5592,4.5592,4.6307,4.6742,4.6742,4.7455,4.7812,4.7812,4.7891,4.802,4.8158,4.8154,4.8268,4.8387,4.8387,4.8869,4.9642,4.9656,5.0101,5.0926,5.0902,5.0967,5.1084,5.1124,5.1202,5.1281,5.1212,5.1215,5.1255,5.1372,5.1372,5.1292,5.1322,5.1319,5.128,5.124,5.1223,5.1218,5.1204,0.0,5.1122,5.1083,5.1072,0.0,5.1899,5.2013,5.2175,0.0,0.0,5.4249,5.4359,5.5015,5.556,5.556,5.5633,5.5707,5.5707,5.5712,5.5716,5.5716,5.5722,5.5724,5.5724,5.5844,5.5897,5.5897,5.6553,5.6977,5.7056,5.7788,5.825,5.825,5.9061,5.9562,5.9562,6.0412,6.0814,6.0765,6.0841,6.0894,6.0804,6.0804,6.0804,6.0804,6.0804,6.0838,6.0796,6.0796,6.0828,6.0784,6.0784,6.0784,6.0784,6.0784,6.0793,6.0804,6.0797,6.0796,6.0793,0.0,0.0,0.0,0.0,0.0,0.0,0.0,0.0,0.0,4.5592,4.5592,4.5592,4.5592,4.6068,4.6346,4.6346,4.6782,4.7059,4.7059,4.7415,4.7587,4.7605,4.792,4.8118,4.8118,4.8118,4.8435,4.8991,4.9017,4.9281,4.9834,4.9834,5.0071,5.0512,5.055,5.0768,5.1122,5.1161,5.1191,5.1196,5.1234,5.1232,5.1241,5.1241,5.1241,5.128,5.1319,5.1319,0.0,5.1241,5.1245,5.1235,5.1196,5.1163,5.1122,5.1122,5.1122,0.0,5.1063,0.0,0.0,0.0,5.2517,5.3076,5.3869,5.4279,5.4649,5.5086,5.5489,5.5707,5.5707,5.5707,5.5707,0.0,5.5707,5.5707,5.5707,5.5707,5.5899,5.6402,5.6518,5.6544,5.6544,5.6852,5.7275,5.7809,5.858,5.9042,5.9042,5.9853,6.0355,6.0355,6.0703,6.0884,6.0821,6.0821,6.0847,6.0784,6.0784,6.0784,6.0784,6.0784,6.0784,6.0784,6.0784,6.0784,6.0784,6.0784,6.0784,6.0784,6.0784,6.0784,6.0784,6.0784,6.0784,6.0784,0.0,0.0,0.0,0.0,0.0,0.0,0.0,0.0,0.0,0.0,4.5791,4.6029,4.6266,4.6861,4.7245,4.7217,4.777,4.8088,4.8088,4.8324,4.845,4.8451,4.8685,4.8805,4.8805,4.8805,4.9161,4.9836,4.9859,5.0223,5.0899,5.0899,5.0939,5.0984,5.1059,5.1087,5.1083,5.1161,5.1161,5.1161,5.12,5.1214,5.1204,5.1204,5.1204,5.1204,5.1243,5.1243,5.1204,5.1204,5.1193,5.12,5.1161,5.1122,5.1115,5.1117,5.1106,5.1123,5.1287,0.0,0.0,5.2691,5.3261,5.3902,5.4664,5.4822,5.5014,5.5598,5.5707,5.5707,5.5707,5.5707,5.5707,5.5707,5.5707,5.5707,5.5707,5.5899,5.6285,5.6904,5.721,5.744,5.7672,5.7709,5.7937,5.8587,5.9395,5.9856,5.9856,6.0475,6.0784,6.0784,6.0784,6.0784,6.0784,6.0784,6.0784,6.0784,6.0784,6.0784,6.0784,6.0784,6.0784,6.0784,6.0784,6.0784,6.0784,6.0784,6.0784,6.0784,6.0784,6.0784,6.0784,6.0784,6.0784,6.0784,0.0,0.0,0.0,0.0,0.0,0.0,0.0,0.0,0.0,0.0,0.0,0.0,0.0,4.8049,4.8049,4.8065,4.8094,4.8094,4.8094,4.8888,4.9363,4.9361,5.0154,5.063,5.063,5.063,5.063,5.067,5.0715,5.0814,5.0899,5.0899,5.0939,5.1018,5.0984,5.1034,5.1083,5.1083,5.1083,5.1122,5.1161,5.1202,5.1206,5.1206,5.1206,5.1206,5.1206,5.1206,5.1206,5.1206,5.1204,5.12,5.1122,5.1083,0.0,5.1111,5.1064,5.1182,0.0,0.0,5.2502,5.4212,5.4526,5.47,5.5559,5.572,5.567,5.5707,5.5707,5.5707,5.5707,5.5707,5.5707,5.5707,5.5707,5.5707,5.5707,5.6441,5.6981,5.6981,5.7745,5.8585,0.0,5.9435,5.9433,5.9472,6.0282,6.0747,6.0747,6.0784,6.0784,6.0784,6.0784,6.0784,6.0784,6.0784,6.0784,6.0784,6.0784,6.0784,6.0784,6.0784,6.0784,6.0784,6.0784,6.0784,6.0784,6.0784,6.0784,6.0784,6.0784,6.0784,6.0784,6.0784,6.0784,6.0784,0.0,0.0,0.0,0.0,0.0,0.0,0.0,0.0,0.0,0.0,0.0,0.0,0.0,0.0,0.0,0.0,4.948,4.9836,4.9836,5.0114,5.0273,5.0273,5.0551,5.0709,5.0709,5.0709,5.0709,5.0709,5.0709,5.0768,5.0821,5.0899,5.09,5.0939,5.0978,5.101,5.1021,5.106,5.1117,5.1083,5.1122,5.1122,5.1122,5.1122,5.1122,5.1122,0.0,5.1122,5.1122,5.1122,5.1122,5.1122,5.1122,5.106,5.1129,5.1665,5.1768,5.1924,5.2754,0.0,5.3877,5.4432,5.4969,5.5435,5.5696,5.5724,5.5707,5.5707,5.5707,5.5707,5.5707,5.5707,5.5707,5.5707,5.6209,5.6556,5.6556,5.7322,5.8051,5.8591,5.8934,0.0,0.0,0.0,0.0,6.0321,6.063,6.0784,6.0784,6.0784,6.0784,6.0784,6.0784,6.0784,6.0784,6.0784,6.0784,6.0784,6.0784,6.0784,6.0784,6.0784,6.0784,6.0784,6.0784,6.0784,6.0784,6.0784,6.0784,6.0861,6.1441,6.1673,6.1749,6.2243,6.2471,6.2317,0.0,0.0,0.0,0.0,0.0,0.0,0.0,0.0,0.0,0.0,0.0,0.0,0.0,0.0,0.0,0.0,0.0,5.0709,5.0709,5.0709,5.0709,5.0709,5.0709,5.0709,5.0709,5.0709,5.0709,5.0709,5.0709,5.0734,5.0771,5.0872,5.0899,5.0899,5.0939,5.0978,5.0978,5.1057,5.1079,5.1089,5.1089,5.1089,5.1089,5.1089,5.1089,0.0,5.1089,5.1089,5.1089,5.1089,5.1089,5.1089,5.1089,5.122,5.1531,5.2004,5.2342,5.2744,5.3586,5.4204,5.4612,5.491,5.5389,5.5747,5.5707,5.5707,5.5707,5.5707,5.5707,5.5707,5.5707,5.5707,5.5784,5.6093,5.6633,5.7095,5.7438,5.8204,5.8933,5.9433,5.9781,6.0165,0.0,0.0,0.0,6.0747,6.0784,6.0784,6.0784,6.0784,6.0784,6.0784,6.0784,6.0784,6.0784,6.0784,6.0784,6.0784,6.0784,6.0784,6.0784,6.0784,6.0784,6.0824,6.1132,6.1248,6.1285,6.1552,6.1704,6.1743,6.2323,6.2515,6.2592,6.3125,6.3314,6.316,0.0,0.0,0.0,0.0,0.0,0.0,0.0,0.0,0.0,0.0,0.0,0.0,0.0,0.0,0.0,0.0,0.0,0.0,5.0709,5.0709,5.0709,5.0709,5.0709,5.0709,5.0709,5.0709,5.0709,5.0709,5.0709,5.0709,5.0713,5.0812,5.0891,5.0899,5.0899,5.0899,5.0899,5.0978,5.0978,5.1017,5.1058,5.1096,5.1096,5.1096,5.1096,5.1096,5.1096,5.1057,5.1018,5.1058,5.1136,0.0,5.1096,5.1609,5.2279,5.2236,5.2815,5.3625,5.4456,5.4597,5.4755,5.5588,5.5747,5.5707,5.5707,5.5707,5.5707,5.5707,5.5707,5.5707,0.0,0.0,5.6053,5.6865,5.7059,5.7401,5.8241,5.9047,5.9587,0.0,0.0,0.0,0.0,0.0,0.0,6.0784,0.0,6.0784,6.0784,6.0784,6.0784,6.0784,6.0784,6.0784,6.0784,6.0784,6.0784,6.0784,6.0861,6.0862,6.0862,6.0899,6.0938,6.0976,6.1787,6.2173,6.2212,6.2972,6.3314,6.3314,6.3352,6.3352,6.3352,6.3429,6.3429,6.3429,0.0,0.0,0.0,0.0,0.0,0.0,0.0,0.0,0.0,0.0,0.0,0.0,0.0,0.0,0.0,0.0,0.0,0.0,5.0709,5.0709,5.0709,5.0709,5.0709,5.0709,5.0709,5.0709,5.0709,5.0709,5.0709,5.0709,5.0709,5.0721,5.0778,5.0821,5.0899,5.0899,5.0899,5.0939,5.0939,5.0939,5.0939,5.0939,5.0939,5.0939,5.0939,5.0939,5.0939,5.0939,0.0,0.0,0.0,0.0,0.0,5.2399,5.3216,5.3799,5.4067,5.4392,5.5247,5.5468,5.5468,5.5667,5.5707,5.5707,5.5707,5.5707,5.5707,5.5707,5.5707,5.5707,0.0,0.0,0.0,5.6941,5.8054,0.0,5.9164,5.9936,0.0,6.0475,0.0,6.0784,6.0784,6.0784,0.0,0.0,6.0784,6.0784,6.0784,6.0784,6.0784,6.0784,6.0784,6.0784,6.0784,6.0784,6.0784,6.0824,6.1441,6.1789,6.1789,6.2397,6.2663,6.2663,6.2894,6.2972,6.3009,6.3237,6.3314,6.3352,6.4008,6.4279,6.4357,6.5013,6.5243,6.5243,0.0,0.0,0.0,0.0,0.0,0.0,0.0,0.0,0.0,0.0,0.0,0.0,0.0,0.0,0.0,0.0,0.0,0.0,0.0,5.0709,5.0709,5.0709,5.0709,5.0709,5.0709,5.0709,5.0709,5.0709,5.0709,5.0709,5.0709,5.0709,5.0728,5.0749,5.0828,5.0871,5.086,5.086,5.086,0.0,0.0,5.086,5.086,5.086,5.086,5.086,5.086,0.0,0.0,0.0,0.0,5.2196,5.2522,5.3207,5.4,5.4433,0.0,5.5153,5.5627,5.5746,5.5707,5.5707,5.5707,5.5707,5.5707,5.5707,5.5707,5.5707,5.5984,0.0,0.0,0.0,0.0,0.0,0.0,0.0,6.0012,6.0476,6.0784,0.0,6.0784,0.0,6.0784,6.0784,6.0784,0.0,6.0784,6.0784,6.0784,6.0784,6.0784,6.0784,6.0784,6.0978,6.1364,6.1364,6.1555,6.1895,6.2397,6.263,6.2629,6.3085,6.3314,6.3314,6.37,6.3854,6.3892,6.4279,6.4432,6.4472,6.4974,6.5166,6.5243,6.5708,6.59,6.59,0.0,0.0,0.0,0.0,0.0,0.0,0.0,0.0,0.0,0.0,0.0,0.0,0.0,0.0,0.0,0.0,0.0,0.0,0.0,0.0,0.0,5.0709,5.0709,5.0709,5.0709,5.0709,5.0709,5.0709,5.0709,5.0709,5.0709,5.0709,5.0709,5.0709,5.0749,5.0802,5.0788,5.0788,5.0788,5.0788,5.0788,5.0788,5.0788,0.0,5.0867,0.0,0.0,0.0,0.0,0.0,5.3016,5.2536,5.3227,5.4075,5.4755,5.4675,5.5191,5.5785,5.5707,5.5707,5.5707,5.5707,5.5707,5.5707,5.5707,5.5707,5.5746,5.5865,0.0,5.705,5.7155,5.7882,5.8685,5.9373,0.0,5.9935,6.0707,6.0784,6.0784,6.0784,6.0784,6.0784,6.0784,6.0784,6.0784,6.0784,6.0784,6.0784,6.0784,6.0784,6.0861,6.0976,6.0976,6.1401,6.2249,6.2249,6.2591,6.3314,6.3429,6.3468,6.3468,6.3585,6.3662,6.37,6.4432,6.478,6.4819,6.5593,6.59,6.59,6.59,6.59,6.59,6.59,6.59,6.59,0.0,0.0,0.0,0.0,0.0,0.0,0.0,0.0,0.0,0.0,5.063,0.0,0.0,0.0,0.0,0.0,0.0,0.0,0.0,0.0,0.0,0.0,5.0709,5.0709,5.0709,5.0709,5.0709,5.0709,5.0709,5.0709,5.0709,5.0709,5.0709,5.0709,5.0709,5.0729,5.072,5.0799,5.0799,5.0799,5.0799,5.0799,5.0799,5.0799,0.0,0.0,0.0,0.0,0.0,0.0,5.425,5.4197,5.4262,5.4904,5.5588,5.5508,5.5588,5.5707,5.5707,5.5707,5.5707,5.5707,5.5707,5.5707,5.5707,5.5707,0.0,0.0,5.6896,5.7227,5.7932,5.8743,5.9343,5.9484,0.0,0.0,0.0,0.0,6.0784,0.0,0.0,0.0,0.0,0.0,0.0,0.0,6.0784,6.0784,6.0784,6.0784,6.1132,6.1866,6.1866,6.2284,6.3085,6.3085,6.316,6.3314,6.4048,6.4355,6.4394,6.5128,6.5437,6.5476,6.5591,6.5668,6.5707,6.5824,6.59,6.59,6.59,6.59,6.59,6.59,6.59,6.59,0.0,0.0,0.0,0.0,0.0,0.0,0.0,0.0,0.0,0.0,5.0575,5.062,0.0,0.0,0.0,0.0,0.0,0.0,0.0,0.0,0.0,0.0,0.0,0.0,5.0709,5.0709,5.0709,5.0709,0.0,5.0709,5.0709,5.0709,5.0709,5.0709,5.0709,5.0709,5.0709,5.0748,5.0749,5.0789,5.1186,5.1383,0.0,0.0,0.0,0.0,0.0,0.0,0.0,0.0,5.5151,5.5153,5.5113,5.5428,5.5747,5.5707,5.5707,5.5707,5.5707,5.5707,5.5707,5.5707,5.5707,5.5707,5.5707,0.0,0.0,0.0,5.7686,5.8424,5.8849,0.0,0.0,0.0,0.0,0.0,0.0,0.0,0.0,0.0,0.0,0.0,0.0,0.0,0.0,0.0,6.121,6.1287,6.0824,6.1247,6.1863,6.2706,6.2704,6.3126,6.3971,6.3971,6.4202,6.4665,6.5091,6.5283,6.5282,6.5708,6.59,6.59,6.59,6.59,6.59,6.59,6.59,6.59,6.59,6.59,6.59,6.59,6.59,6.59,0.0,0.0,0.0,0.0,0.0,0.0,0.0,5.0441,5.0441,5.0441,5.0441,5.0475,5.0541,5.0563,5.063,0.0,0.0,0.0,0.0,0.0,0.0,0.0,0.0,0.0,0.0,0.0,0.0,5.0709,5.0709,0.0,0.0,0.0,0.0,0.0,5.0868,5.0948,5.0986,5.1146,5.1225,0.0,0.0,5.2164,0.0,0.0,0.0,0.0,0.0,0.0,0.0,0.0,5.5707,5.5707,5.5707,5.5707,5.5707,5.5707,5.5707,5.5707,5.5707,5.5707,5.5707,5.5707,5.5707,5.5747,5.5945,5.6501,0.0,0.0,5.8581,5.9554,5.9752,0.0,0.0,0.0,6.0784,0.0,0.0,0.0,0.0,0.0,0.0,0.0,0.0,0.0,0.0,0.0,6.1863,6.2055,6.1359,6.1976,6.2744,6.3545,6.3585,6.4008,6.4859,6.4897,6.5205,6.59,6.59,6.59,6.59,6.59,6.59,6.59,6.59,6.59,6.59,6.59,6.59,6.59,6.59,6.6016,6.6171,6.6171,6.6285,6.6437,0.0,0.0,0.0,0.0,0.0,0.0,0.0,5.032,5.032,5.032,5.032,5.033,5.0393,5.051,5.059,0.0,0.0,0.0,0.0,0.0,0.0,0.0,0.0,0.0,0.0,0.0,0.0,5.0709,5.0709,0.0,0.0,0.0,0.0,0.0,0.0,5.178,5.1858,5.2612,0.0,0.0,0.0,0.0,0.0,0.0,0.0,0.0,0.0,0.0,0.0,0.0,0.0,5.5707,5.5707,5.5707,5.5707,5.5707,0.0,0.0,5.5707,5.5707,5.5707,5.5707,5.5707,5.5905,5.6699,0.0,0.0,5.8954,5.9403,5.9752,6.0546,0.0,0.0,0.0,6.0784,6.0784,0.0,0.0,0.0,0.0,0.0,0.0,0.0,0.0,0.0,6.1905,6.2743,6.316,6.3085,6.316,6.3585,6.4432,6.4472,6.4896,6.5785,6.5785,6.5824,6.59,6.59,6.59,6.59,6.59,6.59,6.59,6.59,6.59,6.59,6.59,6.59,6.59,6.59,6.6364,6.6979,6.6979,6.7475,6.8162,0.0,0.0,0.0,0.0,0.0,0.0,0.0,5.0281,5.0281,5.0281,5.0281,5.032,5.0321,5.0449,5.0564,0.0,0.0,0.0,0.0,0.0,0.0,0.0,0.0,0.0,0.0,0.0,0.0,5.2215,5.2215,0.0,0.0,0.0,0.0,0.0,0.0,5.2695,5.2715,5.3033,0.0,0.0,0.0,0.0,0.0,0.0,0.0,0.0,0.0,0.0,0.0,0.0,0.0,0.0,5.5707,5.5707,0.0,0.0,5.5707,5.5707,5.5707,5.5707,5.5707,5.5707,5.6103,5.6579,5.6936,0.0,5.8694,5.9364,5.9911,6.0388,6.0744,6.0784,6.0784,6.0784,6.0784,6.0784,6.0784,0.0,0.0,0.0,0.0,0.0,0.0,0.0,0.0,6.3515,6.3895,6.4317,6.4857,6.4357,6.4472,6.5359,6.5399,6.5553,6.59,6.59,6.59,6.59,6.59,6.59,6.59,6.59,6.59,6.59,6.59,6.617,6.6633,6.6633,6.6938,6.7394,6.7394,6.7588,6.7896,6.7896,6.8087,6.8391,0.0,0.0,0.0,0.0,0.0,0.0,5.0281,5.0281,5.0281,5.0281,5.0281,5.0281,5.0281,5.04,5.0621,5.0929,0.0,0.0,0.0,0.0,0.0,0.0,0.0,0.0,0.0,0.0,0.0,0.0,0.0,5.3201,0.0,0.0,5.3201,5.3201,0.0,0.0,0.0,0.0,0.0,0.0,0.0,0.0,0.0,0.0,0.0,0.0,0.0,0.0,0.0,0.0,0.0,0.0,0.0,0.0,0.0,0.0,5.5707,5.5707,5.5707,5.5707,5.5747,5.6024,5.6541,5.7126,0.0,0.0,5.9555,5.9832,6.0388,6.0784,6.0784,6.0784,6.0784,6.0784,6.0784,6.0784,6.0784,6.0784,0.0,0.0,0.0,0.0,0.0,0.0,6.3323,6.4511,6.4857,6.5245,6.5864,6.5322,6.5283,6.5862,6.59,6.59,6.59,6.59,6.59,6.59,6.59,6.59,6.59,6.6133,6.6247,6.6287,6.6514,6.6976,6.7476,6.7476,6.7858,6.8391,6.8391,6.8547,6.8778,6.8778,6.8933,6.9124,0.0,0.0,0.0,0.0,0.0,0.0,0.0,5.0281,5.0281,5.0281,5.0281,5.0281,5.0281,5.04,5.086,5.1722,0.0,0.0,0.0,0.0,0.0,0.0,0.0,0.0,0.0,0.0,0.0,0.0,0.0,0.0,0.0,5.3208,5.3208,5.3247,0.0,0.0,0.0,0.0,0.0,0.0,0.0,0.0,0.0,0.0,0.0,0.0,0.0,0.0,0.0,0.0,0.0,0.0,0.0,5.5707,5.5707,0.0,5.5707,5.5707,5.5707,5.5707,5.5905,5.6777,5.6976,5.7424,0.0,0.0,5.9752,6.0624,6.0784,6.0784,6.0784,6.0784,6.0784,6.0784,6.0784,6.0784,6.0784,6.0784,0.0,0.0,0.0,0.0,0.0,0.0,6.4588,6.4588,6.5399,0.0,6.59,6.59,6.59,6.59,6.59,6.59,6.59,6.59,6.59,6.59,6.59,6.59,6.5941,6.671,6.7095,6.7133,6.801,6.8391,6.8391,6.8391,6.8391,6.8391,6.8391,6.8931,6.9704,6.9704,7.0206,7.086,0.0,0.0,0.0,0.0,0.0,0.0,0.0,5.0281,5.0281,5.0281,5.0281,5.0281,5.0281,5.0959,5.1498,5.1762,0.0,0.0,0.0,0.0,0.0,0.0,0.0,0.0,0.0,0.0,0.0,0.0,0.0,0.0,0.0,0.0,0.0,5.4914,5.5191,0.0,0.0,0.0,0.0,0.0,0.0,0.0,0.0,0.0,0.0,0.0,0.0,0.0,0.0,0.0,0.0,0.0,0.0,0.0,0.0,5.5707,5.5707,5.5707,5.5707,5.6142,5.6659,5.6936,5.7873,5.8842,5.9363,0.0,6.0467,6.0744,6.0784,6.0784,6.0784,6.0784,6.0784,6.0784,6.0784,6.0784,6.0784,0.0,0.0,0.0,0.0,0.0,0.0,0.0,6.5476,6.5476,6.5745,6.59,6.59,6.59,6.59,6.59,6.59,6.59,6.59,6.59,6.617,6.671,6.671,6.7015,6.7625,6.7856,6.7971,6.801,6.8277,6.8739,6.9279,6.9279,6.9625,7.0127,7.0127,7.0281,7.0512,7.0512,7.0667,7.0898,0.0,0.0,0.0,0.0,0.0,0.0,0.0,5.0281,5.0281,5.0281,5.0281,5.043,5.0763,5.14,5.2057,5.2699,0.0,0.0,0.0,0.0,0.0,0.0,0.0,0.0,0.0,0.0,0.0,0.0,0.0,0.0,0.0,0.0,0.0,0.0,0.0,0.0,0.0,0.0,0.0,0.0,0.0,0.0,5.5707,0.0,0.0,0.0,0.0,0.0,0.0,0.0,0.0,0.0,0.0,0.0,0.0,0.0,5.5945,5.6183,5.6183,5.6579,5.7164,5.78,5.8731,0.0,0.0,0.0,6.0784,6.0784,6.0784,6.0784,6.0784,6.0784,6.0784,6.0784,6.0784,6.0784,6.0784,0.0,0.0,0.0,0.0,0.0,0.0,6.5591,6.59,6.59,6.59,6.59,6.59,6.59,6.6056,6.6325,6.6054,6.6056,6.6364,6.6362,6.6784,6.7592,6.7592,6.7858,6.8391,6.8739,6.8893,6.8893,6.9201,6.9664,0.0,7.0166,7.0437,7.0898,7.0898,7.0898,7.0898,7.0898,7.0898,7.0898,0.0,0.0,0.0,0.0,0.0,0.0,0.0,0.0,0.0,0.0,5.0281,5.0616,5.1511,5.1766,5.2536,0.0,0.0,0.0,0.0,0.0,0.0,0.0,0.0,0.0,0.0,0.0,0.0,5.5707,5.5707,5.5707,5.5707,0.0,0.0,0.0,0.0,0.0,0.0,0.0,0.0,0.0,5.5707,5.5707,0.0,0.0,0.0,0.0,0.0,0.0,0.0,0.0,0.0,0.0,0.0,0.0,0.0,0.0,0.0,0.0,0.0,5.7123,5.7536,5.9102,5.9554,5.9792,6.0626,0.0,0.0,6.0784,6.0784,6.0784,6.0784,6.0784,6.0784,6.0784,6.0784,6.0784,6.0784,6.1595,0.0,0.0,0.0,0.0,6.5824,6.59,6.59,6.59,6.59,6.5902,6.5979,6.5979,6.6362,6.7172,6.6478,6.6439,6.7172,6.7172,6.763,6.8508,6.8508,6.8507,6.8624,6.9433,6.9783,6.9819,7.0591,7.0898,7.0898,7.0898,7.0898,7.0898,7.0898,7.0898,7.0898,7.0898,7.0898,7.0898,0.0,0.0,0.0,0.0,0.0,0.0,0.0,0.0,0.0,0.0,5.0281,5.0646,5.1579,5.2288,5.3164,0.0,0.0,0.0,0.0,0.0,0.0,0.0,0.0,0.0,0.0,0.0,0.0,5.5707,5.5707,5.5707,5.5707,5.5707,0.0,0.0,0.0,0.0,0.0,0.0,0.0,0.0,5.5707,5.5707,0.0,0.0,0.0,0.0,5.5707,5.5707,0.0,0.0,0.0,0.0,0.0,0.0,0.0,0.0,5.6303,5.7156,5.7829,0.0,5.8991,5.9403,5.9991,6.0546,0.0,0.0,0.0,0.0,0.0,6.0784,6.0784,6.0784,6.0784,6.0784,6.0784,6.0784,6.0784,0.0,0.0,0.0,0.0,0.0,6.5862,6.59,6.59,6.59,6.59,6.6171,6.6787,6.6825,6.7207,6.8087,6.7893,6.7893,6.8087,6.8087,6.8548,6.9395,6.9395,6.9702,7.032,7.0512,7.0629,7.0629,7.0821,7.0898,7.0898,7.0898,7.0898,7.0898,7.0898,7.0898,7.0898,7.0898,7.0898,7.0898,0.0,0.0,0.0,0.0,0.0,0.0,0.0,0.0,0.0,0.0,0.0,0.0,0.0,0.0,0.0,0.0,0.0,0.0,0.0,0.0,0.0,0.0,0.0,0.0,0.0,0.0,0.0,0.0,0.0,5.5707,0.0,0.0,0.0,0.0,0.0,0.0,0.0,0.0,0.0,0.0,5.5707,0.0,0.0,0.0,0.0,0.0,5.5707,5.5707,0.0,5.5707,5.5707,5.5707,0.0,0.0,0.0,0.0,5.6896,5.7786,5.863,5.9158,5.9594,5.9991,6.0466,6.0784,6.0784,0.0,0.0,0.0,0.0,0.0,6.0784,6.0784,6.0784,6.0784,6.0784,6.1056,0.0,0.0,0.0,0.0,0.0,6.59,0.0,6.59,6.59,6.59,6.6247,6.6633,6.7095,6.7476,6.8088,6.897,6.901,6.901,6.901,6.901,6.9433,7.0244,7.0244,7.0475,7.0898,7.0898,7.0898,7.0898,7.0898,7.0898,7.0898,7.0898,7.0898,7.0898,7.0898,7.0898,7.0937,7.1362,7.1517,7.1556,0.0,0.0,0.0,0.0,0.0,0.0,0.0,0.0,0.0,0.0,0.0,0.0,0.0,0.0,0.0,0.0,0.0,0.0,0.0,0.0,0.0,0.0,0.0,0.0,0.0,0.0,0.0,0.0,0.0,0.0,0.0,0.0,5.5707,0.0,0.0,0.0,0.0,0.0,0.0,0.0,5.5707,0.0,0.0,0.0,0.0,0.0,0.0,0.0,0.0,5.5707,5.5707,5.5707,5.5707,0.0,0.0,0.0,0.0,0.0,5.9302,5.9594,5.9872,6.0626,6.0784,6.0784,6.0784,0.0,0.0,0.0,0.0,0.0,0.0,0.0,0.0,0.0,0.0,0.0,0.0,0.0,0.0,0.0,6.59,0.0,6.59,6.59,6.5939,6.6054,6.6708,6.721,6.7479,6.8202,6.9008,6.9858,6.9896,6.9896,6.9896,6.9896,7.0243,7.0898,7.0898,7.0898,7.0898,7.0898,7.0898,7.0898,7.0898,7.0898,7.0898,7.0898,7.0977,7.1092,7.1092,7.1168,7.1398,7.2133,7.2402,7.2517,0.0,0.0,0.0,0.0,0.0,0.0,0.0,0.0,0.0,0.0,0.0,0.0,0.0,0.0,0.0,0.0,0.0,0.0,0.0,0.0,0.0,0.0,0.0,0.0,0.0,0.0,0.0,0.0,0.0,0.0,5.5707,5.5707,5.5707,0.0,0.0,0.0,0.0,0.0,0.0,5.5707,5.5707,0.0,0.0,0.0,0.0,0.0,0.0,0.0,0.0,5.5707,5.5707,5.5707,5.5707,0.0,0.0,0.0,0.0,0.0,5.948,6.0031,6.0626,6.0784,6.0784,6.0784,0.0,0.0,0.0,0.0,0.0,0.0,0.0,0.0,0.0,0.0,0.0,0.0,0.0,0.0,0.0,6.5785,0.0,6.59,6.59,6.59,6.617,6.6864,6.7018,6.7749,6.9206,6.9435,6.9858,7.0704,7.0706,7.0706,7.0706,7.0706,7.0783,7.0898,7.0898,7.0898,7.0898,7.0898,7.0898,7.0898,7.0898,7.0898,7.0898,7.0898,7.1323,7.2019,7.2019,7.2437,7.3122,7.324,7.3318,7.3434,0.0,0.0,0.0,0.0,0.0,0.0,0.0,0.0,0.0,0.0,0.0,0.0,0.0,0.0,0.0,0.0,0.0,0.0,0.0,0.0,0.0,0.0,0.0,0.0,0.0,0.0,0.0,0.0,0.0,5.5707,5.5707,5.5707,5.5707,5.5707,0.0,0.0,0.0,0.0,5.5707,5.5707,0.0,0.0,0.0,0.0,0.0,0.0,0.0,0.0,0.0,0.0,5.5588,5.5673,5.6144,0.0,0.0,0.0,0.0,0.0,6.0011,6.0427,6.0744,6.0784,6.0784,0.0,0.0,0.0,0.0,0.0,0.0,0.0,0.0,0.0,0.0,0.0,0.0,0.0,0.0,0.0,6.5437,0.0,0.0,6.59,6.59,6.6285,6.671,6.7056,6.7978,6.8859,6.9666,7.0127,7.0512,7.0898,7.0898,7.0898,7.0898,7.0898,7.0898,7.0898,7.0898,7.0898,7.0898,7.0898,7.0898,7.0938,7.14,7.1592,7.1631,7.2128,7.2549,7.2897,7.2897,7.3164,7.3546,7.4009,7.4434,7.4897,0.0,0.0,0.0,0.0,0.0,0.0,0.0,0.0,0.0,0.0,0.0,0.0,0.0,0.0,0.0,0.0,0.0,0.0,0.0,0.0,0.0,0.0,0.0,0.0,0.0,0.0,5.5707,5.5707,5.5707,5.5707,5.5707,5.5707,5.5707,0.0,0.0,0.0,0.0,5.5707,5.5707,5.5707,0.0,0.0,0.0,0.0,0.0,0.0,0.0,0.0,0.0,0.0,0.0,0.0,0.0,0.0,0.0,5.8911,5.9458,5.9762,6.0468,6.0676,6.0698,6.0738,0.0,0.0,0.0,0.0,0.0,0.0,0.0,0.0,0.0,0.0,0.0,0.0,0.0,0.0,0.0,6.5465,6.59,6.59,6.59,6.5977,6.6171,6.6748,6.7287,6.7672,6.8938,6.9781,6.9973,7.0552,7.0898,7.0898,7.0898,7.0898,7.0898,7.0898,7.0898,7.0898,7.0898,7.0898,7.0898,7.1092,7.1206,7.1245,7.2131,7.2516,7.2554,7.3201,7.3623,7.3776,7.3776,7.3892,7.4163,7.478,7.5436,7.6015,0.0,0.0,0.0,0.0,0.0,0.0,0.0,0.0,0.0,0.0,0.0,0.0,0.0,0.0,0.0,0.0,0.0,0.0,0.0,0.0,0.0,0.0,0.0,0.0,0.0,5.5707,5.5707,5.5707,5.5707,5.5707,5.5707,5.5707,5.5707,5.5707,0.0,0.0,0.0,5.5707,5.5707,5.5707,5.5707,0.0,0.0,0.0,0.0,0.0,0.0,0.0,0.0,0.0,0.0,0.0,0.0,0.0,5.914,5.9271,5.9873,6.0514,6.0604,6.0621,6.0596,6.0596,0.0,0.0,0.0,0.0,0.0,0.0,0.0,0.0,0.0,0.0,0.0,0.0,0.0,6.4869,6.5702,0.0,6.59,6.59,6.59,6.6208,6.6942,6.7058,6.7786,6.9398,6.9627,7.0014,7.0783,7.0862,7.0898,7.0898,7.0898,7.0898,7.0898,7.0898,7.0898,7.0898,7.0898,7.0898,7.0938,7.1748,7.2094,7.2133,7.3012,7.3393,7.3393,7.347,7.3932,7.4624,7.4624,7.5126,7.5822,7.5899,7.5938,7.6015,0.0,0.0,0.0,0.0,0.0,0.0,0.0,0.0,0.0,0.0,0.0,0.0,0.0,0.0,0.0,0.0,0.0,0.0,0.0,0.0,0.0,0.0,0.0,5.5707,5.5707,5.5707,5.5707,5.5707,5.5707,5.5707,5.5707,5.5707,0.0,0.0,0.0,0.0,0.0,0.0,5.5686,5.5651,5.5651,5.56,0.0,0.0,0.0,0.0,0.0,0.0,0.0,0.0,5.675,5.7559,5.8073,5.8681,5.9297,5.9818,6.0217,6.0467,6.0549,6.0521,6.0563,6.0579,0.0,0.0,0.0,0.0,0.0,0.0,0.0,0.0,0.0,0.0,0.0,0.0,0.0,6.5505,6.586,6.59,6.59,6.59,6.6325,6.6789,6.7056,6.8092,6.8975,6.9666,7.0166,7.0591,7.0898,7.0898,7.0898,7.0898,7.0898,7.0898,7.0898,7.144,7.171,7.171,7.171,7.171,7.1748,7.2628,7.3011,7.3049,7.3894,7.424,7.4278,7.482,7.5243,7.5513,7.5513,7.5705,7.6015,7.6015,7.6015,7.6015,0.0,0.0,0.0,0.0,0.0,0.0,0.0,0.0,0.0,0.0,0.0,0.0,0.0,0.0,0.0,0.0,0.0,0.0,0.0,0.0,0.0,0.0,0.0,5.5707,5.5707,5.5707,5.5707,5.5707,5.5707,5.5707,5.5707,0.0,0.0,0.0,0.0,0.0,0.0,0.0,0.0,5.5614,5.5594,5.5548,0.0,0.0,0.0,0.0,0.0,0.0,0.0,0.0,5.751,5.8309,5.8859,5.9193,5.9542,6.0141,6.0359,6.0387,6.0434,6.0469,6.0491,0.0,0.0,0.0,0.0,0.0,0.0,0.0,0.0,0.0,0.0,0.0,0.0,0.0,6.5505,6.59,6.59,6.59,6.5977,6.6247,6.6748,6.7326,6.7863,6.9013,6.9819,7.005,7.0591,7.0898,7.0898,7.0898,7.0898,7.0898,7.1169,7.1323,7.1323,7.217,7.2593,7.2591,7.2862,7.2862,7.2631,7.3472,7.3894,7.3932,7.4742,7.5126,7.5165,7.5745,7.6015,7.6015,7.6015,7.6015,7.6015,7.6015,7.6015,7.6015,0.0,0.0,0.0,0.0,0.0,0.0,0.0,0.0,0.0,0.0,0.0,0.0,0.0,0.0,0.0,0.0,0.0,0.0,0.0,5.5707,5.5707,5.5707,5.5707,5.5707,5.5707,5.5707,5.5707,5.5707,5.5707,5.5707,5.5707,5.5707,0.0,0.0,0.0,0.0,0.0,0.0,0.0,0.0,5.5547,5.5442,5.5382,0.0,0.0,0.0,0.0,0.0,0.0,0.0,5.8257,5.8919,5.8919,5.945,6.0093,6.0093,6.0187,6.0286,6.0286,6.035,0.0,0.0,0.0,0.0,0.0,0.0,0.0,0.0,0.0,0.0,0.0,0.0,0.0,6.5742,6.59,6.59,6.59,6.59,6.621,6.7019,6.7096,6.7786,6.9512,6.9704,7.005,7.0821,7.0898,7.0898,7.0898,7.0898,7.0898,7.0898,7.1748,7.2211,7.2211,7.3089,7.3507,7.3507,7.4317,7.4278,7.3546,7.4355,7.4701,7.4778,7.563,7.6015,7.6015,7.6015,7.6015,7.6015,7.6015,7.6015,7.6015,7.6015,7.6015,7.6015,0.0,0.0,0.0,0.0,0.0,0.0,0.0,0.0,0.0,0.0,0.0,0.0,0.0,0.0,0.0,0.0,0.0,0.0,0.0,5.5707,5.5707,5.5707,5.5707,5.5707,5.5707,5.5707,5.5707,5.5707,5.5707,5.5707,5.5707,0.0,0.0,5.5707,0.0,0.0,0.0,0.0,0.0,0.0,5.5422,5.5413,5.539,0.0,0.0,0.0,0.0,0.0,0.0,0.0,0.0,0.0,5.9752,5.9905,6.0093,6.0093,6.0148,6.0167,6.0167,6.0187,0.0,0.0,0.0,0.0,0.0,0.0,0.0,0.0,0.0,0.0,0.0,0.0,0.0,6.5543,6.5782,6.5822,6.5822,6.6341,6.6838,6.7055,6.8169,6.9129,6.9666,7.0204,7.0629,7.0898,7.0898,7.0898,7.0898,7.0898,7.1169,7.1787,7.2058,7.2477,7.3126,7.3934,7.4355,7.4355,7.5203,7.5167,7.4355,7.5243,7.5628,7.563,7.5899,7.6015,7.6015,7.6015,7.6015,7.6015,7.6015,7.6015,7.6015,7.6015,7.6015,7.6015,0.0,0.0,0.0,0.0,0.0,0.0,0.0,0.0,0.0,0.0,5.5206,5.5707,0.0,0.0,0.0,0.0,0.0,0.0,0.0,0.0,5.5707,5.5707,5.5707,5.5707,5.5707,5.5707,5.5707,5.5707,5.5707,5.5707,0.0,0.0,0.0,5.5671,0.0,5.5638,0.0,0.0,5.5457,5.5381,5.5391,5.5568,5.5849,0.0,0.0,0.0,0.0,0.0,0.0,0.0,0.0,0.0,5.9982,5.9982,5.9982,5.9982,6.0031,6.0047,6.0047,0.0,0.0,0.0,0.0,0.0,0.0,0.0,0.0,0.0,0.0,0.0,0.0,6.4659,0.0,6.5534,6.5654,6.5733,6.5726,6.6475,6.7166,6.7482,6.8769,6.9777,7.0086,7.0612,7.0898,7.0898,7.0898,7.0898,7.0898,7.1246,7.1671,7.2173,7.2864,7.3435,7.3969,7.4819,7.5203,7.5203,7.5745,7.5705,7.5243,7.5745,7.6015,7.6015,7.6015,7.6015,7.6015,7.6015,7.6015,7.6015,7.6015,7.6015,7.6015,7.6015,7.6209,7.6517,0.0,0.0,5.0709,5.0709,0.0,0.0,0.0,0.0,0.0,0.0,5.5244,5.5707,0.0,0.0,0.0,0.0,0.0,0.0,0.0,0.0,5.5707,5.5707,5.5707,5.5707,5.5707,5.5707,5.5707,5.5707,5.5707,5.5707,0.0,0.0,5.5669,5.5617,0.0,5.5534,5.5507,5.5448,5.5457,5.5523,5.549,5.5957,5.6617,5.661,0.0,0.0,0.0,0.0,0.0,0.0,0.0,0.0,5.9769,5.9769,5.9769,5.9769,5.9853,5.9978,5.9978,0.0,0.0,0.0,0.0,0.0,0.0,0.0,0.0,0.0,0.0,6.4344,6.4459,6.5095,6.5574,6.5574,6.5574,6.5636,6.5708,6.6448,6.7328,6.8204,6.9096,6.9931,7.0704,7.0841,7.0883,7.0888,7.089,7.0932,7.1014,7.1787,7.2288,7.2404,7.3897,7.474,7.4817,7.559,7.6015,7.6015,7.6015,7.6015,7.6015,7.6015,7.6015,7.6015,7.6015,7.6015,7.6015,7.6015,7.6015,7.6013,7.6084,7.6081,7.6119,7.6196,7.6734,7.7394,0.0,0.0,5.0709,5.0709,0.0,0.0,0.0,0.0,0.0,0.0,0.0,0.0,0.0,0.0,0.0,0.0,0.0,0.0,0.0,0.0,5.5707,5.5707,5.5707,5.5707,5.5707,5.5707,5.5707,5.5707,5.5707,0.0,0.0,0.0,0.0,5.5614,0.0,5.5467,5.5404,5.5427,5.5777,5.6339,5.6295,5.6751,5.7421,5.7363,5.7864,0.0,0.0,0.0,0.0,0.0,0.0,0.0,5.9637,5.9637,5.9637,5.9637,5.9668,5.9698,0.0,5.9763,0.0,0.0,0.0,0.0,0.0,0.0,0.0,0.0,6.3884,6.4402,6.5066,6.5335,6.5454,6.5454,6.5494,6.5759,6.6464,6.7341,6.8216,6.9036,6.9901,7.0509,7.0701,7.0718,7.075,7.0811,7.0815,7.1147,7.186,7.2096,7.2787,7.4128,7.4511,7.5011,7.5705,7.5899,7.6015,7.6015,7.6015,7.6015,7.6015,7.6015,7.6015,7.6015,7.6015,7.6015,7.6015,7.6015,7.6015,7.6046,7.6636,7.684,7.6955,7.7643,7.7987,7.8152,0.0,0.0,0.0,0.0,0.0,0.0,0.0,0.0,0.0,0.0,0.0,0.0,0.0,0.0,0.0,0.0,0.0,0.0,0.0,0.0,0.0,5.5707,5.5707,5.5707,5.5707,5.5679,5.5664,5.5664,5.5635,0.0,0.0,0.0,0.0,5.5485,0.0,5.5436,5.5409,5.5795,5.6181,5.6562,5.6898,5.7498,5.823,5.8105,5.8592,5.9269,5.9135,0.0,0.0,0.0,0.0,0.0,0.0,0.0,5.9543,5.9543,5.9574,5.9609,0.0,0.0,0.0,0.0,0.0,0.0,0.0,0.0,0.0,6.4372,6.46,6.4819,6.5221,6.5335,6.5335,6.5335,6.5773,6.6214,6.6692,6.7875,6.8816,6.925,7.0106,7.0647,7.0647,7.0691,7.0694,7.0734,7.1116,7.1575,7.2117,7.2926,7.3746,7.4663,7.5088,7.5551,7.6015,7.6015,7.6015,7.6015,7.6015,7.5994,7.5955,7.5998,7.5994,7.5954,7.5954,7.5937,7.5901,7.6319,7.6471,7.6544,7.7341,7.7669,7.7746,7.8164,7.8586,7.8941,0.0,0.0,0.0,0.0,0.0,0.0,0.0,0.0,0.0,0.0,0.0,0.0,0.0,0.0,0.0,0.0,0.0,0.0,0.0,0.0,0.0,5.5707,5.5696,5.5691,5.5691,5.5633,5.5561,5.5561,0.0,0.0,0.0,0.0,0.0,5.5422,0.0,5.5597,5.5641,5.6379,5.6803,5.6974,5.7581,5.827,5.8999,0.0,0.0,0.0,0.0,5.9585,5.9581,5.9548,0.0,0.0,0.0,0.0,5.9399,5.9399,5.9456,5.9519,0.0,0.0,0.0,0.0,0.0,0.0,6.3154,6.3604,6.4,6.4764,6.5054,6.5205,6.5214,6.5249,6.5346,6.5484,6.6134,6.6762,6.7055,6.8295,6.9214,6.9373,7.0093,7.056,7.0588,7.0628,7.0716,7.0884,7.1492,7.2065,7.2498,7.3844,7.4677,7.4854,7.5588,7.5938,7.5938,7.5938,7.5938,7.5938,7.5938,7.6014,7.61,7.6134,7.6127,7.6096,7.6096,7.6099,7.6189,7.6915,7.7218,7.7293,7.8156,7.8492,7.8492,7.8648,7.911,7.9691,0.0,0.0,0.0,0.0,0.0,0.0,0.0,0.0,0.0,0.0,5.5629,5.565,0.0,5.5707,5.5707,5.5707,5.5707,5.5707,5.5707,0.0,0.0,5.5707,5.5657,5.5629,5.5629,5.5567,5.5497,5.5497,0.0,0.0,0.0,0.0,0.0,5.5419,0.0,0.0,5.6402,5.7203,5.7925,5.8582,5.8618,5.9071,0.0,0.0,0.0,0.0,0.0,0.0,0.0,5.9302,5.9236,0.0,0.0,0.0,5.9058,5.9058,5.9065,5.9096,0.0,0.0,6.0593,0.0,6.1953,6.3045,0.0,0.0,6.4485,0.0,6.495,6.5195,6.5193,6.5201,6.5426,6.6126,6.6372,6.6965,6.8386,6.8866,6.9294,7.0053,7.0332,7.0417,7.0427,7.0441,7.0787,7.1592,7.1753,7.2514,7.4092,7.4404,7.483,7.5535,7.569,7.5728,7.5728,7.5728,7.5728,7.5728,7.5728,7.6142,7.6853,7.6867,7.6865,7.6853,7.6853,7.7267,7.7942,7.8094,7.8132,7.8202,7.8967,7.9245,7.9323,8.0055,8.0364,8.0451,0.0,0.0,0.0,0.0,0.0,0.0,0.0,0.0,0.0,0.0,0.0,5.5575,5.5563,5.5605,5.5581,5.5653,5.5625,5.5605,5.5605,5.5605,5.5605,5.5605,5.5578,5.5524,5.5524,5.5461,5.5427,0.0,0.0,0.0,0.0,5.6012,5.6028,0.0,0.0,0.0,0.0,0.0,0.0,5.888,5.9201,5.9539,0.0,0.0,0.0,0.0,0.0,0.0,0.0,0.0,0.0,5.9093,5.9011,0.0,0.0,0.0,5.8994,0.0,5.9686,6.0094,6.0654,0.0,6.2484,6.3222,6.3734,0.0,6.4497,6.4596,6.4727,6.4866,6.492,6.5365,6.5824,6.6265,6.7163,6.8073,6.8799,6.9351,6.9829,7.0211,7.0266,7.0288,7.0334,7.0796,7.1256,7.1699,7.2617,7.3536,7.4391,7.4853,7.5295,7.5692,7.5694,7.5694,7.5694,7.5694,7.5694,7.5696,7.6176,7.6571,7.6952,7.736,7.7596,7.7609,7.7609,7.7807,7.8178,7.864,7.8872,7.8944,7.9705,8.0033,8.0071,8.0418,8.0535,8.0542,0.0,0.0,0.0,0.0,0.0,0.0,0.0,0.0,0.0,0.0,0.0,5.5466,5.548,0.0,0.0,0.0,5.5548,5.5482,5.5482,5.5482,5.5482,5.5482,5.5467,5.5457,5.5457,5.543,0.0,0.0,0.0,0.0,5.6868,5.6818,5.6882,0.0,5.7118,0.0,0.0,0.0,0.0,0.0,0.0,0.0,0.0,0.0,0.0,0.0,0.0,0.0,0.0,0.0,0.0,0.0,0.0,0.0,0.0,0.0,0.0,0.0,0.0,0.0,6.1149,6.2376,6.2927,6.3354,0.0,0.0,6.4317,0.0,6.4452,6.4568,6.4838,6.5506,6.6195,6.6708,6.7902,6.8812,6.9053,6.9697,7.0114,7.0138,7.0194,7.0315,7.0541,7.1162,7.1775,7.2257,7.3479,7.4323,7.465,7.5262,7.5597,7.5668,7.5632,7.5632,7.5632,7.5859,7.5934,7.5972,7.6778,7.7317,7.7544,7.8027,7.8443,7.8665,7.8501,7.8495,7.8671,7.933,7.9547,7.9598,8.0204,8.0431,8.0431,8.0431,8.0431,8.0431,0.0,0.0,0.0,0.0,0.0,0.0,0.0,0.0,0.0,0.0,0.0,5.5413,5.5476,5.5482,5.5485,5.5486,5.5485,5.5482,5.5482,5.5482,5.5482,5.5482,5.5424,0.0,5.5427,5.54,0.0,0.0,0.0,0.0,5.7626,5.7576,5.7956,5.8663,5.8739,5.8766,5.8802,0.0,0.0,0.0,0.0,5.9565,0.0,0.0,0.0,0.0,0.0,0.0,0.0,0.0,0.0,0.0,0.0,0.0,0.0,0.0,0.0,0.0,0.0,6.1325,0.0,6.2675,6.327,6.387,0.0,0.0,6.3947,6.3917,6.4046,6.4394,6.5299,6.5651,6.6349,6.7933,6.8255,6.8648,6.9536,6.9818,6.9944,6.9993,7.0114,7.0495,7.1277,7.1369,7.2135,7.3839,7.4074,7.4498,7.5397,7.548,7.5518,7.5525,7.5525,7.5525,7.5525,7.6282,7.6662,7.6662,7.7532,7.8375,7.9182,7.908,7.9493,8.0225,7.9525,7.9624,8.0289,8.0328,8.0269,8.0177,8.0215,8.0215,8.0215,8.0215,8.0215,8.0215,0.0,0.0,0.0,0.0,0.0,0.0,0.0,0.0,0.0,0.0,0.0,0.0,0.0,5.5434,5.545,5.5454,5.5457,5.5441,5.5436,5.5434,5.5434,5.5434,5.5409,5.5379,5.5264,0.0,0.0,0.0,0.0,5.7652,5.8462,5.8418,5.8796,5.9487,5.9035,5.9069,5.9464,5.9736,0.0,0.0,5.9559,5.9467,0.0,0.0,0.0,0.0,0.0,0.0,0.0,0.0,0.0,0.0,0.0,0.0,0.0,0.0,0.0,0.0,0.0,0.0,0.0,6.3161,6.3556,6.384,6.384,6.3854,6.3905,6.3894,6.4395,6.5053,6.5928,6.6297,6.6897,6.8113,6.8752,6.9238,6.96,6.9684,6.973,6.9757,7.0325,7.0841,7.1169,7.226,7.3214,7.3919,7.4497,7.4932,7.5276,7.534,7.5374,7.5374,7.5476,7.5739,7.6269,7.651,7.6896,7.7423,7.8201,7.8749,7.9057,7.9589,7.9991,8.0258,7.9992,8.0026,8.0255,8.0255,8.0233,8.0198,8.0198,8.0198,8.0198,8.0198,8.0198,8.0198,0.0,0.0,0.0,0.0,0.0,5.5153,0.0,0.0,0.0,0.0,0.0,0.0,0.0,0.0,5.5416,5.5383,5.5388,5.5408,5.54,5.5342,5.5331,5.5331,5.5572,5.5691,5.5612,0.0,0.0,0.0,0.0,0.0,0.0,0.0,5.9389,5.9765,5.9288,5.9323,0.0,0.0,0.0,5.9552,0.0,0.0,5.9267,0.0,0.0,0.0,0.0,0.0,0.0,0.0,0.0,0.0,0.0,0.0,0.0,0.0,0.0,0.0,0.0,0.0,0.0,0.0,6.3599,6.3675,6.3711,6.3774,6.3866,6.4152,6.4683,6.5474,6.6587,6.6965,6.7412,6.8347,6.9023,6.9391,6.9471,6.9497,6.9549,6.9608,7.0386,7.1055,7.1368,7.2802,7.3854,7.4217,7.479,7.5166,7.5197,7.523,7.5267,7.5267,7.56,7.6054,7.6584,7.7091,7.763,7.8196,7.8971,7.9322,7.936,7.9893,8.0144,8.0139,8.0064,8.0075,8.0144,8.0144,8.0121,8.009,8.009,8.009,8.009,8.009,8.009,8.009,0.0,5.3315,5.4184,5.4955,5.5113,5.5114,0.0,0.0,0.0,0.0,0.0,0.0,0.0,0.0,0.0,5.5391,5.5391,5.5391,5.5391,5.5296,5.5227,5.5227,5.5994,5.6447,5.6447,0.0,0.0,0.0,0.0,0.0,0.0,0.0,5.9731,0.0,5.96,5.9598,5.9592,0.0,5.9505,5.9487,0.0,5.9179,5.9155,0.0,0.0,0.0,5.8726,5.8685,0.0,0.0,0.0,0.0,0.0,0.0,0.0,0.0,0.0,0.0,0.0,0.0,0.0,0.0,6.3379,6.3448,6.3557,6.3622,6.3833,6.4619,6.4944,6.5577,6.7202,6.7586,6.7918,6.8766,6.8961,6.905,6.9184,6.9308,6.9428,6.959,7.0326,7.1151,7.196,7.2957,7.3898,7.4834,7.4947,7.5051,7.5183,7.5192,7.52,7.5238,7.5996,7.6415,7.6453,7.8097,7.8901,7.8939,7.9766,8.0185,8.018,8.007,7.9979,7.9966,7.978,7.9811,7.9979,7.9979,7.9954,7.9892,7.9892,7.9892,7.9892,7.9892,7.9892,7.9892,5.3239,5.4071,5.4676,5.4907,5.4996,5.5034,0.0,0.0,0.0,0.0,0.0,0.0,0.0,0.0,0.0,5.5176,5.5176,5.5176,5.5176,5.5729,5.6061,5.6061,5.6829,5.7246,0.0,0.0,0.0,0.0,0.0,0.0,0.0,0.0,0.0,0.0,5.9438,5.9369,5.9309,5.9351,0.0,0.0,5.9129,5.9024,0.0,0.0,0.0,0.0,0.0,5.8569,0.0,0.0,5.8442,5.8497,0.0,0.0,0.0,0.0,0.0,0.0,6.27,0.0,0.0,0.0,0.0,0.0,6.3317,6.3747,6.4279,6.4593,6.5642,6.6686,6.7242,6.7836,6.8335,6.8559,6.8787,6.8952,6.8977,6.9023,6.9313,7.0027,7.0918,7.1793,7.2714,7.3662,7.4347,7.4606,7.4717,7.48,7.4829,7.4975,7.5356,7.6032,7.6263,7.6988,7.8213,7.8636,7.913,7.9697,7.9797,7.9832,7.983,7.9708,7.9652,7.9649,7.9584,7.9592,7.9652,7.9652,7.9632,7.9604,7.9604,7.9604,7.9604,7.9604,7.9604,7.9604,5.3494,5.4252,5.4822,5.4822,5.4866,5.4858,0.0,0.0,0.0,0.0,0.0,0.0,0.0,0.0,0.0,0.0,5.5421,5.5649,5.5649,5.642,5.6838,5.6836,5.756,5.7957,0.0,0.0,0.0,0.0,0.0,0.0,0.0,0.0,0.0,0.0,5.9213,0.0,0.0,0.0,0.0,0.0,5.9005,0.0,0.0,5.8838,5.8716,0.0,0.0,0.0,5.8435,5.836,5.8506,0.0,0.0,0.0,0.0,0.0,0.0,0.0,0.0,0.0,0.0,0.0,0.0,0.0,6.3592,6.4073,6.4635,6.54,6.6347,6.7131,6.7548,6.8039,6.8367,6.841,6.8534,6.8682,6.8809,6.9148,6.9589,7.0141,7.1287,7.2289,7.2883,7.3803,7.4387,7.444,7.4555,7.4619,7.4619,7.5087,7.5561,7.6113,7.6793,7.7628,7.8586,7.8939,7.9324,7.9778,7.9677,7.9609,7.9606,7.9532,7.95,7.9497,7.9445,7.9421,7.9415,7.9365,7.9406,7.95,7.95,7.95,7.95,7.95,7.95,7.95,0.0,5.4152,5.4687,5.4687,5.4687,0.0,0.0,0.0,0.0,0.0,0.0,0.0,0.0,0.0,0.0,0.0,5.5976,5.6471,5.6471,5.7165,0.0,0.0,0.0,0.0,0.0,0.0,0.0,0.0,0.0,0.0,0.0,0.0,0.0,0.0,5.9061,5.8975,0.0,0.0,0.0,5.893,5.8912,5.8866,0.0,0.0,5.8604,0.0,5.8489,5.8498,5.8505,5.8459,5.8888,0.0,0.0,0.0,0.0,0.0,6.2248,0.0,0.0,0.0,0.0,0.0,0.0,0.0,6.4169,6.4517,6.5058,6.6585,6.693,6.7216,6.7957,6.8117,6.8158,6.8244,6.8284,6.8414,6.8766,6.9516,7.0132,7.0316,7.1618,7.2562,7.2786,7.363,7.4206,7.4338,7.4426,7.4535,7.4625,7.5387,7.5881,7.6066,7.7457,7.8243,7.836,7.912,7.95,7.95,7.9485,7.948,7.948,7.9465,7.9456,7.9453,7.9323,7.9266,7.9257,7.9122,7.9224,7.9456,7.9456,7.9456,7.9456,7.9456,7.9456,7.9456,5.4305,5.4574,5.4687,5.4687,5.4687,0.0,0.0,0.0,0.0,0.0,0.0,0.0,0.0,0.0,0.0,0.0,0.0,5.6943,5.6943,0.0,0.0,0.0,0.0,0.0,0.0,0.0,0.0,0.0,0.0,0.0,0.0,0.0,0.0,0.0,5.8942,5.8927,0.0,0.0,0.0,5.8593,5.8695,0.0,5.8585,5.8561,5.8486,5.8415,5.8284,5.868,5.9269,0.0,6.0474,6.1156,0.0,0.0,0.0,0.0,0.0,0.0,0.0,0.0,0.0,0.0,0.0,0.0,6.4132,6.5161,6.6199,6.6655,6.7264,6.778,6.8067,6.8111,6.8111,6.8114,6.8151,6.8454,6.9386,6.9667,7.0303,7.1783,7.2242,7.2746,7.3525,7.3752,7.394,7.408,7.4298,7.4763,7.5495,7.573,7.6406,7.768,7.8058,7.8548,7.9233,7.9425,7.95,7.95,7.9397,7.9347,7.9344,7.9239,7.919,7.9184,7.9048,7.8988,7.8979,7.8838,7.8947,7.919,7.919,7.919,7.919,7.919,7.919,7.919,5.4317,5.4384,5.4384,5.4384,0.0,0.0,0.0,0.0,0.0,0.0,0.0,0.0,0.0,0.0,0.0,0.0,0.0,0.0,0.0,0.0,0.0,0.0,0.0,0.0,0.0,0.0,0.0,0.0,0.0,0.0,0.0,0.0,0.0,0.0,0.0,0.0,0.0,0.0,5.8543,5.8451,5.8564,0.0,5.844,5.844,5.8631,5.8892,5.8833,5.9286,5.9991,6.0737,6.1266,0.0,0.0,6.2469,6.2793,0.0,6.2793,6.2793,0.0,0.0,0.0,6.3332,0.0,0.0,0.0,6.5902,6.6629,6.7095,6.7513,6.7824,6.7904,6.7908,6.7911,6.7991,6.8345,6.8947,6.9965,7.0167,7.0715,7.2116,7.2653,7.3105,7.3659,7.3712,7.3768,7.39,7.4033,7.4468,7.5352,7.5874,7.6698,7.7896,7.8404,7.885,7.9308,7.9245,7.9211,7.9211,7.9076,7.901,7.9007,7.8941,7.8909,7.8906,7.8832,7.8803,7.8796,7.8728,7.8783,7.8909,7.8909,7.8909,7.8909,7.8909,7.8909,7.8909,5.4111,5.4102,5.4102,5.4102,0.0,0.0,0.0,0.0,0.0,0.0,0.0,0.0,0.0,0.0,0.0,0.0,0.0,0.0,0.0,0.0,0.0,0.0,5.9316,5.9236,0.0,5.9076,0.0,0.0,0.0,0.0,0.0,0.0,0.0,0.0,0.0,0.0,0.0,0.0,0.0,5.8593,0.0,5.8627,5.8584,5.8584,5.9025,5.9623,5.9773,6.0178,6.0747,6.156,0.0,6.1924,6.2612,6.2793,0.0,0.0,0.0,0.0,0.0,0.0,0.0,0.0,0.0,6.4898,0.0,0.0,0.0,6.7564,6.77,6.77,6.77,6.77,6.7774,6.8038,6.8646,6.9456,7.054,7.0793,7.1228,7.2261,7.2973,7.3395,7.3567,7.3562,7.3656,7.3762,7.3939,7.44,7.5181,7.6163,7.7052,7.7866,7.8644,7.9032,7.9032,7.8922,7.8867,7.8867,7.8751,7.8698,7.8698,7.8698,7.8698,7.8698,7.8672,7.8659,7.8659,7.8632,7.8619,7.8626,7.8675,7.8698,7.8698,7.8698,7.8698,7.8698,5.4086,5.4102,5.4102,5.4102,0.0,0.0,0.0,0.0,0.0,0.0,0.0,0.0,0.0,0.0,0.0,0.0,0.0,0.0,5.9122,0.0,0.0,0.0,0.0,0.0,5.9014,5.9002,5.8982,0.0,0.0,0.0,0.0,0.0,0.0,0.0,5.8545,0.0,0.0,0.0,5.8755,0.0,5.9289,5.9289,0.0,5.9278,5.971,6.0364,6.1104,6.1392,6.16,0.0,6.2649,6.2683,0.0,6.2793,0.0,0.0,0.0,0.0,0.0,0.0,0.0,0.0,6.5705,0.0,0.0,0.0,6.759,6.767,0.0,6.77,6.77,0.0,0.0,6.8654,6.8845,6.9497,7.1159,7.1385,7.1833,7.2956,7.3182,7.3282,7.3395,7.3514,7.3624,7.3637,7.4372,7.5218,7.6015,7.6891,7.7756,7.8572,7.87,7.8747,7.8747,7.8731,7.8721,7.8721,7.8705,7.8698,7.8698,7.8698,7.8698,7.8692,7.8579,7.8532,7.8522,7.839,7.8338,7.8359,7.8606,7.8698,7.8698,7.8698,7.8698,7.8698,5.3914,5.3924,5.3924,5.3924,0.0,0.0,0.0,0.0,0.0,0.0,0.0,0.0,0.0,0.0,0.0,0.0,0.0,0.0,0.0,0.0,0.0,0.0,0.0,0.0,0.0,5.8867,5.8811,5.8797,5.8797,0.0,0.0,0.0,0.0,0.0,5.8427,0.0,5.8997,0.0,0.0,0.0,0.0,0.0,0.0,6.0172,6.043,6.1193,6.1994,6.2285,6.2358,0.0,6.2793,0.0,0.0,0.0,0.0,0.0,0.0,0.0,0.0,0.0,0.0,0.0,0.0,0.0,6.708,0.0,6.77,0.0,0.0,0.0,0.0,0.0,0.0,0.0,6.9682,7.0554,7.1288,7.178,7.2337,7.3007,7.3077,7.3135,7.3278,7.3344,7.3595,7.4129,7.4556,7.5333,7.664,7.7122,7.7762,7.8552,7.8659,7.8698,7.8698,7.8626,7.8589,7.8589,7.8505,7.8465,7.8465,7.8465,7.8465,7.8461,7.8407,7.838,7.8376,7.8314,7.8287,7.83,7.8417,7.8465,7.8465,7.8465,7.8465,7.8465,5.3708,0.0,0.0,0.0,0.0,0.0,0.0,0.0,0.0,0.0,0.0,0.0,5.8074,5.8634,0.0,0.0,0.0,5.8985,0.0,0.0,5.8903,0.0,0.0,0.0,0.0,0.0,0.0,5.8643,5.8614,0.0,0.0,0.0,0.0,0.0,0.0,5.8909,5.9348,0.0,0.0,6.0747,6.0747,6.1227,6.1887,6.1294,6.1404,6.1998,6.2576,6.2793,6.2793,6.2793,6.2793,0.0,6.2793,0.0,0.0,0.0,0.0,0.0,6.47,0.0,0.0,0.0,0.0,0.0,0.0,0.0,0.0,0.0,0.0,0.0,0.0,0.0,0.0,0.0,0.0,7.1377,7.16,7.2121,7.2592,7.2892,7.2965,7.303,7.3131,7.3142,7.3519,7.4404,7.4748,7.5514,7.6925,7.7355,7.7842,7.8411,7.8539,7.8586,7.8586,7.8495,7.8451,7.8448,7.8338,7.8287,7.8287,7.8287,7.8287,7.8287,7.8287,7.8287,7.8287,7.8287,7.8287,7.8283,7.8241,7.8224,7.8228,7.8273,7.8287,7.8287,5.3498,5.3657,0.0,0.0,0.0,0.0,0.0,0.0,0.0,0.0,0.0,0.0,0.0,0.0,0.0,0.0,0.0,5.8897,5.8897,0.0,5.8703,0.0,0.0,0.0,0.0,0.0,0.0,0.0,0.0,0.0,0.0,0.0,0.0,0.0,0.0,5.9293,5.9272,6.0049,6.0826,6.1563,6.1563,6.2031,6.2756,0.0,6.2753,6.2753,6.2789,0.0,0.0,6.2793,6.2793,6.2793,6.2793,0.0,0.0,0.0,0.0,0.0,0.0,0.0,0.0,6.7454,0.0,0.0,0.0,0.0,6.77,0.0,0.0,0.0,0.0,0.0,0.0,0.0,0.0,0.0,0.0,7.2492,7.2546,7.2695,7.2892,7.2996,7.2999,7.2999,7.3328,7.4164,7.5046,7.5943,7.6762,7.7728,7.8294,7.8294,7.8297,7.83,7.83,7.8297,7.8294,7.8294,7.829,7.8287,7.8287,7.8287,7.8287,7.8287,7.8287,7.8287,7.8287,7.8287,7.8287,7.8273,7.8082,7.8021,7.8039,7.8231,7.8287,7.8287,0.0,0.0,0.0,0.0,0.0,0.0,0.0,5.6429,0.0,0.0,0.0,0.0,0.0,0.0,5.8806,0.0,0.0,5.8784,5.8784,5.8643,0.0,0.0,0.0,5.851,0.0,0.0,0.0,0.0,0.0,0.0,5.828,5.8799,5.8986,5.8893,0.0,6.0348,0.0,0.0,0.0,0.0,0.0,6.2576,6.2793,0.0,6.2793,6.2793,6.2793,6.2793,6.2793,6.2793,6.3166,6.3653,6.3653,6.4237,6.4894,6.4894,6.5445,6.6152,6.6418,6.6892,6.7347,6.7627,0.0,0.0,0.0,0.0,0.0,0.0,0.0,0.0,0.0,0.0,0.0,0.0,0.0,0.0,0.0,7.2492,7.251,7.256,7.2617,7.2688,7.2783,7.3272,7.3978,7.4918,7.5791,7.6599,7.7416,7.7766,7.798,7.798,7.798,7.798,7.798,7.798,7.798,7.798,7.798,7.798,7.798,7.798,7.798,7.798,7.798,7.798,7.798,7.798,7.798,7.7973,7.7882,7.786,7.7878,7.8036,7.8096,7.811,5.3772,0.0,0.0,0.0,0.0,0.0,0.0,0.0,0.0,0.0,5.8278,0.0,5.8572,0.0,5.8572,0.0,5.8572,5.8572,5.8572,5.8505,0.0,5.8462,5.8434,0.0,0.0,0.0,0.0,0.0,0.0,5.8629,5.8589,5.9367,5.9725,5.9673,0.0,6.1117,6.1637,0.0,6.2325,0.0,0.0,6.2793,0.0,0.0,6.2793,6.2829,6.3163,6.3276,6.3313,6.36,6.405,6.4534,6.4534,6.5081,6.5735,6.5735,6.6292,6.693,6.6919,6.7317,6.77,6.77,6.77,0.0,6.77,0.0,0.0,0.0,0.0,0.0,0.0,0.0,0.0,0.0,0.0,0.0,0.0,7.2492,7.2492,7.2492,7.2492,7.2638,7.3029,7.3521,7.4333,7.5573,7.6191,7.6887,7.7695,7.7787,7.7817,7.7817,7.7817,7.7817,7.7817,7.7817,7.7817,7.7817,7.7817,7.7817,7.7817,7.7817,7.7817,7.7817,7.7817,7.7817,7.7817,7.7817,7.7817,7.7809,7.7754,7.7732,7.7754,7.7874,7.7932,7.7946,0.0,0.0,0.0,0.0,5.6108,0.0,0.0,0.0,5.8388,0.0,5.8396,5.8396,5.8396,5.8396,5.8396,5.8396,5.8396,0.0,5.8396,5.8388,0.0,0.0,5.8382,5.8379,5.8379,0.0,0.0,0.0,0.0,0.0,5.9264,6.0083,6.045,6.049,6.1303,0.0,6.1707,6.2469,6.2793,6.2793,6.2793,6.2829,6.2866,6.2866,6.2903,6.3013,6.3802,6.4136,6.4283,6.5038,6.5328,6.5365,6.5365,6.5922,6.6552,6.6552,6.7106,6.77,6.77,6.77,6.77,6.77,6.7741,6.7774,6.7754,0.0,6.8959,0.0,0.0,0.0,0.0,0.0,0.0,0.0,0.0,0.0,0.0,0.0,7.2492,7.2565,7.2565,7.2863,7.3641,7.3788,7.4448,7.5983,7.6316,7.677,7.7528,7.771,7.7795,7.7795,7.7795,7.7795,7.7795,7.7795,7.7795,7.7795,7.7795,7.7795,7.7795,7.7795,7.7795,7.7795,7.7795,7.7795,7.7795,7.7795,7.7795,7.7743,7.7625,7.7602,7.7584,7.7747,7.7773,7.7817,5.5142,5.5757,5.6395,0.0,5.7016,5.7118,0.0,0.0,0.0,0.0,5.8396,5.8396,5.8396,5.8396,5.8396,5.8396,5.8396,0.0,0.0,0.0,0.0,5.8266,5.8142,5.8094,5.8094,5.8642,0.0,5.8949,0.0,0.0,6.012,6.0933,6.1303,6.134,6.2138,6.2502,6.2502,6.2719,6.2793,6.2793,6.2793,6.3203,6.3763,6.3763,6.4123,6.4594,6.4243,6.4497,6.5004,6.5218,6.5698,6.6179,6.6179,6.6736,6.7403,6.7403,6.755,6.77,6.77,6.77,6.77,6.77,6.8155,6.8575,6.8576,6.9203,6.9965,0.0,0.0,0.0,0.0,0.0,0.0,0.0,0.0,0.0,0.0,0.0,0.0,7.3307,7.338,7.3457,7.3678,7.4775,7.5656,7.6056,7.6711,7.717,7.7387,7.7425,7.7415,7.7415,7.7415,7.7415,7.7415,7.7415,7.7415,7.7415,7.7415,7.7415,7.7415,7.7415,7.7415,7.7415,7.7415,7.7415,7.7415,7.7415,7.7415,7.7411,7.7406,7.7387,7.741,7.758,7.7714,7.7817,5.598,0.0,0.0,5.7926,0.0,0.0,5.802,0.0,0.0,5.8232,5.8241,0.0,5.8241,5.8241,5.8241,5.8241,5.8241,0.0,0.0,0.0,0.0,5.8609,5.8576,5.8691,5.9024,5.9493,0.0,5.971,0.0,0.0,6.0933,6.1738,6.2105,6.2141,6.2609,6.2793,6.2793,6.2793,6.3016,6.3353,6.3353,6.387,0.0,6.4604,6.5114,6.5775,6.5304,6.5451,6.5885,6.6219,6.6663,6.7033,6.7033,6.733,6.77,6.77,6.77,6.77,6.77,6.7951,6.8238,6.8238,6.8842,6.9429,6.9422,7.0049,7.074,7.1199,7.1568,7.1971,7.2419,0.0,0.0,0.0,0.0,0.0,0.0,0.0,0.0,0.0,7.4338,7.4738,7.4738,7.5579,7.6236,7.6595,7.7032,7.7285,7.7285,7.7285,7.7285,7.7285,7.7285,7.7285,7.7285,7.7285,7.7285,7.7285,7.7285,7.7285,7.7285,7.7285,7.7285,7.7285,7.7285,7.7285,7.7285,7.7285,7.7285,7.7285,7.7285,7.7285,7.7293,7.7433,7.7524,7.7566,0.0,0.0,0.0,0.0,0.0,0.0,0.0,5.7999,0.0,5.7999,0.0,5.7999,5.7999,5.7999,5.7999,5.7999,0.0,5.8036,5.8146,5.8143,5.8508,5.9303,5.9377,5.9673,6.0379,6.049,0.0,0.0,0.0,0.0,6.178,6.2469,6.2793,6.2793,6.2793,0.0,0.0,6.2979,6.3463,6.4243,6.4243,6.4751,6.5478,6.5478,6.5959,6.6663,6.6663,6.6663,6.6773,6.7477,6.77,6.77,6.77,6.77,6.77,6.77,6.7781,6.7864,6.7864,6.8446,6.9058,6.9044,6.9656,7.0244,7.0244,7.0868,7.1474,7.1476,7.2008,7.2492,7.2492,7.2492,0.0,0.0,0.0,0.0,0.0,0.0,0.0,0.0,0.0,0.0,7.6236,7.6273,7.6562,7.7248,7.7285,7.7285,7.7285,7.7285,7.7285,7.7285,7.7285,7.7285,7.7285,7.7285,7.7285,7.7285,7.7285,7.7285,7.7285,7.7285,7.7285,7.7285,7.7285,7.7285,7.7285,7.7285,7.7285,7.7285,7.7285,7.7285,7.7285,7.7285,7.7285,7.7285,0.0,0.0,0.0,0.0,0.0,5.7999,5.7999,5.7999,5.7999,5.7999,5.7999,5.7999,5.7999,5.7999,5.7999,5.7999,5.7999,0.0,0.0,0.0,0.0,6.0153,6.0193,6.0266,6.0413,6.1043,6.1377,0.0,0.0,0.0,0.0,6.2719,6.2793,6.2793,6.2793,6.3203,6.3876,6.3876,6.4347,6.5074,6.5074,6.5555,6.6292,6.6292,6.6773,6.7477,6.7477,6.7477,6.7514,6.7664,6.77,6.77,6.77,6.77,6.77,6.77,6.8158,6.8696,6.8696,6.9279,6.9898,6.9907,7.0509,7.1076,7.1076,7.1702,7.2287,7.2301,7.2415,7.2492,7.2492,7.2492,7.2492,0.0,0.0,0.0,0.0,0.0,0.0,0.0,0.0,7.6346,7.7032,7.7105,7.7138,7.7281,7.7285,7.7285,7.7285,7.7285,7.7285,7.7285,7.7285,7.7285,7.7285,7.7285,7.7285,7.7285,7.7285,7.7285,7.7285,7.7285,7.7285,7.7285,7.7285,7.7285,7.7285,7.7285,7.7285,7.7285,7.7285,7.7285,7.7285,7.7285,7.7285,7.7285,0.0,0.0,0.0,0.0,0.0,0.0,0.0,5.7999,5.7999,5.7999,5.7999,5.7999,5.7999,5.8358,5.8612,5.8612,5.8982,5.9422,5.9783,5.982,6.019,6.1006,6.1006,0.0,6.1621,6.2028,6.2215,6.2215,0.0,0.0,0.0,6.2793,6.2793,6.2826,6.3276,6.394,6.4714,6.4714,6.5191,6.5919,6.5919,6.6402,6.7106,6.7106,6.7367,6.77,6.77,6.77,6.77,6.77,6.77,6.77,6.77,6.7991,6.8322,6.8322,6.8904,6.9519,6.9505,7.0106,7.0718,7.0714,7.1325,7.191,7.191,7.2203,7.2492,7.2492,7.2492,7.2492,7.2492,7.2492,7.2639,0.0,0.0,0.0,0.0,0.0,0.0,0.0,0.0,0.0,0.0,7.7285,7.7285,7.7285,7.7285,7.7285,7.7285,7.7285,7.7285,7.7285,7.7285,7.7285,7.7285,7.7285,7.7285,7.7285,7.7285,7.7285,7.7285,7.7285,7.7285,7.7285,7.7285,7.7285,7.7285,7.7285,7.7285,7.7285,7.7285,7.7285,7.7285,7.7285,7.7285,7.7285,0.0,5.7999,0.0,0.0,5.7999,0.0,5.7999,5.8146,5.818,5.8036,5.8146,5.8251,5.8251,5.8979,5.945,5.945,6.0043,6.0453,6.0636,6.0673,6.1006,6.1817,6.1854,6.2141,6.2793,6.2793,6.2793,0.0,0.0,0.0,6.2793,6.2979,6.3163,6.3343,6.4053,6.479,6.5548,6.5548,6.6032,6.6773,6.6773,6.7143,6.77,6.77,6.77,6.7737,6.7881,6.7951,6.7991,6.8155,6.8091,6.7951,6.7951,6.8492,6.9155,6.9155,6.9714,7.0355,7.0377,7.0949,7.1574,7.1574,7.2034,7.2492,7.2492,7.2492,7.2492,7.2492,7.2492,7.2492,7.2492,7.2639,7.2973,7.3604,0.0,0.0,0.0,0.0,0.0,0.0,0.0,0.0,7.7285,7.7285,7.7285,7.7285,7.7285,7.7285,7.7285,7.7285,7.7285,7.7285,7.7285,7.7285,7.7285,7.7285,7.7285,7.7285,7.7285,7.7285,7.7285,7.7285,7.7285,7.7285,7.7285,7.7285,7.7285,7.7285,7.7285,7.7285,7.7285,7.7285,7.7285,7.7285,7.7285,7.7285,0.0,0.0,0.0,0.0,0.0,5.7999,5.7999,5.8612,5.8832,5.811,5.8615,5.9083,5.9083,5.9823,6.0303,6.0303,6.0376,6.0713,6.145,6.149,6.1851,6.2646,6.2686,6.2719,6.2793,6.2793,6.2793,0.0,0.0,6.2793,6.2826,6.3613,6.4387,6.5068,6.5145,6.5625,6.6402,6.6402,6.6846,6.759,6.759,6.7624,6.77,6.77,6.77,6.7811,6.8531,6.8785,6.8905,6.9631,6.9378,6.878,6.878,6.9359,6.9982,6.9982,7.0578,7.117,7.1171,7.1782,7.2404,7.2404,7.2448,7.2492,7.2492,7.2492,7.2492,7.2492,7.2492,7.2492,7.2492,7.3087,7.3604,7.3678,0.0,0.0,0.0,0.0,0.0,0.0,0.0,0.0,7.7285,7.7285,7.7285,7.7285,7.7285,7.7285,7.7285,7.7285,7.7285,7.7285,7.7285,7.7285,7.7285,7.7285,7.7285,7.7285,7.7285,7.7285,7.7285,7.7285,7.7285,7.7285,7.7285,7.7285,7.7285,7.7285,7.7285,7.7285,7.7285,7.7285,7.7285,7.7285,7.7285,7.7285,0.0,0.0,0.0,0.0,0.0,0.0,0.0,5.9716,5.9786,5.9499,5.9713,5.9933,5.9933,6.0636,6.112,6.112,6.1554,6.1988,6.2285,6.2322,6.2465,6.2793,6.2793,6.2793,6.2793,6.2793,6.2793,0.0,0.0,0.0,6.3613,6.4417,6.5261,6.6032,6.6032,6.6476,6.722,6.722,6.7403,6.77,6.77,6.77,6.7737,6.8244,6.8421,6.8531,6.9339,6.962,6.9658,6.9979,6.989,6.9619,6.9623,7.0186,7.0803,7.0832,7.1384,7.2031,7.2031,7.2243,7.2492,7.2492,7.2492,7.2492,7.2492,7.2492,7.2492,7.2492,7.2899,7.3233,7.3233,7.3891,7.4588,7.5069,7.5395,0.0,0.0,0.0,0.0,0.0,0.0,0.0,0.0,7.7285,7.7285,7.7285,7.7285,7.7285,7.7285,7.7285,7.7285,7.7285,7.7285,7.7285,7.7285,7.7285,7.7285,7.7285,7.7285,7.7285,7.7285,7.7285,7.7285,7.7285,7.7285,7.7285,7.7285,7.7285,7.7285,7.7285,7.7285,7.7285,7.7285,7.7285,7.7285,7.7285,5.8324,5.8361,5.8615,5.9416,5.956,5.9747,6.0303,6.06,6.0747,6.0747,6.0967,6.1037,6.0783,6.1484,6.1961,6.1961,6.2469,6.2793,6.2793,6.2793,6.2793,6.2793,6.2793,0.0,6.3166,6.3166,6.331,6.353,6.4163,0.0,6.4463,6.5298,6.6069,6.6846,6.6846,6.7183,6.77,6.77,6.77,6.7737,6.7951,6.8061,6.8134,6.8935,6.9262,6.9376,7.0157,7.0449,7.0487,7.0734,7.0804,7.0761,7.0531,7.1014,7.1643,7.1667,7.2075,7.2492,7.2492,7.2492,7.2492,7.2492,7.2492,7.2492,7.2492,7.2492,7.2565,7.2789,7.3487,7.4037,7.4037,7.4694,7.5425,7.6019,7.6309,0.0,0.0,7.7285,0.0,0.0,7.7285,7.7285,7.7285,7.7285,7.7285,7.7285,7.7285,7.7285,7.7285,7.7285,7.7285,7.7285,7.7285,7.7285,7.7285,7.7285,7.7285,7.7285,7.7285,7.7285,7.7285,7.7285,7.7285,7.7285,7.7285,7.7285,7.7285,7.7285,7.7285,7.7285,7.7285,7.7285,7.7285,7.7285,7.7285,7.7285,5.9046,5.9193,5.945,6.0266,6.0376,6.0376,6.0413,6.1083,6.16,6.16,6.2288,6.2469,6.1673,6.2285,6.2793,6.2793,6.2789,6.2793,6.2793,6.2793,6.2793,0.0,6.2793,6.3203,6.4063,6.4096,6.446,6.5255,0.0,6.5291,6.5291,6.6105,6.692,6.77,6.77,6.77,6.77,6.77,6.77,6.7771,6.8568,6.8892,6.8965,6.9783,7.0076,7.019,7.0993,7.1297,7.1404,7.2213,7.2455,7.2322,7.1544,7.1846,7.2496,7.2492,7.2492,7.2492,7.2492,7.2492,7.2492,7.2492,7.2492,7.2492,7.2492,7.2492,7.2712,7.3531,7.4327,7.4907,7.4907,7.5539,7.6093,7.6093,7.6779,7.7281,0.0,7.7285,0.0,7.7285,7.7285,7.7285,7.7285,7.7285,7.7285,7.7285,7.7285,7.7285,7.7285,7.7285,7.7285,7.7285,7.7285,7.7285,7.7285,7.7285,7.7285,7.7285,7.7285,7.7285,7.7285,7.7285,7.7285,7.7285,7.7285,7.7285,7.7285,7.7285,7.7285,7.7285,7.7285,7.7285,7.7285,7.7285,7.7285,7.7285,5.9973,6.0006,6.0263,6.108,6.123,6.141,6.1952,6.2245,6.2432,6.2432,6.2649,6.2683,6.2432,6.2646,6.2793,6.2793,6.2793,6.2793,6.2793,6.2793,6.3053,6.3653,6.3689,6.4053,6.4894,6.4931,6.5038,6.5291,6.5848,6.6402,6.6956,6.7183,6.744,6.77,6.77,6.77,6.7737,6.8278,6.8531,6.8605,6.9376,6.9709,6.9816,7.0617,7.091,7.102,7.1842,7.2106,7.2176,7.2422,7.2492,7.2473,7.2199,7.2273,7.2492,7.2492,7.2492,7.2492,7.2492,7.2492,7.2492,7.2492,7.2492,7.2639,7.3197,7.374,7.421,7.4474,7.5172,7.5722,7.5722,7.6375,7.6922,7.6922,7.7138,7.7285,7.7285,0.0,7.7285,7.7285,7.7285,7.7285,7.7285,7.7285,7.7285,7.7285,7.7285,7.7285,7.7285,7.7285,7.7285,7.7285,7.7285,7.7285,7.7285,7.7285,7.7285,7.7285,7.7285,7.7285,7.7285,7.7285,7.7285,7.7285,7.7285,7.7285,7.7285,7.7285,7.7285,7.7285,7.7285,7.7285,7.7285,7.7285,7.7285,7.7285,6.0786,6.086,6.1117,6.1921,6.2031,6.2215,6.2719,6.2793,6.2793,6.2793,6.2793,6.2793,6.2793,6.3089,6.3166,6.2829,6.2793,6.2943,6.3279,6.3279,6.3683,6.4497,6.453,6.4934,6.5735,6.5735,6.5885,6.6216,6.6699,6.7217,6.77,6.77,6.77,6.77,6.77,6.7881,6.8168,6.8675,6.9075,6.9409,7.0216,7.0547,7.0657,7.1421,7.1751,7.1824,7.2305,7.2492,7.2492,7.2492,7.2492,7.2492,7.2492,7.2492,7.2492,7.2492,7.2492,7.2492,7.2492,7.2492,7.2562,7.2878,7.2962,7.3156,7.3964,7.4768,7.5351,7.5351,7.5975,7.6562,7.6562,7.6959,7.7285,7.7285,7.7285,7.7285,7.7285,7.7285,7.7285,7.7285,7.7285,7.7285,7.7285,7.7285,7.7285,7.7285,7.7285,7.7285,7.7285,7.7285,7.7285,7.7285,7.7285,7.7285,7.7285,7.7285,7.7285,7.7285,7.7285,7.7285,7.7285,7.7285,7.7285,7.7285,7.7285,7.7285,7.7285,7.7285,7.7285,7.7285,7.7285,7.7285,7.7285,7.7285,7.7509,7.7807,6.1523,6.1673,6.1927,6.2683,6.2793,6.2793,6.2793,6.2793,6.2793,6.2793,6.2863,6.2903,6.2903,6.3649,6.3873,6.305,6.2976,6.3313,6.4133,6.4173,6.4534,6.5368,6.5365,6.5772,6.6552,6.6586,6.696,6.77,6.77,6.77,6.77,6.77,6.7737,6.7774,6.7774,6.8241,6.9002,6.9038,6.9519,7.026,7.1057,7.1377,7.1454,7.2195,7.2492,7.2492,7.2492,7.2492,7.2492,7.2492,7.2492,7.2492,7.2492,7.2532,7.2573,7.2532,7.2551,7.2573,7.2573,7.2621,7.2845,7.3619,7.3828,7.4041,7.4797,7.5608,7.6166,7.6166,7.6779,7.7285,7.7285,7.7285,7.7285,7.7285,7.7285,7.7285,7.7285,7.7285,7.7285,7.7285,7.7285,7.7285,7.7285,7.7285,7.7285,7.7285,7.7285,7.7285,7.7285,7.7285,7.7285,7.7285,7.7285,7.7285,7.7285,7.7285,7.7285,7.7285,7.7285,7.7285,7.7285,7.7285,7.7285,7.7285,7.7285,7.7285,7.7285,7.7285,7.7285,7.7285,7.7285,7.7358,7.7395,7.7395,7.7953,7.8666,6.2465,6.2502,6.2576,6.2756,6.2793,6.2793,6.2793,6.2793,6.2793,6.2793,6.3389,6.3799,6.3799,6.4527,6.4924,6.4741,6.4701,6.4818,6.5001,6.5004,6.5368,6.6182,6.6216,6.6589,6.7403,6.7403,6.7514,6.77,6.77,6.77,6.77,6.77,6.8024,6.8605,6.8605,6.9045,6.9856,7.0466,7.0833,7.109,7.1901,7.2232,7.2232,7.2415,7.2492,7.2492,7.2492,7.2492,7.2492,7.2492,7.2492,7.2492,7.2492,7.291,7.3283,7.2697,7.2918,7.3438,7.3438,7.3859,7.4392,7.4568,7.5094,7.5579,7.5759,7.6452,7.7032,7.7032,7.7179,7.7285,7.7285,7.7285,7.7285,7.7285,7.7285,7.7285,7.7285,7.7285,7.7285,7.7285,7.7285,7.7285,7.7285,7.7285,7.7285,7.7285,7.7285,7.7285,7.7285,7.7285,7.7285,7.7285,7.7285,7.7285,7.7285,7.7285,7.7285,7.7285,7.7285,7.7285,7.7285,7.7285,7.7285,7.7285,7.7285,7.7285,7.7285,7.7285,7.7285,7.7285,7.7285,7.7693,7.8291,7.8291,7.8809,7.9518,6.2793,6.2793,6.2793,6.2793,6.2793,6.2793,6.2793,6.3129,6.3389,6.3389,6.4127,6.464,6.464,6.5371,6.5848,6.5848,6.5512,6.5478,6.5812,6.5848,6.6219,6.6996,6.7033,6.7257,6.77,6.77,6.77,6.77,6.77,6.7881,6.8241,6.8241,6.8682,6.9449,6.9449,6.9886,7.0694,7.1127,7.1527,7.1898,7.2305,7.2492,7.2492,7.2492,7.2492,7.2492,7.2492,7.2492,7.2492,7.2492,7.2741,7.3034,7.3034,7.36,7.4147,7.3728,7.3927,7.4251,7.4239,7.4569,7.5001,7.5365,7.6059,7.6632,7.6632,7.6995,7.7285,7.7285,7.7285,7.7285,7.7285,7.7285,7.7285,7.7285,7.7285,7.7285,7.7285,7.7285,7.7285,7.7285,7.7285,7.7285,7.7285,7.7285,7.7285,7.7285,7.7285,7.7285,7.7285,7.7285,7.7285,7.7285,7.7285,7.7285,7.7285,7.7285,7.7285,7.7285,7.7285,7.7285,7.7285,7.7285,7.7285,7.7285,7.7285,7.7285,7.7285,7.7285,7.7546,7.788,7.788,7.8402,7.9147,7.9147,7.9661,8.0355,6.2793,6.2793,6.2793,6.2793,6.2906,6.3016,6.3016,6.3723,6.428,6.428,6.4968,6.5475,6.5475,6.6216,6.6663,6.6663,6.6069,6.5955,6.6623,6.6663,6.6996,6.7664,6.77,6.77,6.77,6.7807,6.7881,6.7881,6.7991,6.8428,6.9075,6.9075,6.9519,7.0293,7.0293,7.0727,7.149,7.149,7.1861,7.2492,7.2492,7.2492,7.2492,7.2492,7.2492,7.2492,7.2492,7.2576,7.2697,7.2697,7.3236,7.3889,7.3871,7.4425,7.5074,7.5074,7.5159,7.5226,7.5106,7.518,7.5427,7.6111,7.6779,7.7285,7.7285,7.7285,7.7285,7.7285,7.7285,7.7285,7.7285,7.7285,7.7285,7.7285,7.7285,7.7285,7.7285,7.7285,7.7285,7.7285,7.7285,7.7285,7.7285,7.7285,7.7285,7.7285,7.7285,7.7285,7.7285,7.7285,7.7285,7.7285,7.7285,7.7285,7.7285,7.7285,7.7285,7.7285,7.7285,7.7285,7.7285,7.7285,7.7285,7.7285,7.7285,7.7358,7.7509,7.7509,7.799,7.8776,7.8776,7.9258,7.9992,7.9992,8.0502,8.1191,6.2793,6.2793,6.2793,6.2793,6.3426,6.3913,6.3913,6.4604,6.5111,6.5111,6.5812,6.6326,6.6326,6.7033,6.7514,6.7514,6.7403,6.7367,6.7514,6.7514,6.7587,6.77,6.77,6.77,6.77,6.8385,6.8711,6.8711,6.9379,6.9783,6.9926,6.9926,7.0326,7.1127,7.1127,7.1567,7.2305,7.2305,7.2382,7.2492,7.2492,7.2492,7.2492,7.2492,7.2492,7.2492,7.2492,7.2946,7.3526,7.3526,7.4065,7.4709,7.4714,7.5257,7.5906,7.5906,7.6407,7.6783,7.6103,7.6401,7.6943,7.7065,7.7212,7.7285,7.7285,7.7285,7.7285,7.7285,7.7285,7.7285,7.7285,7.7285,7.7285,7.7285,7.7285,7.7285,7.7285,7.7285,7.7285,7.7285,7.7285,7.7285,7.7285,7.7285,7.7285,7.7285,7.7285,7.7285,7.7285,7.7285,7.7285,7.7285,7.7285,7.7285,7.7285,7.7285,7.7285,7.7285,7.7285,7.7285,7.7285,7.7285,7.7285,7.7285,7.7285,7.7729,7.8405,7.8405,7.8887,7.9592,7.9592,8.0098,8.0824,8.0824,8.1305,8.2007,6.3426,6.3499,6.3646,6.408,6.4487,6.4751,6.4751,6.5445,6.5955,6.5955,6.6663,6.7143,6.7143,6.7477,6.77,6.77,6.77,6.77,6.77,6.77,6.77,6.77,6.77,6.7917,6.8348,6.9119,6.9556,6.9556,6.993,7.033,7.0763,7.0763,7.1167,7.1934,7.1934,7.2158,7.2492,7.2492,7.2492,7.2492,7.2492,7.2492,7.2492,7.2492,7.2781,7.3155,7.3155,7.3654,7.4363,7.4338,7.4881,7.555,7.5555,7.6112,7.6743,7.6743,7.6994,7.7237,7.6864,7.703,7.7285,7.7285,7.7285,7.7285,7.7285,7.7285,7.7285,7.7285,7.7285,7.7285,7.7285,7.7285,7.7285,7.7285,7.7285,7.7285,7.7285,7.7285,7.7285,7.7285,7.7285,7.7285,7.7285,7.7285,7.7285,7.7285,7.7285,7.7285,7.7285,7.7285,7.7285,7.7285,7.7285,7.7285,7.7285,7.7285,7.7285,7.7285,7.7285,7.7285,7.7285,7.7285,7.7546,7.799,7.799,7.8475,7.9258,7.9258,7.9735,8.0465,8.0465,8.0942,8.1636,8.1636,8.1897,8.219,6.4203,6.4387,6.4567,6.5181,6.5438,6.5588,6.5588,6.6256,6.6776,6.6776,6.733,6.77,6.77,6.77,6.77,6.77,6.77,6.7774,6.7954,6.7987,6.7987,6.7987,6.8174,6.8538,6.9189,6.9963,7.0367,7.0367,7.055,7.0987,7.1567,7.1567,7.1901,7.2492,7.2492,7.2492,7.2492,7.2492,7.2492,7.2492,7.2492,7.2602,7.2786,7.2775,7.3291,7.3973,7.3993,7.45,7.5195,7.5189,7.57,7.6367,7.6367,7.6783,7.7285,7.7285,7.7285,7.7285,7.7285,7.7285,7.7285,7.7285,7.7285,7.7285,7.7285,7.7285,7.7285,7.7285,7.7285,7.7285,7.7285,7.7285,7.7285,7.7285,7.7285,7.7285,7.7285,7.7285,7.7285,7.7285,7.7285,7.7285,7.7285,7.7285,7.7285,7.7285,7.7285,7.7285,7.7285,7.7285,7.7285,7.7285,7.7285,7.7285,7.7285,7.7285,7.7285,7.7285,7.7285,7.7285,7.7322,7.7509,7.7953,7.8593,7.8813,7.9331,8.0065,8.0065,8.0538,8.1265,8.1265,8.1672,8.219,8.219,8.219,8.219,6.5038,6.5218,6.5218,6.5288,6.5919,6.6402,6.6402,6.7106,6.7627,6.7627,6.766,6.77,6.77,6.77,6.77,6.77,6.77,6.8028,6.8748,6.8822,6.8822,6.8822,6.9526,6.9966,7.0003,7.08,7.1197,7.1197,7.1975,7.2342,7.2419,7.2419,7.2455,7.2492,7.2492,7.2492,7.2492,7.2492,7.2492,7.2492,7.2492,7.2936,7.36,7.3597,7.4118,7.4804,7.4813,7.533,7.5997,7.6002,7.6533,7.72,7.72,7.7241,7.7285,7.7285,7.7285,7.7285,7.7285,7.7285,7.7285,7.7285,7.7285,7.7285,7.7285,7.7285,7.7285,7.7285,7.7285,7.7285,7.7285,7.7285,7.7285,7.7285,7.7285,7.7285,7.7285,7.7285,7.7285,7.7285,7.7285,7.7285,7.7285,7.7285,7.7285,7.7285,7.7285,7.7285,7.7285,7.7285,7.7285,7.7285,7.7285,7.7285,7.7285,7.7285,7.7285,7.7285,7.7285,7.7285,7.7322,7.8141,7.8556,7.863,7.9408,8.0175,8.0897,8.0897,8.1379,8.2117,8.2117,8.2158,8.219,8.219,8.219,8.219,6.5885,6.6032,6.6216,6.6699,6.7033,6.7253,6.7253,6.7517,6.77,6.77,6.77,6.77,6.77,6.77,6.7917,6.8388,6.8458,6.8792,6.9596,6.9633,6.9633,6.9633,7.04,7.0837,7.0837,7.1641,7.2044,7.2044,7.2342,7.2492,7.2492,7.2492,7.2492,7.2492,7.2492,7.2492,7.2492,7.2492,7.2786,7.3233,7.3233,7.3744,7.443,7.4444,7.4944,7.5654,7.5641,7.6157,7.6824,7.6824,7.7034,7.7285,7.7285,7.7285,7.7285,7.7285,7.7285,7.7285,7.7285,7.7285,7.7285,7.7285,7.7285,7.7285,7.7285,7.7285,7.7285,7.7285,7.7285,7.7285,7.7285,7.7285,7.7285,7.7285,7.7285,7.7285,7.7285,7.7285,7.7285,7.7285,7.7285,7.7285,7.7285,7.7285,7.7285,7.7285,7.7285,7.7285,7.7285,7.7285,7.7285,7.7285,7.7285,7.7285,7.7285,7.7285,7.7285,7.7322,7.7843,7.8104,7.8141,7.896,7.9625,8.0094,8.0424,8.1012,8.1746,8.1746,8.1933,8.219,8.219,8.219,8.219,8.219,8.219,8.219,6.6736,6.6883,6.7033,6.7587,6.77,6.77,6.77,6.77,6.77,6.77,6.77,6.7811,6.8061,6.8098,6.8388,6.9225,6.9299,6.9629,7.0437,7.0697,7.0734,7.0477,7.1241,7.1674,7.1674,7.2232,7.2492,7.2492,7.2492,7.2492,7.2492,7.2492,7.2492,7.2492,7.2492,7.2492,7.2529,7.2789,7.3197,7.3714,7.3968,7.4548,7.5274,7.5262,7.5792,7.6488,7.6465,7.6824,7.7285,7.7285,7.7285,7.7285,7.7285,7.7285,7.7285,7.7285,7.7285,7.7285,7.7285,7.7285,7.7285,7.7285,7.7285,7.7285,7.7285,7.7285,7.7285,7.7285,7.7285,7.7285,7.7285,7.7285,7.7285,7.7285,7.7285,7.7285,7.7285,7.7285,7.7285,7.7285,7.7285,7.7285,7.7285,7.7285,7.7285,7.7285,7.7285,7.7285,7.7285,7.7285,7.7285,7.7285,7.7285,7.7285,7.7285,7.7285,7.7432,7.7729,7.8291,7.874,7.8997,7.9804,8.0465,8.1008,8.1265,8.1672,8.219,8.219,8.219,8.219,8.219,8.219,8.219,8.219,8.219,8.219,6.755,6.77,6.77,6.77,6.77,6.77,6.77,6.77,6.77,6.77,6.77,6.8028,6.8818,6.8892,6.9225,7.004,7.0117,7.0437,7.127,7.2048,7.2158,7.1344,7.2081,7.2492,7.2492,7.2492,7.2492,7.2492,7.2492,7.2492,7.2492,7.2492,7.2492,7.2492,7.2492,7.2492,7.2565,7.338,7.3714,7.3788,7.4581,7.5388,7.6093,7.6093,7.6599,7.7285,7.7285,7.7285,7.7285,7.7285,7.7285,7.7285,7.7285,7.7285,7.7285,7.7285,7.7285,7.7285,7.7285,7.7285,7.7285,7.7285,7.7285,7.7285,7.7285,7.7285,7.7285,7.7285,7.7285,7.7285,7.7285,7.7285,7.7285,7.7285,7.7285,7.7285,7.7285,7.7285,7.7285,7.7285,7.7285,7.7285,7.7285,7.7285,7.7285,7.7285,7.7285,7.7285,7.7285,7.7285,7.7285,7.7285,7.7285,7.7285,7.7322,7.7322,7.7729,7.8593,7.8593,7.9033,7.9849,8.0645,8.1008,8.104,8.186,8.219,8.219,8.219,8.219,8.219,8.219,8.219,8.219,8.219,8.219,8.219,6.7664,6.77,6.77,6.77,6.77,6.77,6.77,6.77,6.7917,6.8458,6.8531,6.8862,6.9633,6.9743,7.007,7.0874,7.0943,7.1277,7.2085,7.2378,7.2382,7.2158,7.2378,7.2492,7.2492,7.2492,7.2492,7.2492,7.2492,7.2492,7.2492,7.2492,7.2492,7.2529,7.3083,7.3344,7.338,7.4217,7.4878,7.5395,7.5652,7.6232,7.6922,7.6922,7.7105,7.7285,7.7285,7.7285,7.7285,7.7285,7.7285,7.7285,7.7285,7.7285,7.7285,7.7285,7.7285,7.7285,7.7285,7.7285,7.7285,7.7285,7.7285,7.7285,7.7285,7.7285,7.7285,7.7285,7.7285,7.7285,7.7285,7.7285,7.7285,7.7285,7.7285,7.7285,7.7285,7.7285,7.7285,7.7285,7.7285,7.7285,7.7285,7.7285,7.7285,7.7285,7.7285,7.7285,7.7285,7.7285,7.7285,7.7285,7.7285,7.7582,7.8218,7.8218,7.8328,7.8626,7.9723,8.0424,8.0681,8.1489,8.1823,8.1856,8.2117,8.219,8.219,8.219,8.219,8.219,8.219,8.219,8.219,8.219,8.219,8.219,6.77,6.77,6.77,6.77,6.77,6.77,6.77,6.7954,6.8351,6.8858,6.9189,6.9666,7.0473,7.0583,7.0914,7.1714,7.1788,7.1971,7.2455,7.2492,7.2492,7.2492,7.2492,7.2492,7.2492,7.2492,7.2492,7.2492,7.2492,7.2492,7.2492,7.2826,7.2973,7.301,7.3817,7.4184,7.4221,7.5021,7.5649,7.613,7.6456,7.6885,7.7285,7.7285,7.7285,7.7285,7.7285,7.7285,7.7285,7.7285,7.7285,7.7285,7.7285,7.7285,7.7285,7.7285,7.7285,7.7285,7.7285,7.7285,7.7285,7.7285,7.7285,7.7285,7.7285,7.7285,7.7285,7.7285,7.7285,7.7285,7.7285,7.7285,7.7285,7.7285,7.7285,7.7285,7.7285,7.7285,7.7285,7.7285,7.7285,7.7285,7.7285,7.7285,7.7285,7.7285,7.7285,7.7285,7.7285,7.7285,7.7469,7.7807,7.7807,7.8214,7.9074,7.9396,7.9539,7.9543,8.053,8.1154,8.1489,8.197,8.219,8.219,8.219,8.219,8.219,8.219,8.219,8.219,8.219,8.219,8.219,8.219,8.219,8.219,6.77,6.77,6.77,6.77,6.7774,6.7811,6.7811,6.8498,6.9038,6.9112,6.9743,7.051,7.1307,7.1417,7.1714,7.2455,7.2492,7.2492,7.2492,7.2492,7.2492,7.2492,7.2492,7.2492,7.2492,7.2492,7.2492,7.2492,7.2565,7.2602,7.2602,7.3417,7.3824,7.3821,7.4654,7.5017,7.5054,7.5869,7.6203,7.6273,7.6995,7.7285,7.7285,7.7285,7.7285,7.7285,7.7285,7.7285,7.7285,7.7285,7.7285,7.7285,7.7285,7.7285,7.7285,7.7285,7.7285,7.7285,7.7285,7.7285,7.7285,7.7285,7.7285,7.7285,7.7285,7.7285,7.7285,7.7285,7.7285,7.7285,7.7285,7.7285,7.7285,7.7285,7.7285,7.7285,7.7285,7.7285,7.7285,7.7285,7.7285,7.7285,7.7285,7.7285,7.7285,7.7285,7.7285,7.7285,7.7285,7.7358,7.777,7.8556,7.8666,7.9107,7.9886,8.0645,8.1008,8.1008,8.1081,8.1489,8.219,8.219,8.219,8.219,8.219,8.219,8.219,8.219,8.219,8.219,8.219,8.219,8.219,8.219,8.219,8.219,6.77,6.77,6.77,6.77,6.8204,6.8638,6.8638,6.9302,7.007,7.0686,7.094,7.1347,7.2158,7.2232,7.2305,7.2492,7.2492,7.2492,7.2492,7.2492,7.2492,7.2492,7.2492,7.2492,7.2492,7.2492,7.2492,7.2492,7.3123,7.3457,7.3457,7.4254,7.4654,7.4654,7.5461,7.5832,7.5906,7.6702,7.7032,7.7069,7.7248,7.7285,7.7285,7.7285,7.7285,7.7285,7.7285,7.7285,7.7285,7.7285,7.7285,7.7285,7.7285,7.7285,7.7285,7.7285,7.7285,7.7285,7.7285,7.7285,7.7285,7.7285,7.7285,7.7285,7.7285,7.7285,7.7285,7.7285,7.7285,7.7285,7.7285,7.7285,7.7285,7.7285,7.7285,7.7285,7.7285,7.7285,7.7285,7.7285,7.7285,7.7285,7.7285,7.7285,7.7285,7.7285,7.7285,7.7285,7.7285,7.7957,7.8405,7.8589,7.9221,7.9918,8.0714,8.0897,8.1008,8.1008,8.1636,8.2043,8.219,8.219,8.219,8.219,8.219,8.219,8.219,8.219,8.219,8.219,8.219,8.219,8.219,8.219,8.219,8.219,6.77,6.8024,6.8278,6.8278,6.8935,6.9486,6.9486,7.0143,7.0837,7.123,7.1637,7.2048,7.2455,7.2492,7.2492,7.2492,7.2492,7.2492,7.2492,7.2492,7.2492,7.2492,7.2863,7.3083,7.3083,7.3446,7.3446,7.3083,7.3891,7.4254,7.4291,7.5098,7.5461,7.5502,7.6306,7.6669,7.6705,7.7138,7.7285,7.7285,7.7285,7.7285,7.7285,7.7285,7.7285,7.7285,7.7285,7.7285,7.7285,7.7285,7.7285,7.7285,7.7285,7.7285,7.7285,7.7285,7.7285,7.7285,7.7285,7.7285,7.7285,7.7285,7.7285,7.7285,7.7285,7.7285,7.7285,7.7285,7.7285,7.7285,7.7285,7.7285,7.7285,7.7285,7.7285,7.7285,7.7285,7.7285,7.7285,7.7285,7.7285,7.7285,7.7285,7.7285,7.7285,7.7285,7.7285,7.7469,7.7884,7.8369,7.8956,7.9727,8.0167,8.0759,8.1562,8.1562,8.1562,8.1562,8.2007,8.219,8.219,8.219,8.219,8.219,8.219,8.219,8.219,8.219,8.219,8.219,8.219,8.219,8.219,8.219,8.219,8.219,6.7881,6.8458,6.8928,6.9075,6.9776,7.0293,7.0293,7.0984,7.1527,7.1527,7.2085,7.2492,7.2492,7.2492,7.2492,7.2492,7.2492,7.2492,7.2492,7.2642,7.2712,7.2712,7.3487,7.3894,7.3894,7.4694,7.4691,7.3894,7.4691,7.5127,7.5131,7.5942,7.6309,7.6342,7.6991,7.7285,7.7285,7.7285,7.7285,7.7285,7.7285,7.7285,7.7285,7.7285,7.7285,7.7285,7.7285,7.7285,7.7285,7.7285,7.7285,7.7285,7.7285,7.7285,7.7285,7.7285,7.7285,7.7285,7.7285,7.7285,7.7285,7.7285,7.7285,7.7285,7.7285,7.7285,7.7285,7.7285,7.7285,7.7285,7.7285,7.7285,7.7285,7.7285,7.7285,7.7285,7.7285,7.7285,7.7285,7.7285,7.7285,7.7285,7.7285,7.7285,7.7285,7.7285,7.7432,7.7843,7.8552,7.8846,7.9617,8.0971,8.1118,8.1525,8.219,8.219,8.219,8.219,8.219,8.219,8.219,8.219,8.219,8.219,8.219,8.219,8.219,8.219,8.219,8.219,8.219,8.219,8.219,8.219,8.219,8.2227,6.8601,6.8818,6.9115,6.9816,7.0617,7.1127,7.1127,7.1824,7.2342,7.2342,7.2415,7.2492,7.2492,7.2492,7.2492,7.2492,7.2492,7.2492,7.2492,7.3156,7.3527,7.3527,7.4327,7.4727,7.4727,7.5539,7.5539,7.4727,7.5539,7.5942,7.5946,7.6775,7.7142,7.7142,7.7248,7.7285,7.7285,7.7285,7.7285,7.7285,7.7285,7.7285,7.7285,7.7285,7.7285,7.7285,7.7285,7.7285,7.7285,7.7285,7.7285,7.7285,7.7285,7.7285,7.7285,7.7285,7.7285,7.7285,7.7285,7.7285,7.7285,7.7285,7.7285,7.7285,7.7285,7.7285,7.7285,7.7285,7.7285,7.7285,7.7285,7.7285,7.7285,7.7285,7.7285,7.7285,7.7285,7.7285,7.7285,7.7285,7.7285,7.7285,7.7285,7.7285,7.7285,7.7285,7.7994,7.8479,7.8589,7.991,8.0787,8.1004,8.1672,8.208,8.219,8.219,8.219,8.219,8.219,8.219,8.219,8.219,8.219,8.219,8.219,8.219,8.219,8.219,8.219,8.219,8.219,8.219,8.219,8.219,8.219,8.23,6.9412,6.9919,7.0356,7.0727,7.1421,7.1975,7.1975,7.2272,7.2492,7.2492,7.2492,7.2492,7.2492,7.2492,7.2492,7.2492,7.2492,7.2679,7.3123,7.3494,7.3898,7.4364,7.5135,7.5575,7.5575,7.6379,7.6595,7.6225,7.6595,7.6779,7.6779,7.7138,7.7285,7.7285,7.7285,7.7285,7.7285,7.7285,7.7285,7.7285,7.7285,7.7285,7.7285,7.7285,7.7285,7.7285,7.7285,7.7285,7.7285,7.7285,7.7285,7.7285,7.7285,7.7285,7.7285,7.7285,7.7285,7.7285,7.7285,7.7285,7.7285,7.7285,7.7285,7.7285,7.7285,7.7285,7.7285,7.7285,7.7285,7.7285,7.7285,7.7285,7.7285,7.7285,7.7285,7.7285,7.7285,7.7285,7.7285,7.7285,7.7285,7.7285,7.7285,7.7285,7.7509,7.7994,7.8369,7.8993,7.9874,8.06,8.1228,8.1672,8.2007,8.219,8.219,8.219,8.219,8.219,8.219,8.219,8.219,8.219,8.219,8.219,8.219,8.219,8.219,8.219,8.219,8.219,8.219,8.2484,8.288,8.288,8.3141,8.3581]},{"header":{"parameterUnit":"m.s-1","parameterCategory":1,"la1":30.6,"la2":28.766,"lo1":-90.7593,"lo2":-88.6598,"dy":0.0162,"dx":0.0183,"nx":116,"ny":114,"refTime":"2024-02-14T06:00:00:Z","depth":0,"parameterNumber":3,"parameterNumberName":"V-component_of_WINDS"},"data":[0.0,0.0,0.0,0.0,0.0,0.0,0.0,0.0,0.0,0.0,0.0,0.0,0.0,0.0,0.0,0.0,0.0,0.0,0.0,0.0,0.0,0.0,0.0,0.0,0.0,0.0,0.0,0.0,0.0,0.0,0.0,0.0,0.0,0.0,0.0,0.0,0.0,0.0,0.0,0.0,0.0,0.0,0.0,0.0,0.0,0.0,0.0,0.0,0.0,0.0,0.0,0.0,0.0,0.0,0.0,0.0,0.0,0.0,0.0,0.0,0.0,0.0,0.0,0.0,0.0,0.0,0.0,0.0,0.0,0.0,0.0,0.0,0.0,0.0,0.0,0.0,0.0,0.0,0.0,0.0,0.0,0.0,0.0,0.0,0.0,0.0,0.0,0.0,0.0,0.0,0.0,0.0,0.0,0.0,0.0,0.0,0.0,0.0,0.0,0.0,0.0,0.0,0.0,0.0,0.0,0.0,0.0,0.0,0.0,0.0,0.0,0.0,0.0,0.0,0.0,0.0,0.0,0.0,0.0,0.0,0.0,0.0,0.0,0.0,0.0,0.0,0.0,0.0,0.0,0.0,0.0,0.0,0.0,0.0,0.0,0.0,0.0,0.0,0.0,0.0,0.0,0.0,0.0,0.0,0.0,0.0,0.0,0.0,0.0,0.0,0.0,0.0,0.0,0.0,0.0,0.0,0.0,0.0,0.0,0.0,0.0,0.0,0.0,0.0,0.0,0.0,0.0,0.0,0.0,0.0,0.0,0.0,0.0,0.0,0.0,0.0,0.0,0.0,0.0,0.0,0.0,0.0,0.0,0.0,0.0,0.0,0.0,0.0,0.0,0.0,0.0,0.0,0.0,0.0,0.0,0.0,0.0,0.0,0.0,0.0,0.0,0.0,0.0,0.0,0.0,0.0,0.0,0.0,0.0,0.0,0.0,0.0,0.0,0.0,0.0,0.0,0.0,0.0,0.0,0.0,0.0,0.0,0.0,0.0,0.0,0.0,0.0,0.0,0.0,0.0,0.0,0.0,0.0,0.0,0.0,0.0,0.0,0.0,0.0,0.0,0.0,0.0,0.0,0.0,0.0,0.0,0.0,0.0,0.0,0.0,0.0,0.0,0.0,0.0,0.0,0.0,0.0,0.0,0.0,0.0,0.0,0.0,0.0,0.0,0.0,0.0,0.0,0.0,0.0,0.0,0.0,0.0,0.0,0.0,0.0,0.0,0.0,0.0,0.0,0.0,0.0,0.0,0.0,0.0,0.0,0.0,0.0,0.0,0.0,0.0,0.0,0.0,0.0,0.0,0.0,0.0,0.0,0.0,0.0,0.0,0.0,0.0,0.0,0.0,0.0,0.0,0.0,0.0,0.0,0.0,0.0,0.0,0.0,0.0,0.0,0.0,0.0,0.0,0.0,0.0,0.0,0.0,0.0,0.0,0.0,0.0,0.0,0.0,0.0,0.0,0.0,0.0,0.0,0.0,0.0,0.0,0.0,0.0,0.0,0.0,0.0,0.0,0.0,0.0,0.0,0.0,0.0,0.0,0.0,0.0,0.0,0.0,0.0,0.0,0.0,0.0,0.0,0.0,0.0,0.0,0.0,0.0,0.0,0.0,0.0,0.0,0.0,0.0,0.0,0.0,0.0,0.0,0.0,0.0,0.0,0.0,0.0,0.0,0.0,0.0,0.0,0.0,0.0,0.0,0.0,0.0,0.0,0.0,0.0,0.0,0.0,0.0,0.0,0.0,0.0,0.0,0.0,0.0,0.0,0.0,0.0,0.0,0.0,0.0,0.0,0.0,0.0,0.0,0.0,0.0,0.0,0.0,0.0,0.0,0.0,0.0,0.0,0.0,0.0,0.0,0.0,0.0,0.0,0.0,0.0,0.0,0.0,0.0,0.0,0.0,0.0,0.0,0.0,0.0,0.0,0.0,0.0,0.0,0.0,0.0,0.0,0.0,0.0,0.0,0.0,0.0,0.0,0.0,0.0,0.0,0.0,0.0,0.0,0.0,0.0,0.0,0.0,0.0,0.0,0.0,0.0,0.0,0.0,0.0,0.0,0.0,0.0,0.0,0.0,0.0,0.0,0.0,0.0,0.0,0.0,0.0,0.0,0.0,0.0,0.0,0.0,0.0,0.0,0.0,0.0,0.0,0.0,0.0,0.0,0.0,0.0,0.0,0.0,0.0,0.0,0.0,0.0,0.0,0.0,0.0,0.0,0.0,0.0,0.0,0.0,0.0,0.0,0.0,0.0,0.0,0.0,0.0,0.0,0.0,0.0,0.0,0.0,0.0,0.0,0.0,0.0,0.0,0.0,0.0,0.0,0.0,0.0,0.0,0.0,0.0,0.0,0.0,0.0,0.0,0.0,0.0,0.0,0.0,0.0,0.0,0.0,0.0,0.0,0.0,0.0,0.0,0.0,0.0,0.0,0.0,0.0,0.0,0.0,0.0,0.0,0.0,0.0,0.0,0.0,0.0,0.0,0.0,0.0,0.0,0.0,0.0,0.0,0.0,0.0,0.0,0.0,0.0,0.0,0.0,0.0,0.0,0.0,0.0,0.0,0.0,0.0,0.0,0.0,0.0,0.0,0.0,0.0,0.0,0.0,0.0,0.0,0.0,0.0,0.0,0.0,0.0,0.0,0.0,0.0,0.0,0.0,0.0,0.0,0.0,0.0,0.0,0.0,0.0,0.0,0.0,0.0,0.0,0.0,0.0,0.0,0.0,0.0,0.0,0.0,0.0,0.0,0.0,0.0,0.0,0.0,0.0,0.0,0.0,0.0,0.0,0.0,0.0,0.0,0.0,0.0,0.0,0.0,0.0,0.0,0.0,0.0,0.0,0.0,0.0,0.0,0.0,0.0,0.0,0.0,0.0,0.0,0.0,0.0,0.0,0.0,0.0,0.0,0.0,0.0,0.0,0.0,0.0,0.0,0.0,0.0,0.0,0.0,0.0,0.0,0.0,0.0,0.0,0.0,0.0,0.0,0.0,0.0,0.0,0.0,0.0,0.0,0.0,0.0,0.0,0.0,0.0,0.0,0.0,0.0,0.0,0.0,0.0,0.0,0.0,0.0,0.0,0.0,0.0,0.0,0.0,0.0,0.0,0.0,0.0,0.0,0.0,0.0,0.0,0.0,0.0,0.0,0.0,0.0,0.0,0.0,0.0,0.0,0.0,0.0,0.0,0.0,0.0,0.0,0.0,0.0,0.0,0.0,0.0,0.0,0.0,0.0,0.0,0.0,0.0,0.0,0.0,0.0,0.0,0.0,0.0,0.0,0.0,0.0,0.0,0.0,0.0,0.0,0.0,0.0,0.0,0.0,0.0,0.0,0.0,0.0,0.0,0.0,0.0,0.0,0.0,0.0,0.0,0.0,0.0,0.0,0.0,0.0,0.0,0.0,0.0,0.0,0.0,0.0,0.0,0.0,0.0,0.0,0.0,0.0,0.0,0.0,0.0,0.0,0.0,0.0,0.0,0.0,0.0,0.0,0.0,0.0,0.0,0.0,0.0,0.0,0.0,0.0,0.0,0.0,0.0,0.0,0.0,0.0,0.0,0.0,0.0,0.0,0.0,0.0,0.0,0.0,0.0,0.0,0.0,0.0,0.0,0.0,0.0,0.0,0.0,0.0,0.0,0.0,0.0,0.0,0.0,0.0,0.0,0.0,0.0,0.0,0.0,0.0,0.0,0.0,0.0,0.0,0.0,0.0,0.0,0.0,0.0,0.0,0.0,0.0,0.0,0.0,0.0,0.0,0.0,0.0,0.0,0.0,0.0,0.0,0.0,0.0,0.0,0.0,0.0,0.0,0.0,0.0,0.0,0.0,0.0,0.0,0.0,0.0,0.0,0.0,0.0,0.0,0.0,0.0,0.0,0.0,0.0,0.0,0.0,0.0,0.0,0.0,0.0,0.0,0.0,0.0,0.0,0.0,0.0,0.0,0.0,0.0,0.0,0.0,0.0,0.0,0.0,0.0,0.0,0.0,0.0,0.0,0.0,0.0,0.0,0.0,0.0,0.0,0.0,0.0,0.0,0.0,0.0,0.0,0.0,0.0,0.0,0.0,0.0,0.0,0.0,0.0,0.0,0.0,0.0,0.0,0.0,0.0,0.0,0.0,0.0,0.0,0.0,0.0,0.0,0.0,0.0,0.0,0.0,0.0,0.0,0.0,0.0,0.0,0.0,0.0,0.0,0.0,0.0,0.0,0.0,0.0,0.0,0.0,0.0,0.0,0.0,0.0,0.0,0.0,0.0,0.0,0.0,0.0,0.0,0.0,0.0,0.0,0.0,0.0,0.0,0.0,0.0,0.0,0.0,0.0,0.0,0.0,0.0,0.0,0.0,0.0,0.0,0.0,0.0,0.0,0.0,0.0,0.0,0.0,0.0,0.0,0.0,0.0,0.0,0.0,0.0,0.0,0.0,0.0,0.0,0.0,0.0,0.0,0.0,0.0,0.0,0.0,0.0,0.0,0.0,0.0,0.0,0.0,0.0,0.0,0.0,0.0,0.0,0.0,0.0,0.0,0.0,0.0,0.0,0.0,0.0,0.0,0.0,0.0,0.0,0.0,0.0,0.0,0.0,0.0,0.0,0.0,0.0,0.0,0.0,0.0,0.0,0.0,0.0,0.0,0.0,0.0,0.0,0.0,0.0,0.0,0.0,0.0,0.0,0.0,0.0,0.0,0.0,0.0,0.0,0.0,0.0,0.0,0.0,0.0,0.0,0.0,0.0,0.0,0.0,0.0,0.0,0.0,0.0,0.0,0.0,0.0,0.0,0.0,0.0,0.0,0.0,0.0,0.0,0.0,0.0,0.0,0.0,0.0,0.0,0.0,0.0,0.0,0.0,0.0,0.0,0.0,0.0,0.0,0.0,0.0,0.0,0.0,0.0,0.0,0.0,0.0,0.0,0.0,0.0,0.0,0.0,0.0,0.0,0.0,0.0,0.0,0.0,0.0,0.0,0.0,0.0,0.0,0.0,0.0,0.0,0.0,0.0,0.0,0.0,0.0,0.0,0.0,0.0,0.0,0.0,0.0,0.0,0.0,0.0,0.0,0.0,0.0,0.0,0.0,0.0,0.0,0.0,0.0,0.0,0.0,0.0,0.0,0.0,0.0,0.0,0.0,0.0,0.0,0.0,0.0,0.0,0.0,0.0,0.0,0.0,0.0,0.0,0.0,0.0,0.0,0.0,0.0,0.0,0.0,0.0,0.0,0.0,0.0,0.0,0.0,0.0,0.0,0.0,0.0,0.0,0.0,0.0,0.0,0.0,0.0,0.0,0.0,0.0,0.0,0.0,0.0,0.0,0.0,0.0,0.0,0.0,0.0,0.0,0.0,0.0,0.0,0.0,0.0,0.0,0.0,0.0,0.0,0.0,0.0,0.0,0.0,0.0,0.0,0.0,0.0,0.0,0.0,0.0,0.0,0.0,0.0,0.0,0.0,0.0,0.0,0.0,0.0,0.0,0.0,0.0,0.0,0.0,0.0,0.0,0.0,0.0,0.0,0.0,0.0,0.0,0.0,0.0,0.0,0.0,0.0,0.0,0.0,0.0,0.0,0.0,0.0,0.0,0.0,0.0,0.0,0.0,0.0,0.0,0.0,0.0,0.0,0.0,0.0,0.0,0.0,0.0,0.0,0.0,0.0,0.0,0.0,0.0,0.0,0.0,0.0,0.0,0.0,0.0,0.0,0.0,0.0,0.0,0.0,0.0,0.0,0.0,0.0,0.0,0.0,0.0,0.0,0.0,0.0,0.0,0.0,0.0,0.0,0.0,0.0,0.0,0.0,0.0,0.0,0.0,0.0,0.0,0.0,0.0,0.0,0.0,0.0,0.0,0.0,0.0,0.0,0.0,0.0,0.0,0.0,0.0,0.0,0.0,0.0,0.0,0.0,0.0,0.0,0.0,0.0,0.0,0.0,0.0,0.0,0.0,0.0,0.0,0.0,0.0,0.0,0.0,0.0,0.0,0.0,0.0,0.0,0.0,0.0,0.0,0.0,0.0,0.0,0.0,0.0,0.0,0.0,0.0,0.0,0.0,0.0,0.0,0.0,0.0,0.0,0.0,0.0,0.0,0.0,0.0,0.0,0.0,0.0,0.0,0.2785,0.0,0.0,0.0,0.0,0.0,0.0,0.0,0.0,0.0,0.0,0.0,0.0,0.0,0.0,0.0,0.0,0.0,0.0,0.0,0.0,0.0,0.0,0.0,0.0,0.0,0.0,0.0,0.0,0.0,0.0,0.0,0.0,0.0,0.0,0.0,0.0,0.0,0.6461,0.6187,0.6187,0.5987,0.5599,0.5391,0.4939,0.0,0.0,0.0,0.0,0.0,0.0,0.0,0.0,0.0,0.0,0.0,0.0,0.0,0.0,0.0,0.0,0.0,0.0,0.0,0.0,0.0,0.0,0.0,0.0,0.0,0.0,0.0,0.0,0.0,0.0,0.0,0.0,0.0,0.0,0.0,0.0,0.0,0.0,0.0,0.0,0.0,0.0,0.0,0.0,0.0,0.0,0.0,0.0,0.0,0.0,0.0,0.0,0.0,0.0,0.0,0.0,0.0,0.0,0.0,0.0,0.0,0.0,0.0,0.0,0.0,0.0,0.0,0.0,0.0,0.0,0.0,0.0,0.3093,0.0,0.0,0.0,0.0,0.0,0.0,0.0,0.0,0.0,0.0,0.0,0.0,0.0,0.0,0.0,0.0,0.0,0.0,0.0,0.0,0.0,0.0,0.0,0.8001,0.8001,0.8001,0.8001,0.7901,0.7684,0.7671,0.7553,0.7285,0.7272,0.7148,0.6873,0.6823,0.6692,0.6468,0.6424,0.6143,0.5649,0.5541,0.5096,0.0,0.0,0.0,0.0,0.0,0.0,0.0,0.0,0.0,0.0,0.0,0.0,0.0,0.0,0.0,0.0,0.0,0.0,0.0,0.0,0.0,0.0,0.0,0.0,0.0,0.0,0.0,0.0,0.0,0.0,0.0,0.0,0.0,0.0,0.0,0.0,0.0,0.0,0.0,0.0,0.0,0.0,0.0,0.0,0.0,0.0,0.0,0.0,0.0,0.0,0.0,0.0,0.0,0.0,0.0,0.0,0.0,0.0,0.0,0.0,0.0,0.0,0.0,0.0,0.0,0.3086,0.3137,0.3253,0.3532,0.3687,0.3733,0.3455,0.3455,0.3656,0.3656,0.0,0.0,0.0,0.0,0.0,0.0,0.0,0.0,0.0,0.0,0.0,0.0,0.0,0.0,0.0,0.0,0.0,0.0,0.0,0.0,0.0,0.8001,0.8001,0.8001,0.8001,0.7982,0.7951,0.7945,0.7827,0.7559,0.7547,0.7422,0.7148,0.6917,0.678,0.6748,0.6512,0.6218,0.586,0.5842,0.5441,0.4734,0.4711,0.0,0.0,0.0,0.0,0.0,0.0,0.0,0.0,0.0,0.0,0.0,0.0,0.0,0.0,0.0,0.0,0.0,0.0,0.0,0.0,0.0,0.0,0.0,0.0,0.0,0.0,0.0,0.0,0.0,0.0,0.0,0.0,0.0,0.0,0.0,0.0,0.0,0.0,0.0,0.0,0.0,0.0,0.0,0.258,0.258,0.0,0.0,0.0,0.0,0.0,0.0,0.0,0.0,0.0,0.0,0.0,0.0,0.0,0.2953,0.2999,0.2999,0.3147,0.3432,0.3432,0.371,0.4215,0.4261,0.4441,0.471,0.4672,0.0,0.4284,0.4284,0.0,0.0,0.0,0.0,0.0,0.0,0.0,0.0,0.0,0.0,0.0,0.0,0.0,0.0,0.0,0.0,0.0,0.0,0.0,0.0,0.0,0.8001,0.8001,0.8001,0.8001,0.8001,0.8001,0.8001,0.7945,0.7827,0.782,0.7696,0.7428,0.731,0.7098,0.6798,0.653,0.6231,0.5904,0.6092,0.5685,0.4803,0.4799,0.4208,0.3201,0.3197,0.0,0.0,0.0,0.0,0.0,0.0,0.0,0.0,0.0,0.0,0.0,0.0,0.0,0.0,0.0,0.0,0.0,0.0,0.0,0.0,0.0,0.0,0.0,0.0,0.0,0.0,0.0,0.0,0.0,0.0,0.0,0.0,0.0,0.0,0.0,0.0,0.0,0.0,0.0,0.2701,0.2701,0.2701,0.2736,0.2758,0.0,0.0,0.0,0.0,0.0,0.0,0.0,0.0,0.0,0.3278,0.3278,0.3448,0.3784,0.3784,0.3953,0.4287,0.4287,0.4426,0.4679,0.4679,0.4764,0.4902,0.4902,0.4925,0.4945,0.4761,0.4772,0.4902,0.0,0.0,0.0,0.0,0.5302,0.5463,0.0,0.0,0.0,0.0,0.0,0.0,0.0,0.0,0.0,0.0,0.0,0.0,0.8001,0.8001,0.8001,0.8001,0.8001,0.8001,0.8001,0.8001,0.8001,0.8001,0.8001,0.7907,0.7709,0.7621,0.7341,0.6854,0.6543,0.6268,0.6029,0.6285,0.5823,0.4803,0.4799,0.4204,0.3198,0.3197,0.2738,0.0,0.0,0.0,0.0,0.0,0.0,0.0,0.0,0.0,0.0,0.0,0.0,0.0,0.0,0.0,0.0,0.0,0.0,0.0,0.0,0.0,0.0,0.0,0.0,0.0,0.0,0.0,0.0,0.0,0.0,0.0,0.0,0.0,0.0,0.0,0.0,0.0,0.0,0.3162,0.3166,0.3188,0.3229,0.3272,0.0,0.0,0.0,0.0,0.0,0.0,0.3484,0.3484,0.3602,0.3848,0.3856,0.4071,0.4522,0.453,0.4656,0.4902,0.4902,0.4941,0.5025,0.5025,0.5072,0.5156,0.5156,0.5367,0.5675,0.5217,0.5079,0.5156,0.5156,0.5321,0.5571,0.5667,0.588,0.6118,0.0,0.0,0.0,0.0,0.0,0.0,0.0,0.0,0.0,0.0,0.0,0.8001,0.8001,0.8001,0.8001,0.8001,0.8001,0.8001,0.8001,0.8001,0.8001,0.8001,0.8001,0.7994,0.7982,0.7671,0.7341,0.6991,0.6598,0.6392,0.6373,0.6391,0.5823,0.4803,0.4799,0.4204,0.3198,0.3197,0.3166,0.303,0.2008,0.0,0.0,0.0,0.0,0.0,0.0,0.0,0.0,0.0,0.0,0.0,0.0,0.0,0.0,0.0,0.0,0.0,0.0,0.0,0.0,0.0,0.0,0.0,0.0,0.0,0.0,0.0,0.0,0.0,0.0,0.0,0.0,0.0,0.0,0.0,0.0,0.0,0.0,0.4493,0.4503,0.0,0.0,0.0,0.0,0.4708,0.4764,0.4799,0.4802,0.4802,0.481,0.4825,0.4825,0.4841,0.4872,0.4872,0.4879,0.4902,0.4902,0.5064,0.5375,0.5375,0.5548,0.5847,0.5847,0.6112,0.6481,0.5694,0.5563,0.5847,0.5847,0.59,0.6016,0.6396,0.6586,0.6718,0.0,0.0,0.0,0.0,0.0,0.0,0.0,0.0,0.8001,0.8001,0.8001,0.8001,0.8001,0.8001,0.8001,0.8001,0.8001,0.8001,0.8001,0.8001,0.8001,0.8001,0.8001,0.8001,0.8001,0.7883,0.759,0.7129,0.6637,0.6399,0.6398,0.6398,0.5829,0.4801,0.4801,0.4204,0.3198,0.3197,0.32,0.3103,0.2032,0.1603,0.0,0.0,0.0,0.0,0.0,0.0,0.0,0.0,0.0,0.0,0.0,0.0,0.0,0.0,0.0,0.0,0.0,0.0,0.0,0.0,0.0,0.0,0.0,0.0,0.0,0.0,0.0,0.0,0.0,0.0,0.0,0.0,0.0,0.0,0.0,0.0,0.0,0.4715,0.473,0.0,0.4791,0.484,0.4862,0.4862,0.4889,0.4902,0.4902,0.4902,0.4902,0.4902,0.4902,0.5002,0.5222,0.5222,0.5437,0.5866,0.5866,0.6039,0.6369,0.6454,0.6558,0.6679,0.6763,0.69,0.7031,0.6741,0.6696,0.6798,0.6798,0.6813,0.6853,0.6996,0.7067,0.7103,0.0,0.0,0.0,0.0,0.0,0.0,0.0,0.0,0.8001,0.8001,0.8001,0.8001,0.8001,0.8001,0.8001,0.8001,0.8001,0.8001,0.8001,0.8001,0.8001,0.8001,0.8001,0.8001,0.8001,0.8002,0.7827,0.7466,0.6749,0.6399,0.6399,0.6404,0.5824,0.4801,0.4801,0.4204,0.3198,0.3197,0.32,0.3103,0.203,0.1601,0.1598,0.0,0.0,0.0,0.0,0.0,0.0,0.0,0.0,0.0,0.0,0.0,0.0,0.0,0.0,0.0,0.0,0.0,0.0,0.0,0.0,0.0,0.0,0.0,0.0,0.0,0.0,0.0,0.0,0.0,0.0,0.0,0.0,0.0,0.0,0.0,0.5155,0.5289,0.5208,0.5147,0.5165,0.5212,0.5233,0.5233,0.5233,0.5287,0.5402,0.541,0.5456,0.5571,0.5571,0.5678,0.5905,0.5905,0.6152,0.6637,0.6637,0.6771,0.7039,0.7129,0.7166,0.7171,0.7259,0.7379,0.7502,0.7502,0.7594,0.7713,0.7413,0.7312,0.7345,0.7461,0.7534,0.7585,0.0,0.0,0.0,0.0,0.0,0.0,0.0,0.8001,0.8001,0.8001,0.8001,0.8001,0.8001,0.8001,0.8001,0.8001,0.8001,0.8001,0.8001,0.8001,0.8001,0.8001,0.8001,0.8001,0.8001,0.8002,0.7984,0.7946,0.6911,0.6399,0.6399,0.6404,0.5824,0.4801,0.4801,0.4204,0.3198,0.3197,0.32,0.3103,0.203,0.1601,0.1598,0.0,0.0,0.0,0.0,0.0,0.0,0.0,0.0,0.0,0.0,0.0,0.0,0.0,0.0,0.0,0.0,0.0,0.0,0.0,0.0,0.0,0.0,0.0,0.0,0.0,0.0,0.0,0.0,0.0,0.0,0.0,0.0,0.0,0.6417,0.6247,0.617,0.6301,0.6029,0.5856,0.5924,0.5932,0.5932,0.5932,0.5932,0.607,0.6395,0.6418,0.6564,0.689,0.6903,0.6903,0.6908,0.6908,0.6978,0.7118,0.7118,0.7194,0.7327,0.7332,0.7332,0.7332,0.7337,0.7557,0.7925,0.7925,0.8185,0.8513,0.7671,0.7381,0.748,0.7803,0.8005,0.8164,0.0,0.0,0.0,0.0,0.0,0.0,0.0,0.8001,0.8001,0.8001,0.8001,0.8001,0.8001,0.8001,0.8001,0.8001,0.8001,0.8001,0.8001,0.8001,0.8001,0.8001,0.8001,0.8001,0.8001,0.8002,0.7621,0.6843,0.6549,0.6399,0.6399,0.6404,0.5824,0.4801,0.4801,0.4204,0.3198,0.3197,0.32,0.3103,0.203,0.1601,0.1598,0.0,0.0,0.0,0.0,0.0,0.0,0.0,0.0,0.0,0.0,0.0,0.0,0.0,0.0,0.0,0.0,0.0,0.0,0.0,0.0,0.0,0.0,0.0,0.0,0.0,0.0,0.0,0.0,0.0,0.0,0.0,0.7277,0.7187,0.6751,0.6642,0.6639,0.6727,0.6657,0.661,0.6622,0.6622,0.6622,0.6622,0.6622,0.666,0.676,0.676,0.6806,0.6903,0.6903,0.6951,0.7046,0.7046,0.7209,0.7533,0.7533,0.7681,0.7956,0.8054,0.8099,0.8104,0.8199,0.8302,0.8408,0.8408,0.8482,0.857,0.8332,0.8252,0.8284,0.8375,0.8432,0.8481,0.0,0.0,0.0,0.0,0.0,0.0,0.0,0.8001,0.8001,0.8001,0.8001,0.8001,0.8001,0.8001,0.8001,0.8001,0.8001,0.8001,0.8001,0.8001,0.8001,0.8001,0.0,0.8001,0.8001,0.8002,0.7472,0.6396,0.64,0.6399,0.6399,0.6404,0.5824,0.4801,0.4801,0.4204,0.3198,0.3197,0.3201,0.3108,0.2035,0.1601,0.1599,0.1599,0.1598,0.1602,0.1597,0.1634,0.1684,0.1687,0.0,0.0,0.0,0.0,0.0,0.0,0.0,0.0,0.0,0.0,0.0,0.0,0.0,0.0,0.0,0.0,0.0,0.0,0.0,0.0,0.0,0.0,0.0,0.0,0.7951,0.781,0.7512,0.7231,0.7066,0.7108,0.6982,0.6903,0.6903,0.6903,0.6903,0.6903,0.6903,0.6959,0.7105,0.7105,0.7174,0.7311,0.7372,0.7443,0.752,0.755,0.7702,0.7992,0.7992,0.8124,0.8367,0.8445,0.856,0.8698,0.8773,0.8906,0.9056,0.9056,0.9056,0.9031,0.0,0.0,0.0,0.0,0.8809,0.8834,0.0,0.0,0.0,0.0,0.0,0.0,0.0,0.8001,0.8001,0.8001,0.8001,0.8001,0.8001,0.8001,0.8001,0.8001,0.8001,0.8001,0.8001,0.8001,0.8001,0.8001,0.8001,0.8001,0.8001,0.8002,0.7472,0.6396,0.64,0.6399,0.6399,0.6404,0.5828,0.4801,0.4798,0.4272,0.3372,0.3248,0.3198,0.3122,0.2197,0.1733,0.1597,0.1598,0.1609,0.1624,0.1626,0.1696,0.1801,0.1799,0.0,0.0,0.0,0.0,0.0,0.0,0.0,0.0,0.0,0.0,0.0,0.0,0.0,0.0,0.0,0.0,0.0,0.0,0.0,0.0,0.0,0.0,0.0,0.0,0.8475,0.8322,0.8439,0.7946,0.7541,0.7464,0.7197,0.7013,0.7013,0.7013,0.7013,0.7013,0.7013,0.7143,0.7436,0.0,0.0,0.0,0.0,0.8133,0.8189,0.8251,0.8366,0.8544,0.8544,0.8607,0.8723,0.8723,0.8889,0.9167,0.9167,0.9372,0.9703,0.9703,0.9703,0.9636,0.8981,0.8723,0.8765,0.9059,0.9167,0.9217,0.0,0.0,0.0,0.0,0.0,0.0,0.0,0.8001,0.8001,0.8001,0.8001,0.8001,0.8001,0.8001,0.8001,0.8001,0.8001,0.8001,0.8001,0.8001,0.8001,0.8001,0.8001,0.8001,0.8001,0.8002,0.7472,0.6396,0.64,0.6399,0.6399,0.6404,0.5829,0.4798,0.4801,0.4683,0.4435,0.3571,0.3201,0.3203,0.321,0.2566,0.1602,0.1601,0.1669,0.176,0.1764,0.1775,0.1799,0.1797,0.18,0.1969,0.2947,0.0,0.0,0.0,0.0,0.0,0.0,0.0,0.0,0.0,0.0,0.0,0.0,0.0,0.0,0.0,0.0,0.0,0.0,0.0,0.0,0.8839,0.881,0.8771,0.8801,0.8694,0.8412,0.7872,0.775,0.7704,0.7704,0.7704,0.7704,0.7704,0.7704,0.7734,0.7803,0.7903,0.7995,0.8058,0.8138,0.8359,0.8741,0.8756,0.8999,0.945,0.945,0.0,0.9486,0.9486,0.9528,0.9586,0.9586,0.9628,0.9703,0.9703,0.9703,0.9686,0.9545,0.9486,0.9495,0.9561,0.9586,0.9594,0.0,0.0,0.0,0.0,0.0,0.0,0.0,0.8001,0.8001,0.8001,0.8001,0.8001,0.8001,0.8001,0.8001,0.8001,0.8001,0.8001,0.8001,0.8001,0.8001,0.8001,0.8001,0.8001,0.8001,0.8002,0.7478,0.6399,0.6403,0.6397,0.6398,0.6403,0.5829,0.4811,0.5008,0.51,0.5026,0.3884,0.3398,0.3415,0.3545,0.3196,0.2532,0.1929,0.1741,0.1799,0.1803,0.18,0.1893,0.2498,0.2699,0.2802,0.3411,0.3603,0.3719,0.0,0.0,0.0,0.0,0.0,0.0,0.0,0.0,0.0,0.0,0.0,0.0,0.0,0.0,0.8869,0.8939,0.0,0.9274,0.9344,0.9213,0.9106,0.9106,0.8984,0.8778,0.8443,0.8399,0.8399,0.8399,0.8399,0.8399,0.8399,0.8464,0.8499,0.8499,0.8629,0.8704,0.8704,0.88,0.8958,0.9199,0.9272,0.9437,0.9703,0.9703,0.9703,0.9703,0.9703,0.9794,0.9952,0.9952,1.0052,1.0201,1.0201,1.0201,1.0201,1.0201,0.9994,0.9719,0.9886,0.9952,0.9977,0.0,0.0,0.0,0.0,0.0,0.0,0.0,0.8001,0.8001,0.8001,0.8001,0.8001,0.8001,0.8001,0.8001,0.8001,0.8001,0.8001,0.8001,0.7997,0.7997,0.7997,0.7999,0.8,0.8,0.8001,0.7579,0.6714,0.6604,0.656,0.6552,0.6552,0.6093,0.5271,0.5361,0.5401,0.5339,0.436,0.3814,0.3601,0.36,0.3603,0.3492,0.2519,0.215,0.2146,0.215,0.2153,0.23,0.3269,0.3598,0.3603,0.36,0.3761,0.4141,0.5116,0.5403,0.0,0.0,0.0,0.0,0.0,0.0,0.0,0.0,0.0,0.8181,0.8552,0.8998,0.9318,0.9318,0.9582,0.9799,0.9799,0.9571,0.9396,0.9396,0.9213,0.9075,0.9075,0.8969,0.89,0.89,0.8925,0.8937,0.8943,0.906,0.9141,0.9141,0.9263,0.9336,0.9336,0.9463,0.957,0.9635,0.9747,0.9827,0.9894,0.9894,0.9894,0.9894,0.9894,1.0043,1.0301,1.0301,1.045,1.0701,1.0701,1.0701,1.0701,1.0701,1.0376,0.9927,1.0201,1.0301,1.0342,0.0,0.0,0.0,0.0,0.0,0.0,0.0,0.0,0.8001,0.8001,0.8001,0.8001,0.8001,0.8001,0.8001,0.8001,0.8001,0.8001,0.8001,0.7996,0.7999,0.7999,0.8001,0.8001,0.8001,0.8001,0.7942,0.7823,0.7344,0.7113,0.711,0.711,0.7052,0.6887,0.5857,0.5397,0.5395,0.5252,0.4578,0.36,0.3596,0.3601,0.3586,0.3448,0.3399,0.3395,0.3402,0.3402,0.3418,0.3554,0.3603,0.36,0.3604,0.4334,0.5228,0.5361,0.0,0.5401,0.5397,0.6186,0.0,0.7388,0.7686,0.7921,0.0,0.0,0.9055,0.9112,0.9446,0.9734,0.9734,0.977,0.9799,0.9799,0.9769,0.9746,0.9746,0.9716,0.97,0.97,0.9228,0.89,0.89,0.9005,0.9072,0.9077,0.9201,0.9275,0.9275,0.9404,0.9484,0.9484,0.9611,0.9819,1.0117,1.0139,1.0293,1.0585,1.0585,1.0585,1.0585,1.0585,1.0616,1.0634,1.0634,1.0674,1.0701,1.0701,1.0701,1.0701,1.0701,1.0651,1.0585,1.0626,1.0634,1.0651,0.0,0.0,0.0,0.0,0.0,0.0,0.0,0.0,0.0,0.8001,0.8001,0.8001,0.8001,0.8,0.7996,0.7996,0.7999,0.8,0.8,0.8001,0.8157,0.8508,0.8524,0.8525,0.8525,0.8525,0.8527,0.8521,0.764,0.72,0.7198,0.7198,0.7197,0.7148,0.5941,0.5399,0.5401,0.5398,0.5105,0.4648,0.4651,0.4229,0.3597,0.3597,0.3597,0.36,0.3603,0.3603,0.0,0.3597,0.4068,0.4644,0.4648,0.499,0.5401,0.5401,0.5401,0.0,0.6256,0.0,0.0,0.0,0.7754,0.8236,0.8472,0.8878,0.9268,0.9496,0.9683,0.9799,0.9799,0.9799,0.9799,0.0,0.9799,0.9799,0.9799,0.9799,0.9833,0.9906,0.9696,0.9542,0.9542,0.9594,0.9673,0.9795,0.9918,0.9996,0.9996,1.0125,1.0201,1.0201,1.0252,1.0351,1.0485,1.0485,1.0567,1.0701,1.0701,1.0701,1.0701,1.0701,1.0701,1.0701,1.0701,1.0701,1.0701,1.0701,1.0701,1.0701,1.0701,1.0701,1.0701,1.0701,1.0701,1.0701,0.0,0.0,0.0,0.0,0.0,0.0,0.0,0.0,0.0,0.0,0.7997,0.8,0.8002,0.8,0.8072,0.8233,0.8249,0.8243,0.8243,0.8249,0.8441,0.8877,0.89,0.8894,0.8894,0.8894,0.8904,0.89,0.8071,0.7506,0.7203,0.7203,0.7201,0.7158,0.629,0.5715,0.5397,0.5398,0.5398,0.5398,0.5403,0.4875,0.4093,0.4093,0.4093,0.4093,0.4096,0.4096,0.4093,0.4093,0.4676,0.5403,0.5398,0.5401,0.5464,0.5803,0.59,0.6086,0.6966,0.0,0.0,0.7361,0.8056,0.8763,0.8941,0.9182,0.9453,0.9741,0.9799,0.9799,0.9799,0.9799,0.9799,0.9799,0.9799,0.9799,0.9799,0.9833,0.9893,0.9986,1.0047,1.0096,1.0129,1.0143,1.02,1.0339,1.0481,1.0563,1.0563,1.0655,1.0701,1.0701,1.0701,1.0701,1.0701,1.0701,1.0701,1.0701,1.0701,1.0701,1.0701,1.0701,1.0701,1.0701,1.0701,1.0701,1.0701,1.0701,1.0701,1.0701,1.0701,1.0701,1.0701,1.0701,1.0701,1.0701,0.0,0.0,0.0,0.0,0.0,0.0,0.0,0.0,0.0,0.0,0.0,0.0,0.0,0.8,0.8236,0.882,0.8873,0.8873,0.8873,0.8875,0.8885,0.8898,0.89,0.8899,0.8899,0.8899,0.8899,0.8899,0.8864,0.8283,0.7203,0.7203,0.7201,0.7198,0.7158,0.6492,0.5397,0.5397,0.5397,0.5401,0.5398,0.5382,0.5347,0.5347,0.5347,0.5347,0.5347,0.5347,0.5347,0.5347,0.5368,0.5403,0.5401,0.5397,0.0,0.6807,0.7148,0.7158,0.0,0.0,0.7306,0.777,0.8819,0.9661,0.9274,0.9496,0.9785,0.9799,0.9799,0.9799,0.9799,0.9799,0.9799,0.9799,0.9799,0.9799,0.9799,0.9912,0.9999,0.9999,1.0166,1.0347,0.0,1.048,1.0488,1.0495,1.0621,1.0686,1.0686,1.0701,1.0701,1.0701,1.0701,1.0701,1.0701,1.0701,1.0701,1.0701,1.0701,1.0701,1.0701,1.0701,1.0701,1.0701,1.0701,1.0701,1.0701,1.0701,1.0701,1.0701,1.0701,1.0701,1.0701,1.0701,1.0701,1.0701,0.0,0.0,0.0,0.0,0.0,0.0,0.0,0.0,0.0,0.0,0.0,0.0,0.0,0.0,0.0,0.0,0.8899,0.89,0.89,0.89,0.89,0.89,0.8899,0.8899,0.8899,0.8899,0.8899,0.8899,0.8899,0.8318,0.7199,0.7203,0.7196,0.7201,0.72,0.6971,0.659,0.6595,0.6135,0.5397,0.5401,0.5401,0.5401,0.5401,0.5401,0.5401,0.0,0.5401,0.5401,0.5401,0.5401,0.5401,0.5401,0.5952,0.6674,0.7082,0.7196,0.7204,0.7194,0.0,0.7902,0.891,0.9484,0.9767,0.9633,0.97,0.9799,0.9799,0.9799,0.9799,0.9799,0.9799,0.9799,0.9799,0.9879,0.9933,0.9933,1.0091,1.0228,1.0315,1.0392,0.0,0.0,0.0,0.0,1.0628,1.0674,1.0701,1.0701,1.0701,1.0701,1.0701,1.0701,1.0701,1.0701,1.0701,1.0701,1.0701,1.0701,1.0701,1.0701,1.0701,1.0701,1.0701,1.0701,1.0701,1.0701,1.0701,1.0701,1.0714,1.0799,1.0831,1.0853,1.0975,1.1033,1.1006,0.0,0.0,0.0,0.0,0.0,0.0,0.0,0.0,0.0,0.0,0.0,0.0,0.0,0.0,0.0,0.0,0.0,0.8899,0.8899,0.8899,0.8899,0.8899,0.8899,0.8899,0.8899,0.8899,0.8899,0.8899,0.8899,0.8525,0.78,0.739,0.7203,0.7203,0.7201,0.72,0.72,0.7204,0.6753,0.6047,0.604,0.604,0.604,0.604,0.604,0.0,0.604,0.6047,0.6047,0.604,0.604,0.604,0.6047,0.6573,0.7199,0.72,0.732,0.7545,0.8001,0.835,0.8772,0.9597,0.9805,0.9798,0.9799,0.9799,0.9799,0.9799,0.9799,0.9799,0.9799,0.9799,0.9813,0.9859,0.9946,1.0027,1.0104,1.0263,1.04,1.0488,1.0541,1.0609,0.0,0.0,0.0,1.0686,1.0701,1.0701,1.0701,1.0701,1.0701,1.0701,1.0701,1.0701,1.0701,1.0701,1.0701,1.0701,1.0701,1.0701,1.0701,1.0701,1.0701,1.0699,1.0753,1.0765,1.078,1.0845,1.088,1.0887,1.0972,1.1006,1.1019,1.1148,1.12,1.1172,0.0,0.0,0.0,0.0,0.0,0.0,0.0,0.0,0.0,0.0,0.0,0.0,0.0,0.0,0.0,0.0,0.0,0.0,0.8899,0.8899,0.8899,0.8899,0.8899,0.8899,0.8899,0.8899,0.8899,0.8899,0.8899,0.8899,0.8878,0.7792,0.7258,0.7203,0.7203,0.7203,0.7203,0.72,0.72,0.7205,0.7197,0.7202,0.7202,0.7202,0.7202,0.7202,0.7202,0.7204,0.7198,0.7197,0.7201,0.0,0.7202,0.7203,0.7209,0.7232,0.7599,0.8261,0.9472,0.9796,0.9801,0.9802,0.9798,0.9799,0.9799,0.9799,0.9799,0.9799,0.9799,0.9799,0.0,0.0,0.986,0.9979,1.0005,1.0089,1.0278,1.0428,1.0515,0.0,0.0,0.0,0.0,0.0,0.0,1.0701,0.0,1.0701,1.0701,1.0701,1.0701,1.0701,1.0701,1.0701,1.0701,1.0701,1.0701,1.0701,1.0714,1.0706,1.0706,1.0721,1.0728,1.0735,1.086,1.0919,1.0926,1.1113,1.12,1.12,1.1206,1.1206,1.1206,1.122,1.122,1.122,0.0,0.0,0.0,0.0,0.0,0.0,0.0,0.0,0.0,0.0,0.0,0.0,0.0,0.0,0.0,0.0,0.0,0.0,0.8899,0.8899,0.8899,0.8899,0.8899,0.8899,0.8899,0.8899,0.8899,0.8899,0.8899,0.8899,0.8899,0.8602,0.8014,0.7199,0.7203,0.7203,0.7203,0.7201,0.7201,0.7201,0.7201,0.7201,0.7201,0.7201,0.7201,0.7201,0.7201,0.7201,0.0,0.0,0.0,0.0,0.0,0.7197,0.7272,0.7621,0.8473,0.9384,0.971,0.9804,0.9804,0.98,0.9799,0.9799,0.9799,0.9799,0.9799,0.9799,0.9799,0.9799,0.0,0.0,0.0,1.0,1.0212,0.0,1.0441,1.056,0.0,1.0655,0.0,1.0701,1.0701,1.0701,0.0,0.0,1.0701,1.0701,1.0701,1.0701,1.0701,1.0701,1.0701,1.0701,1.0701,1.0701,1.0701,1.0699,1.0799,1.0852,1.0852,1.1002,1.1067,1.1067,1.1108,1.1113,1.1128,1.1186,1.12,1.1206,1.1313,1.1352,1.1357,1.1463,1.1504,1.1504,0.0,0.0,0.0,0.0,0.0,0.0,0.0,0.0,0.0,0.0,0.0,0.0,0.0,0.0,0.0,0.0,0.0,0.0,0.0,0.8899,0.8899,0.8899,0.8899,0.8899,0.8899,0.8899,0.8899,0.8899,0.8899,0.8899,0.8899,0.8899,0.856,0.7946,0.7944,0.7667,0.7197,0.7197,0.7197,0.0,0.0,0.7197,0.7197,0.7197,0.7197,0.7197,0.7197,0.0,0.0,0.0,0.0,0.7234,0.744,0.7892,0.8394,0.8659,0.0,0.9795,0.9801,0.9806,0.9799,0.9799,0.9799,0.9799,0.9799,0.9799,0.9799,0.9799,0.9801,0.0,0.0,0.0,0.0,0.0,0.0,0.0,1.0582,1.0647,1.0701,0.0,1.0701,0.0,1.0701,1.0701,1.0701,0.0,1.0701,1.0701,1.0701,1.0701,1.0701,1.0701,1.0701,1.0726,1.0786,1.0786,1.0828,1.0922,1.1002,1.1026,1.1034,1.115,1.12,1.12,1.1259,1.1286,1.1293,1.1352,1.1379,1.1377,1.1457,1.1491,1.1504,1.1568,1.1602,1.1602,0.0,0.0,0.0,0.0,0.0,0.0,0.0,0.0,0.0,0.0,0.0,0.0,0.0,0.0,0.0,0.0,0.0,0.0,0.0,0.0,0.0,0.8899,0.8899,0.8899,0.8899,0.8899,0.8899,0.8899,0.8899,0.8899,0.8899,0.8899,0.8899,0.8899,0.8898,0.8352,0.7428,0.7428,0.7428,0.7428,0.7428,0.7428,0.7428,0.0,0.7425,0.0,0.0,0.0,0.0,0.0,0.8367,0.7617,0.8022,0.8913,0.9801,0.9802,0.9802,0.9805,0.9799,0.9799,0.9799,0.9799,0.9799,0.9799,0.9799,0.9799,0.9806,0.9803,0.0,0.9827,0.9909,1.006,1.0232,1.0377,0.0,1.0568,1.0687,1.0701,1.0701,1.0701,1.0701,1.0701,1.0701,1.0701,1.0701,1.0701,1.0701,1.0701,1.0701,1.0701,1.0714,1.0735,1.0735,1.0801,1.0941,1.0941,1.1028,1.12,1.122,1.1227,1.1227,1.1239,1.1252,1.1259,1.1379,1.1432,1.1438,1.1547,1.1602,1.1602,1.1602,1.1602,1.1602,1.1602,1.1602,1.1602,0.0,0.0,0.0,0.0,0.0,0.0,0.0,0.0,0.0,0.0,0.8899,0.0,0.0,0.0,0.0,0.0,0.0,0.0,0.0,0.0,0.0,0.0,0.8899,0.8899,0.8899,0.8899,0.8899,0.8899,0.8899,0.8899,0.8899,0.8899,0.8899,0.8899,0.8899,0.8788,0.8608,0.8608,0.8608,0.8608,0.8608,0.8608,0.8608,0.8608,0.0,0.0,0.0,0.0,0.0,0.0,0.9512,0.9366,0.9446,0.9627,0.9802,0.9803,0.9802,0.9799,0.9799,0.9799,0.9799,0.9799,0.9799,0.9799,0.9799,0.9799,0.0,0.0,0.9801,0.9954,1.0451,1.0573,1.0547,1.0422,0.0,0.0,0.0,0.0,1.0701,0.0,0.0,0.0,0.0,0.0,0.0,0.0,1.0701,1.0701,1.0701,1.0701,1.0753,1.0865,1.0865,1.0965,1.115,1.115,1.1172,1.12,1.1311,1.1366,1.1372,1.1484,1.1529,1.1536,1.1556,1.157,1.1577,1.1588,1.1602,1.1602,1.1602,1.1602,1.1602,1.1602,1.1602,1.1602,0.0,0.0,0.0,0.0,0.0,0.0,0.0,0.0,0.0,0.0,0.9838,0.9603,0.0,0.0,0.0,0.0,0.0,0.0,0.0,0.0,0.0,0.0,0.0,0.0,0.8899,0.8899,0.8899,0.8899,0.0,0.8899,0.8899,0.8899,0.8899,0.8899,0.8899,0.8899,0.8899,0.8905,0.8898,0.8898,0.8896,0.8901,0.0,0.0,0.0,0.0,0.0,0.0,0.0,0.0,0.9802,0.9795,0.9795,0.9805,0.9798,0.9799,0.9799,0.9799,0.9799,0.9799,0.9799,0.9799,0.9799,0.9799,0.9799,0.0,0.0,0.0,1.005,1.0359,1.065,0.0,0.0,0.0,0.0,0.0,0.0,0.0,0.0,0.0,0.0,0.0,0.0,0.0,0.0,0.0,1.0759,1.0772,1.0699,1.0774,1.0882,1.1048,1.1056,1.114,1.1298,1.1298,1.1339,1.1411,1.1468,1.1502,1.1511,1.1568,1.1602,1.1602,1.1602,1.1602,1.1602,1.1602,1.1602,1.1602,1.1602,1.1602,1.1602,1.1602,1.1602,1.1602,0.0,0.0,0.0,0.0,0.0,0.0,0.0,1.0693,1.0693,1.0693,1.0693,1.0341,0.9389,0.9051,0.8899,0.0,0.0,0.0,0.0,0.0,0.0,0.0,0.0,0.0,0.0,0.0,0.0,0.8899,0.8899,0.0,0.0,0.0,0.0,0.0,0.8898,0.8897,0.8904,0.8896,0.8896,0.0,0.0,0.8971,0.0,0.0,0.0,0.0,0.0,0.0,0.0,0.0,0.9799,0.9799,0.9799,0.9799,0.9799,0.9799,0.9799,0.9799,0.9799,0.9799,0.9799,0.9799,0.9799,0.9798,0.9802,0.9796,0.0,0.0,1.0371,1.0702,1.0704,0.0,0.0,0.0,1.0701,0.0,0.0,0.0,0.0,0.0,0.0,0.0,0.0,0.0,0.0,0.0,1.0882,1.0916,1.0811,1.0911,1.1055,1.124,1.1239,1.1313,1.1436,1.1443,1.1497,1.1602,1.1602,1.1602,1.1602,1.1602,1.1602,1.1602,1.1602,1.1602,1.1602,1.1602,1.1602,1.1602,1.1602,1.1622,1.164,1.164,1.1669,1.1705,0.0,0.0,0.0,0.0,0.0,0.0,0.0,1.0703,1.0703,1.0703,1.0703,1.0655,1.0546,0.9554,0.8899,0.0,0.0,0.0,0.0,0.0,0.0,0.0,0.0,0.0,0.0,0.0,0.0,0.8899,0.8899,0.0,0.0,0.0,0.0,0.0,0.0,0.8897,0.8904,0.89,0.0,0.0,0.0,0.0,0.0,0.0,0.0,0.0,0.0,0.0,0.0,0.0,0.0,0.9799,0.9799,0.9799,0.9799,0.9799,0.0,0.0,0.9799,0.9799,0.9799,0.9799,0.9799,0.9803,0.9798,0.0,0.0,1.0503,1.0658,1.0704,1.0701,0.0,0.0,0.0,1.0701,1.0701,0.0,0.0,0.0,0.0,0.0,0.0,0.0,0.0,0.0,1.0863,1.1063,1.1172,1.115,1.1172,1.1239,1.1379,1.1377,1.1452,1.1581,1.1581,1.1588,1.1602,1.1602,1.1602,1.1602,1.1602,1.1602,1.1602,1.1602,1.1602,1.1602,1.1602,1.1602,1.1602,1.1602,1.1674,1.1782,1.1782,1.1898,1.2048,0.0,0.0,0.0,0.0,0.0,0.0,0.0,1.0695,1.0695,1.0695,1.0695,1.0703,1.0696,1.0271,0.9693,0.0,0.0,0.0,0.0,0.0,0.0,0.0,0.0,0.0,0.0,0.0,0.0,0.8906,0.8906,0.0,0.0,0.0,0.0,0.0,0.0,0.9107,0.9443,0.9441,0.0,0.0,0.0,0.0,0.0,0.0,0.0,0.0,0.0,0.0,0.0,0.0,0.0,0.0,0.9799,0.9799,0.0,0.0,0.9799,0.9799,0.9799,0.9799,0.9799,0.9799,0.9806,0.9802,0.9799,0.0,1.0407,1.0651,1.0699,1.0699,1.0702,1.0701,1.0701,1.0701,1.0701,1.0701,1.0701,0.0,0.0,0.0,0.0,0.0,0.0,0.0,0.0,1.1182,1.1275,1.1359,1.1445,1.1357,1.1377,1.1525,1.1522,1.1549,1.1602,1.1602,1.1602,1.1602,1.1602,1.1602,1.1602,1.1602,1.1602,1.1602,1.1602,1.1649,1.1721,1.1721,1.1793,1.1902,1.1902,1.1927,1.1981,1.1981,1.2025,1.2098,0.0,0.0,0.0,0.0,0.0,0.0,1.0695,1.0695,1.0695,1.0695,1.0695,1.0695,1.0695,1.0699,1.0213,0.9002,0.0,0.0,0.0,0.0,0.0,0.0,0.0,0.0,0.0,0.0,0.0,0.0,0.0,0.9164,0.0,0.0,0.9164,0.9164,0.0,0.0,0.0,0.0,0.0,0.0,0.0,0.0,0.0,0.0,0.0,0.0,0.0,0.0,0.0,0.0,0.0,0.0,0.0,0.0,0.0,0.0,0.9799,0.9799,0.9799,0.9799,0.9798,0.98,0.9795,0.9848,0.0,0.0,1.0694,1.0701,1.0699,1.0701,1.0701,1.0701,1.0701,1.0701,1.0701,1.0701,1.0701,1.0701,0.0,0.0,0.0,0.0,0.0,0.0,1.1148,1.1384,1.1445,1.1495,1.1586,1.1509,1.1502,1.1595,1.1602,1.1602,1.1602,1.1602,1.1602,1.1602,1.1602,1.1602,1.1602,1.1633,1.1662,1.166,1.1719,1.18,1.1888,1.1888,1.1975,1.2098,1.2098,1.2116,1.2156,1.2156,1.2174,1.2218,0.0,0.0,0.0,0.0,0.0,0.0,0.0,1.0695,1.0695,1.0695,1.0695,1.0695,1.0695,1.0699,1.021,0.9004,0.0,0.0,0.0,0.0,0.0,0.0,0.0,0.0,0.0,0.0,0.0,0.0,0.0,0.0,0.0,0.9794,0.9794,0.9794,0.0,0.0,0.0,0.0,0.0,0.0,0.0,0.0,0.0,0.0,0.0,0.0,0.0,0.0,0.0,0.0,0.0,0.0,0.0,0.9799,0.9799,0.0,0.9799,0.9799,0.9799,0.9799,0.9803,0.9804,0.9798,0.9956,0.0,0.0,1.0704,1.0707,1.0701,1.0701,1.0701,1.0701,1.0701,1.0701,1.0701,1.0701,1.0701,1.0701,0.0,0.0,0.0,0.0,0.0,0.0,1.1398,1.1398,1.1522,0.0,1.1602,1.1602,1.1602,1.1602,1.1602,1.1602,1.1602,1.1602,1.1602,1.1602,1.1602,1.1602,1.1599,1.1735,1.1802,1.1809,1.2011,1.2098,1.2098,1.2098,1.2098,1.2098,1.2098,1.2184,1.2301,1.2301,1.2379,1.2494,0.0,0.0,0.0,0.0,0.0,0.0,0.0,1.0695,1.0695,1.0695,1.0695,1.0695,1.0695,1.0701,1.0207,0.9003,0.0,0.0,0.0,0.0,0.0,0.0,0.0,0.0,0.0,0.0,0.0,0.0,0.0,0.0,0.0,0.0,0.0,0.9799,0.9802,0.0,0.0,0.0,0.0,0.0,0.0,0.0,0.0,0.0,0.0,0.0,0.0,0.0,0.0,0.0,0.0,0.0,0.0,0.0,0.0,0.9799,0.9799,0.9799,0.9799,0.9805,0.9799,0.9799,1.0115,1.0466,1.0659,0.0,1.0696,1.0702,1.0701,1.0701,1.0701,1.0701,1.0701,1.0701,1.0701,1.0701,1.0701,0.0,0.0,0.0,0.0,0.0,0.0,0.0,1.1536,1.1536,1.1583,1.1602,1.1602,1.1602,1.1602,1.1602,1.1602,1.1602,1.1602,1.1602,1.1649,1.1735,1.1735,1.1807,1.1943,1.1984,1.2004,1.2011,1.2068,1.215,1.2235,1.2235,1.2296,1.2375,1.2375,1.2402,1.2443,1.2443,1.2461,1.2501,0.0,0.0,0.0,0.0,0.0,0.0,0.0,1.0695,1.0695,1.0695,1.0695,1.0748,1.087,1.0691,1.02,0.9314,0.0,0.0,0.0,0.0,0.0,0.0,0.0,0.0,0.0,0.0,0.0,0.0,0.0,0.0,0.0,0.0,0.0,0.0,0.0,0.0,0.0,0.0,0.0,0.0,0.0,0.0,0.9799,0.0,0.0,0.0,0.0,0.0,0.0,0.0,0.0,0.0,0.0,0.0,0.0,0.0,0.9802,0.9796,0.9796,0.9802,0.9855,1.0078,1.0422,0.0,0.0,0.0,1.0701,1.0701,1.0701,1.0701,1.0701,1.0701,1.0701,1.0701,1.0701,1.0701,1.0701,0.0,0.0,0.0,0.0,0.0,0.0,1.1556,1.1602,1.1602,1.1602,1.1602,1.1602,1.1602,1.162,1.1667,1.1629,1.162,1.1674,1.1683,1.1766,1.1909,1.1909,1.1975,1.2098,1.215,1.2177,1.2177,1.2231,1.2303,0.0,1.2382,1.242,1.2501,1.2501,1.2501,1.2501,1.2501,1.2501,1.2501,0.0,0.0,0.0,0.0,0.0,0.0,0.0,0.0,0.0,0.0,1.0695,1.0809,1.1111,1.0657,1.019,0.0,0.0,0.0,0.0,0.0,0.0,0.0,0.0,0.0,0.0,0.0,0.0,0.9799,0.9799,0.9799,0.9799,0.0,0.0,0.0,0.0,0.0,0.0,0.0,0.0,0.0,0.9799,0.9799,0.0,0.0,0.0,0.0,0.0,0.0,0.0,0.0,0.0,0.0,0.0,0.0,0.0,0.0,0.0,0.0,0.0,0.9864,1.0,1.0563,1.0702,1.0703,1.0698,0.0,0.0,1.0701,1.0701,1.0701,1.0701,1.0701,1.0701,1.0701,1.0701,1.0701,1.0701,1.0826,0.0,0.0,0.0,0.0,1.1588,1.1602,1.1602,1.1602,1.1602,1.1593,1.1606,1.1606,1.1683,1.1816,1.1703,1.1696,1.1816,1.1816,1.1915,1.2109,1.2109,1.2118,1.2129,1.2262,1.2305,1.2321,1.2447,1.2501,1.2501,1.2501,1.2501,1.2501,1.2501,1.2501,1.2501,1.2501,1.2501,1.2501,0.0,0.0,0.0,0.0,0.0,0.0,0.0,0.0,0.0,0.0,1.0695,1.0671,1.0596,1.0638,1.0439,0.0,0.0,0.0,0.0,0.0,0.0,0.0,0.0,0.0,0.0,0.0,0.0,0.9799,0.9799,0.9799,0.9799,0.9799,0.0,0.0,0.0,0.0,0.0,0.0,0.0,0.0,0.9799,0.9799,0.0,0.0,0.0,0.0,0.9799,0.9799,0.0,0.0,0.0,0.0,0.0,0.0,0.0,0.0,0.9793,0.9902,1.036,0.0,1.0518,1.0658,1.0696,1.0701,0.0,0.0,0.0,0.0,0.0,1.0701,1.0701,1.0701,1.0701,1.0701,1.0701,1.0701,1.0701,0.0,0.0,0.0,0.0,0.0,1.1595,1.1602,1.1602,1.1602,1.1602,1.164,1.1748,1.1755,1.1841,1.2025,1.2,1.2,1.2025,1.2025,1.2106,1.2256,1.2256,1.231,1.2409,1.2443,1.2454,1.2454,1.2488,1.2501,1.2501,1.2501,1.2501,1.2501,1.2501,1.2501,1.2501,1.2501,1.2501,1.2501,0.0,0.0,0.0,0.0,0.0,0.0,0.0,0.0,0.0,0.0,0.0,0.0,0.0,0.0,0.0,0.0,0.0,0.0,0.0,0.0,0.0,0.0,0.0,0.0,0.0,0.0,0.0,0.0,0.0,0.9799,0.0,0.0,0.0,0.0,0.0,0.0,0.0,0.0,0.0,0.0,0.9799,0.0,0.0,0.0,0.0,0.0,0.9799,0.9799,0.0,0.9799,0.9799,0.9799,0.0,0.0,0.0,0.0,0.9801,0.9929,1.0544,1.0697,1.0701,1.0696,1.0704,1.0701,1.0701,0.0,0.0,0.0,0.0,0.0,1.0701,1.0701,1.0701,1.0701,1.0701,1.0732,0.0,0.0,0.0,0.0,0.0,1.1602,0.0,1.1602,1.1602,1.1602,1.1662,1.1721,1.1802,1.1888,1.2015,1.219,1.2188,1.2188,1.2188,1.2188,1.2262,1.2386,1.2386,1.2427,1.2501,1.2501,1.2501,1.2501,1.2501,1.2501,1.2501,1.2501,1.2501,1.2501,1.2501,1.2501,1.2508,1.2573,1.259,1.2597,0.0,0.0,0.0,0.0,0.0,0.0,0.0,0.0,0.0,0.0,0.0,0.0,0.0,0.0,0.0,0.0,0.0,0.0,0.0,0.0,0.0,0.0,0.0,0.0,0.0,0.0,0.0,0.0,0.0,0.0,0.0,0.0,0.9799,0.0,0.0,0.0,0.0,0.0,0.0,0.0,0.9799,0.0,0.0,0.0,0.0,0.0,0.0,0.0,0.0,0.9799,0.9799,0.9799,0.9799,0.0,0.0,0.0,0.0,0.0,1.0557,1.0701,1.07,1.0698,1.0701,1.0701,1.0701,0.0,0.0,0.0,0.0,0.0,0.0,0.0,0.0,0.0,0.0,0.0,0.0,0.0,0.0,0.0,1.1602,0.0,1.1602,1.1602,1.1608,1.1629,1.1744,1.1823,1.187,1.2045,1.2197,1.2328,1.2334,1.2334,1.2334,1.2334,1.2396,1.2501,1.2501,1.2501,1.2501,1.2501,1.2501,1.2501,1.2501,1.2501,1.2501,1.2501,1.2505,1.2526,1.2526,1.2549,1.2589,1.2699,1.2746,1.2766,0.0,0.0,0.0,0.0,0.0,0.0,0.0,0.0,0.0,0.0,0.0,0.0,0.0,0.0,0.0,0.0,0.0,0.0,0.0,0.0,0.0,0.0,0.0,0.0,0.0,0.0,0.0,0.0,0.0,0.0,0.9799,0.9799,0.9799,0.0,0.0,0.0,0.0,0.0,0.0,0.9799,0.9799,0.0,0.0,0.0,0.0,0.0,0.0,0.0,0.0,0.9799,0.9799,0.9799,0.9799,0.0,0.0,0.0,0.0,0.0,1.0672,1.0695,1.0698,1.0701,1.0701,1.0701,0.0,0.0,0.0,0.0,0.0,0.0,0.0,0.0,0.0,0.0,0.0,0.0,0.0,0.0,0.0,1.1581,0.0,1.1602,1.1602,1.1602,1.1649,1.1762,1.1789,1.1917,1.2203,1.2253,1.2328,1.2477,1.2467,1.2467,1.2467,1.2467,1.2481,1.2501,1.2501,1.2501,1.2501,1.2501,1.2501,1.2501,1.2501,1.2501,1.2501,1.2501,1.2566,1.2669,1.2669,1.2773,1.2935,1.2945,1.2949,1.2969,0.0,0.0,0.0,0.0,0.0,0.0,0.0,0.0,0.0,0.0,0.0,0.0,0.0,0.0,0.0,0.0,0.0,0.0,0.0,0.0,0.0,0.0,0.0,0.0,0.0,0.0,0.0,0.0,0.0,0.9799,0.9799,0.9799,0.9799,0.9799,0.0,0.0,0.0,0.0,0.9799,0.9799,0.0,0.0,0.0,0.0,0.0,0.0,0.0,0.0,0.0,0.0,0.9802,0.9989,1.108,0.0,0.0,0.0,0.0,0.0,1.0809,1.0697,1.0702,1.0701,1.0701,0.0,0.0,0.0,0.0,0.0,0.0,0.0,0.0,0.0,0.0,0.0,0.0,0.0,0.0,0.0,1.1529,0.0,0.0,1.1602,1.1602,1.1669,1.1735,1.1796,1.1967,1.2142,1.2294,1.2375,1.2443,1.2501,1.2501,1.2501,1.2501,1.2501,1.2501,1.2501,1.2501,1.2501,1.2501,1.2501,1.2501,1.2498,1.258,1.2614,1.262,1.2728,1.2813,1.2864,1.2864,1.2921,1.3009,1.3081,1.3146,1.3217,0.0,0.0,0.0,0.0,0.0,0.0,0.0,0.0,0.0,0.0,0.0,0.0,0.0,0.0,0.0,0.0,0.0,0.0,0.0,0.0,0.0,0.0,0.0,0.0,0.0,0.0,0.9799,0.9799,0.9799,0.9799,0.9799,0.9799,0.9799,0.0,0.0,0.0,0.0,0.9799,0.9799,0.9799,0.0,0.0,0.0,0.0,0.0,0.0,0.0,0.0,0.0,0.0,0.0,0.0,0.0,0.0,0.0,1.2178,1.2038,1.1913,1.1344,1.1083,1.0959,1.0958,0.0,0.0,0.0,0.0,0.0,0.0,0.0,0.0,0.0,0.0,0.0,0.0,0.0,0.0,0.0,1.1598,1.1602,1.1602,1.1602,1.1615,1.164,1.1741,1.1836,1.1904,1.2146,1.2314,1.2348,1.244,1.2501,1.2501,1.2501,1.2501,1.2501,1.2501,1.2501,1.2501,1.2501,1.2501,1.2501,1.2526,1.2556,1.2562,1.2709,1.2776,1.2783,1.2938,1.3023,1.305,1.305,1.3071,1.3108,1.3207,1.3312,1.3403,0.0,0.0,0.0,0.0,0.0,0.0,0.0,0.0,0.0,0.0,0.0,0.0,0.0,0.0,0.0,0.0,0.0,0.0,0.0,0.0,0.0,0.0,0.0,0.0,0.0,0.9799,0.9799,0.9799,0.9799,0.9799,0.9799,0.9799,0.9799,0.9799,0.0,0.0,0.0,0.9799,0.9799,0.9799,0.9799,0.0,0.0,0.0,0.0,0.0,0.0,0.0,0.0,0.0,0.0,0.0,0.0,0.0,1.279,1.2742,1.2726,1.2716,1.2666,1.2196,1.1719,1.1719,0.0,0.0,0.0,0.0,0.0,0.0,0.0,0.0,0.0,0.0,0.0,0.0,0.0,1.1602,1.1603,0.0,1.1602,1.1602,1.1602,1.1656,1.1766,1.1786,1.1933,1.2237,1.2287,1.2345,1.2481,1.2485,1.2501,1.2501,1.2501,1.2501,1.2501,1.2501,1.2501,1.2501,1.2501,1.2501,1.2498,1.2631,1.2692,1.2699,1.2884,1.2972,1.2972,1.2986,1.3067,1.319,1.319,1.3268,1.337,1.3383,1.339,1.3403,0.0,0.0,0.0,0.0,0.0,0.0,0.0,0.0,0.0,0.0,0.0,0.0,0.0,0.0,0.0,0.0,0.0,0.0,0.0,0.0,0.0,0.0,0.0,0.9799,0.9799,0.9799,0.9799,0.9799,0.9799,0.9799,0.9799,0.9799,0.0,0.0,0.0,0.0,0.0,0.0,0.9921,1.011,1.011,1.0391,0.0,0.0,0.0,0.0,0.0,0.0,0.0,0.0,1.22,1.2341,1.2551,1.2699,1.2807,1.28,1.28,1.2749,1.2551,1.2296,1.209,1.2007,0.0,0.0,0.0,0.0,0.0,0.0,0.0,0.0,0.0,0.0,0.0,0.0,0.0,1.1596,1.1604,1.1602,1.1602,1.1602,1.1667,1.1739,1.1796,1.1997,1.2162,1.2294,1.2382,1.2447,1.2501,1.2501,1.2501,1.2501,1.2501,1.2501,1.2501,1.2577,1.2624,1.2624,1.2624,1.2624,1.2631,1.2816,1.2894,1.2901,1.3061,1.3122,1.3129,1.3203,1.3278,1.3326,1.3326,1.3359,1.3403,1.3403,1.3403,1.3403,0.0,0.0,0.0,0.0,0.0,0.0,0.0,0.0,0.0,0.0,0.0,0.0,0.0,0.0,0.0,0.0,0.0,0.0,0.0,0.0,0.0,0.0,0.0,0.9799,0.9799,0.9799,0.9799,0.9799,0.9799,0.9799,0.9799,0.0,0.0,0.0,0.0,0.0,0.0,0.0,0.0,1.0315,1.0421,1.0664,0.0,0.0,0.0,0.0,0.0,0.0,0.0,0.0,1.2569,1.2752,1.2981,1.3097,1.3149,1.3152,1.3071,1.2939,1.2717,1.2552,1.2444,0.0,0.0,0.0,0.0,0.0,0.0,0.0,0.0,0.0,0.0,0.0,0.0,0.0,1.1596,1.1602,1.1602,1.1602,1.1615,1.1662,1.1741,1.1843,1.1947,1.2169,1.2321,1.2362,1.2447,1.2501,1.2501,1.2501,1.2501,1.2501,1.2539,1.2566,1.2566,1.2715,1.279,1.28,1.2837,1.2837,1.2797,1.2976,1.3061,1.3067,1.32,1.3268,1.3275,1.3356,1.3403,1.3403,1.3403,1.3403,1.3403,1.3403,1.3403,1.3403,0.0,0.0,0.0,0.0,0.0,0.0,0.0,0.0,0.0,0.0,0.0,0.0,0.0,0.0,0.0,0.0,0.0,0.0,0.0,0.9799,0.9799,0.9799,0.9799,0.9799,0.9799,0.9799,0.9799,0.9799,0.9799,0.9799,0.9799,0.9799,0.0,0.0,0.0,0.0,0.0,0.0,0.0,0.0,1.0671,1.1004,1.1299,0.0,0.0,0.0,0.0,0.0,0.0,0.0,1.3166,1.3602,1.3602,1.3734,1.3899,1.3899,1.3662,1.34,1.34,1.3112,0.0,0.0,0.0,0.0,0.0,0.0,0.0,0.0,0.0,0.0,0.0,0.0,0.0,1.1601,1.1602,1.1602,1.1602,1.1602,1.1647,1.178,1.1793,1.1933,1.2267,1.2301,1.2362,1.2488,1.2501,1.2501,1.2501,1.2501,1.2501,1.2501,1.2631,1.2702,1.2702,1.2898,1.3003,1.3003,1.3135,1.3129,1.3009,1.3142,1.3203,1.3217,1.3336,1.3403,1.3403,1.3403,1.3403,1.3403,1.3403,1.3403,1.3403,1.3403,1.3403,1.3403,0.0,0.0,0.0,0.0,0.0,0.0,0.0,0.0,0.0,0.0,0.0,0.0,0.0,0.0,0.0,0.0,0.0,0.0,0.0,0.9799,0.9799,0.9799,0.9799,0.9799,0.9799,0.9799,0.9799,0.9799,0.9799,0.9799,0.9799,0.0,0.0,0.9799,0.0,0.0,0.0,0.0,0.0,0.0,1.1103,1.1345,1.1647,0.0,0.0,0.0,0.0,0.0,0.0,0.0,0.0,0.0,1.3812,1.3847,1.3899,1.3899,1.3834,1.3752,1.3752,1.3662,0.0,0.0,0.0,0.0,0.0,0.0,0.0,0.0,0.0,0.0,0.0,0.0,0.0,1.1603,1.1599,1.1597,1.1597,1.18,1.1908,1.1805,1.201,1.2189,1.2294,1.2389,1.2454,1.2501,1.2501,1.2501,1.2501,1.2501,1.2539,1.2638,1.2675,1.277,1.2915,1.3057,1.3142,1.3142,1.3282,1.3264,1.3142,1.3278,1.3346,1.3336,1.3383,1.3403,1.3403,1.3403,1.3403,1.3403,1.3403,1.3403,1.3403,1.3403,1.3403,1.3403,0.0,0.0,0.0,0.0,0.0,0.0,0.0,0.0,0.0,0.0,0.9719,0.9799,0.0,0.0,0.0,0.0,0.0,0.0,0.0,0.0,0.9799,0.9799,0.9799,0.9799,0.9799,0.9799,0.9799,0.9799,0.9799,0.9799,0.0,0.0,0.0,1.0004,0.0,1.0186,0.0,0.0,1.0929,1.1307,1.145,1.1748,1.2118,0.0,0.0,0.0,0.0,0.0,0.0,0.0,0.0,0.0,1.4539,1.4539,1.4539,1.4539,1.4334,1.4096,1.4096,0.0,0.0,0.0,0.0,0.0,0.0,0.0,0.0,0.0,0.0,0.0,0.0,1.2514,0.0,1.2516,1.2511,1.2304,1.1691,1.2161,1.2505,1.2298,1.2426,1.2559,1.2605,1.255,1.2501,1.2501,1.2501,1.2501,1.2501,1.2553,1.2617,1.2696,1.2827,1.2959,1.3084,1.3214,1.3282,1.3282,1.3356,1.3359,1.3278,1.3356,1.3403,1.3403,1.3403,1.3403,1.3403,1.3403,1.3403,1.3403,1.3403,1.3403,1.3403,1.3403,1.3427,1.3481,0.0,0.0,0.8899,0.8899,0.0,0.0,0.0,0.0,0.0,0.0,0.9725,0.9799,0.0,0.0,0.0,0.0,0.0,0.0,0.0,0.0,0.9799,0.9799,0.9799,0.9799,0.9799,0.9799,0.9799,0.9799,0.9799,0.9799,0.0,0.0,1.0012,1.03,0.0,1.0528,1.0876,1.1171,1.1322,1.1391,1.174,1.2173,1.2625,1.2656,0.0,0.0,0.0,0.0,0.0,0.0,0.0,0.0,1.5544,1.5544,1.5544,1.5544,1.5062,1.4555,1.4555,0.0,0.0,0.0,0.0,0.0,0.0,0.0,0.0,0.0,0.0,1.386,1.3885,1.3901,1.3901,1.3901,1.3901,1.341,1.2012,1.2728,1.3316,1.3113,1.3021,1.302,1.3134,1.282,1.2588,1.2559,1.255,1.2537,1.2522,1.2638,1.2716,1.2736,1.304,1.321,1.3224,1.3339,1.3403,1.3403,1.3403,1.3403,1.3403,1.3403,1.3403,1.3403,1.3403,1.3403,1.3403,1.3403,1.3403,1.3414,1.3459,1.3479,1.3486,1.35,1.3595,1.3679,0.0,0.0,0.8899,0.8899,0.0,0.0,0.0,0.0,0.0,0.0,0.0,0.0,0.0,0.0,0.0,0.0,0.0,0.0,0.0,0.0,0.9799,0.9799,0.9799,0.9799,0.9799,0.9799,0.9799,0.9799,0.9799,0.0,0.0,0.0,0.0,1.0315,0.0,1.0876,1.1193,1.1277,1.1514,1.1879,1.2271,1.2565,1.2788,1.3046,1.3484,0.0,0.0,0.0,0.0,0.0,0.0,0.0,1.5893,1.5893,1.5893,1.5893,1.5779,1.5665,0.0,1.5412,0.0,0.0,0.0,0.0,0.0,0.0,0.0,0.0,1.3397,1.3588,1.3849,1.3897,1.3903,1.3903,1.3902,1.3781,1.3456,1.3844,1.4053,1.3742,1.3597,1.3536,1.3573,1.3486,1.3312,1.2984,1.2965,1.2886,1.2671,1.2682,1.2814,1.3081,1.3159,1.3248,1.3359,1.3383,1.3403,1.3403,1.3403,1.3403,1.3403,1.3403,1.3403,1.3403,1.3403,1.3403,1.3403,1.3403,1.3403,1.3452,1.3923,1.4111,1.4133,1.4281,1.4355,1.4319,0.0,0.0,0.0,0.0,0.0,0.0,0.0,0.0,0.0,0.0,0.0,0.0,0.0,0.0,0.0,0.0,0.0,0.0,0.0,0.0,0.0,0.9799,0.9799,0.9799,0.9799,0.9959,1.0042,1.0042,1.0201,0.0,0.0,0.0,0.0,1.0785,0.0,1.1231,1.1557,1.1812,1.2062,1.2329,1.2801,1.3159,1.346,1.3824,1.4303,1.482,1.519,0.0,0.0,0.0,0.0,0.0,0.0,0.0,1.6242,1.6242,1.6128,1.5998,0.0,0.0,0.0,0.0,0.0,0.0,0.0,0.0,0.0,1.4815,1.4155,1.3695,1.3872,1.3897,1.3897,1.3897,1.3905,1.3895,1.39,1.435,1.4617,1.4453,1.4363,1.4253,1.4053,1.3831,1.3611,1.3399,1.3482,1.3367,1.301,1.3146,1.3221,1.3197,1.3261,1.3332,1.3403,1.3403,1.3403,1.3403,1.3403,1.3517,1.3735,1.3497,1.3517,1.3745,1.3745,1.3839,1.4035,1.4134,1.4173,1.4208,1.4618,1.4779,1.4793,1.4895,1.4975,1.4987,0.0,0.0,0.0,0.0,0.0,0.0,0.0,0.0,0.0,0.0,0.0,0.0,0.0,0.0,0.0,0.0,0.0,0.0,0.0,0.0,0.0,0.9799,0.986,0.989,0.989,1.0209,1.0384,1.0384,0.0,0.0,0.0,0.0,0.0,1.1299,0.0,1.1612,1.197,1.2434,1.269,1.2818,1.3318,1.3805,1.4283,0.0,0.0,0.0,0.0,1.6088,1.6104,1.6226,0.0,0.0,0.0,0.0,1.6761,1.6761,1.6558,1.6331,0.0,0.0,0.0,0.0,0.0,0.0,1.6498,1.632,1.6189,1.6354,1.5159,1.413,1.4271,1.4297,1.4216,1.3947,1.3897,1.3944,1.4071,1.4624,1.4998,1.5003,1.4999,1.4867,1.4542,1.4149,1.3906,1.3859,1.4008,1.3926,1.3529,1.377,1.3777,1.3462,1.3573,1.3614,1.3614,1.3614,1.3614,1.3614,1.3614,1.3853,1.4244,1.3842,1.3884,1.4265,1.4265,1.4459,1.482,1.4973,1.5053,1.5079,1.5347,1.5457,1.5457,1.5477,1.5557,1.5637,0.0,0.0,0.0,0.0,0.0,0.0,0.0,0.0,0.0,0.0,1.0232,1.0118,0.0,0.9799,0.9799,0.9799,0.9799,0.9799,0.9799,0.0,0.0,0.9799,1.008,1.0232,1.0232,1.0565,1.0725,1.0725,0.0,0.0,0.0,0.0,0.0,1.1315,0.0,0.0,1.2512,1.269,1.3041,1.3499,1.3862,1.4318,0.0,0.0,0.0,0.0,0.0,0.0,0.0,1.7101,1.7327,0.0,0.0,0.0,1.7792,1.7792,1.7768,1.7663,0.0,0.0,1.6697,0.0,1.6609,1.6911,0.0,0.0,1.7119,0.0,1.5931,1.507,1.5755,1.5889,1.5453,1.4121,1.39,1.4119,1.476,1.4942,1.4996,1.5,1.5,1.4978,1.493,1.4862,1.4734,1.4505,1.4496,1.4475,1.435,1.4379,1.444,1.4501,1.452,1.4527,1.4527,1.4527,1.4527,1.4527,1.4527,1.465,1.4884,1.4811,1.4821,1.4884,1.4884,1.5008,1.5217,1.5257,1.5265,1.5312,1.5875,1.6078,1.6082,1.6208,1.6259,1.622,0.0,0.0,0.0,0.0,0.0,0.0,0.0,0.0,0.0,0.0,0.0,1.052,1.0376,1.0361,1.0278,1.0103,1.0255,1.0361,1.0361,1.0361,1.0361,1.0361,1.0505,1.0581,1.0581,1.0906,1.108,0.0,0.0,0.0,0.0,1.1914,1.2029,0.0,0.0,0.0,0.0,0.0,0.0,1.3941,1.4606,1.5026,0.0,0.0,0.0,0.0,0.0,0.0,0.0,0.0,0.0,1.7811,1.7945,0.0,0.0,0.0,1.8001,0.0,1.8008,1.7872,1.7769,0.0,1.7908,1.7886,1.7797,0.0,1.7527,1.7157,1.6655,1.6267,1.6214,1.6203,1.5974,1.5298,1.5573,1.597,1.6299,1.634,1.6182,1.5736,1.5668,1.5572,1.5361,1.5442,1.5349,1.4954,1.5146,1.5139,1.485,1.4932,1.4913,1.4713,1.4703,1.4703,1.4703,1.4703,1.4703,1.4692,1.5088,1.5307,1.5394,1.5739,1.5754,1.5492,1.5492,1.5698,1.6028,1.6111,1.6147,1.6185,1.6556,1.6704,1.6712,1.6773,1.6786,1.6753,0.0,0.0,0.0,0.0,0.0,0.0,0.0,0.0,0.0,0.0,0.0,1.0883,1.0808,0.0,0.0,0.0,1.0664,1.08,1.08,1.08,1.08,1.08,1.0876,1.0929,1.0929,1.1262,0.0,0.0,0.0,0.0,1.2209,1.2621,1.2871,0.0,1.2892,0.0,0.0,0.0,0.0,0.0,0.0,0.0,0.0,0.0,0.0,0.0,0.0,0.0,0.0,0.0,0.0,0.0,0.0,0.0,0.0,0.0,0.0,0.0,0.0,0.0,1.8704,1.9098,1.9032,1.8832,0.0,0.0,1.8177,0.0,1.7543,1.7414,1.6853,1.6446,1.6265,1.6468,1.7009,1.7396,1.7397,1.7398,1.7177,1.6576,1.6508,1.6335,1.5871,1.596,1.5902,1.5524,1.5786,1.5766,1.5347,1.5473,1.5391,1.5041,1.5023,1.5023,1.5023,1.5079,1.5104,1.5112,1.5664,1.595,1.6008,1.6563,1.6674,1.6374,1.6205,1.6427,1.6913,1.7009,1.7112,1.7248,1.7403,1.7463,1.7463,1.7463,1.7463,1.7463,0.0,0.0,0.0,0.0,0.0,0.0,0.0,0.0,0.0,0.0,0.0,1.1148,1.0831,1.08,1.0785,1.0778,1.0785,1.08,1.08,1.08,1.08,1.08,1.1095,0.0,1.1277,1.1602,0.0,0.0,0.0,0.0,1.2767,1.3168,1.3605,1.4008,1.3687,1.3744,1.41,0.0,0.0,0.0,0.0,1.6161,0.0,0.0,0.0,0.0,0.0,0.0,0.0,0.0,0.0,0.0,0.0,0.0,0.0,0.0,0.0,0.0,0.0,1.906,0.0,1.919,1.9381,1.9556,0.0,0.0,1.9436,1.9132,1.8696,1.8332,1.8291,1.7141,1.6456,1.7204,1.7364,1.7405,1.7398,1.7397,1.7378,1.734,1.7339,1.7097,1.6507,1.6456,1.6436,1.6338,1.6358,1.625,1.5972,1.5958,1.5966,1.5935,1.5935,1.5935,1.5935,1.6127,1.6219,1.6219,1.6447,1.6615,1.6763,1.7238,1.7544,1.7671,1.7028,1.7129,1.7742,1.7751,1.8014,1.8418,1.8427,1.8427,1.8427,1.8427,1.8427,1.8427,0.0,0.0,0.0,0.0,0.0,0.0,0.0,0.0,0.0,0.0,0.0,0.0,0.0,1.1436,1.136,1.1141,1.1126,1.1209,1.1428,1.1436,1.1436,1.1436,1.1557,1.17,1.1865,0.0,0.0,0.0,0.0,1.3186,1.3321,1.3688,1.4124,1.4591,1.4131,1.4326,1.5007,1.5206,0.0,0.0,1.6185,1.6518,0.0,0.0,0.0,0.0,0.0,0.0,0.0,0.0,0.0,0.0,0.0,0.0,0.0,0.0,0.0,0.0,0.0,0.0,0.0,2.0123,2.0039,1.9918,1.9918,1.9741,1.9576,1.9477,1.9304,1.9009,1.8506,1.8493,1.867,1.896,1.8996,1.8998,1.9006,1.8082,1.7588,1.8112,1.7942,1.7652,1.7302,1.7275,1.7145,1.6874,1.6974,1.6998,1.6893,1.6605,1.6451,1.6451,1.6161,1.6056,1.619,1.6557,1.6806,1.6954,1.7415,1.765,1.7707,1.8009,1.818,1.8241,1.7997,1.8028,1.8252,1.8252,1.835,1.8504,1.8504,1.8504,1.8504,1.8504,1.8504,1.8504,0.0,0.0,0.0,0.0,0.0,1.2369,0.0,0.0,0.0,0.0,0.0,0.0,0.0,0.0,1.1716,1.1488,1.1466,1.1564,1.1791,1.1874,1.1927,1.1927,1.2105,1.2291,1.2464,0.0,0.0,0.0,0.0,0.0,0.0,0.0,1.4824,1.5248,1.4903,1.5083,0.0,0.0,0.0,1.621,0.0,0.0,1.7222,0.0,0.0,0.0,0.0,0.0,0.0,0.0,0.0,0.0,0.0,0.0,0.0,0.0,0.0,0.0,0.0,0.0,0.0,0.0,2.0674,2.044,2.0327,2.0127,1.9965,1.9968,1.9969,1.992,1.9744,2.0254,2.0529,1.9992,1.9904,1.9898,1.99,1.8937,1.8443,1.8977,1.8942,1.8707,1.8281,1.8183,1.7997,1.7658,1.7611,1.7548,1.7415,1.7098,1.6934,1.6934,1.6695,1.6632,1.677,1.719,1.7466,1.7616,1.8085,1.8302,1.831,1.8606,1.8733,1.8755,1.9072,1.9028,1.8733,1.8733,1.8831,1.8963,1.8963,1.8963,1.8963,1.8963,1.8963,1.8963,0.0,1.2347,1.2579,1.2711,1.2724,1.2716,0.0,0.0,0.0,0.0,0.0,0.0,0.0,0.0,0.0,1.1829,1.1829,1.1829,1.1829,1.2085,1.222,1.222,1.2726,1.3024,1.3024,0.0,0.0,0.0,0.0,0.0,0.0,0.0,1.5691,0.0,1.6031,1.6039,1.6063,0.0,1.6528,1.6593,0.0,1.7521,1.7602,0.0,0.0,0.0,1.8984,1.9112,0.0,0.0,0.0,0.0,0.0,0.0,0.0,0.0,0.0,0.0,0.0,0.0,0.0,0.0,2.1216,2.1133,2.0804,2.073,2.0712,2.0694,2.0701,2.1031,2.2099,2.2307,2.1792,2.0227,1.9978,1.9953,1.991,1.9904,1.9908,1.9913,2.0321,2.0276,1.9408,1.9155,1.895,1.8756,1.8296,1.7867,1.7476,1.7435,1.7404,1.7413,1.76,1.7697,1.7705,1.8052,1.8216,1.8225,1.8461,1.8558,1.858,1.905,1.9259,1.9314,2.0227,2.0107,1.9259,1.9259,1.953,1.9942,1.9942,1.9942,1.9942,1.9942,1.9942,1.9942,1.3004,1.3223,1.3379,1.342,1.3219,1.3062,0.0,0.0,0.0,0.0,0.0,0.0,0.0,0.0,0.0,1.2446,1.2446,1.2446,1.2446,1.2658,1.2782,1.2782,1.3104,1.3381,0.0,0.0,0.0,0.0,0.0,0.0,0.0,0.0,0.0,0.0,1.6623,1.6866,1.7077,1.6931,0.0,0.0,1.769,1.8037,0.0,0.0,0.0,0.0,0.0,1.9464,0.0,0.0,1.9963,2.0044,0.0,0.0,0.0,0.0,0.0,0.0,2.1637,0.0,0.0,0.0,0.0,0.0,2.1522,2.1349,2.1109,2.0774,2.0697,2.1026,2.2102,2.2297,2.2152,2.1709,2.1637,2.1235,2.0064,1.9904,2.0029,2.037,2.0524,2.0449,2.0059,1.9845,1.9704,1.9642,1.9215,1.8888,1.8776,1.8184,1.7766,1.7619,1.7661,1.7818,1.8068,1.8494,1.8781,1.8927,1.9676,2.002,2.0031,2.051,2.0727,2.0738,2.0987,2.0955,2.0727,2.0727,2.0803,2.0911,2.0911,2.0911,2.0911,2.0911,2.0911,2.0911,1.3757,1.3944,1.4082,1.4082,1.391,1.3781,0.0,0.0,0.0,0.0,0.0,0.0,0.0,0.0,0.0,0.0,1.2779,1.2832,1.2832,1.3139,1.3408,1.3588,1.3919,1.4266,0.0,0.0,0.0,0.0,0.0,0.0,0.0,0.0,0.0,0.0,1.7268,0.0,0.0,0.0,0.0,0.0,1.8101,0.0,0.0,1.8764,1.9016,0.0,0.0,0.0,1.9863,2.0202,2.0494,0.0,0.0,0.0,0.0,0.0,0.0,0.0,0.0,0.0,0.0,0.0,0.0,0.0,2.1683,2.1604,2.1401,2.0817,2.1059,2.1559,2.2172,2.2302,2.2307,2.23,2.2299,2.1965,2.1037,2.1264,2.1556,2.1622,2.1614,2.1402,2.0899,2.0662,2.0455,2.0262,1.9835,1.9591,1.9591,1.9189,1.8905,1.879,1.8969,1.9175,1.9366,1.9728,1.9962,2.0076,2.0629,2.089,2.0901,2.1183,2.1302,2.1313,2.1508,2.1595,2.1616,2.18,2.1649,2.1302,2.1302,2.1302,2.1302,2.1302,2.1302,2.1302,0.0,1.4478,1.4597,1.4597,1.4597,0.0,0.0,0.0,0.0,0.0,0.0,0.0,0.0,0.0,0.0,0.0,1.3148,1.3265,1.3265,1.3724,0.0,0.0,0.0,0.0,0.0,0.0,0.0,0.0,0.0,0.0,0.0,0.0,0.0,0.0,1.7916,1.8066,0.0,0.0,0.0,1.821,1.8531,1.8675,0.0,0.0,1.936,0.0,1.9703,1.992,2.0261,2.063,2.117,0.0,0.0,0.0,0.0,0.0,2.2676,0.0,0.0,0.0,0.0,0.0,0.0,0.0,2.1685,2.1754,2.1738,2.1084,2.1797,2.2551,2.2553,2.2565,2.2568,2.2555,2.2558,2.2539,2.2468,2.3186,2.3562,2.3133,2.3044,2.2651,2.1787,2.1548,2.1245,2.078,2.0313,2.0059,2.0028,2.02,2.0321,2.0382,2.0777,2.1011,2.1031,2.1212,2.1302,2.1302,2.1356,2.1378,2.1378,2.1432,2.1465,2.1475,2.1952,2.2157,2.219,2.2665,2.2308,2.1465,2.1465,2.1465,2.1465,2.1465,2.1465,2.1465,1.4511,1.4567,1.4597,1.4597,1.4597,0.0,0.0,0.0,0.0,0.0,0.0,0.0,0.0,0.0,0.0,0.0,0.0,1.4926,1.4926,0.0,0.0,0.0,0.0,0.0,0.0,0.0,0.0,0.0,0.0,0.0,0.0,0.0,0.0,0.0,1.8302,1.8483,0.0,0.0,0.0,1.9268,1.908,0.0,1.9416,1.9488,1.9711,2.0043,2.03,2.0591,2.0916,0.0,2.1955,2.225,0.0,0.0,0.0,0.0,0.0,0.0,0.0,0.0,0.0,0.0,0.0,0.0,2.2631,2.2646,2.2633,2.2505,2.3377,2.4148,2.4156,2.4151,2.4151,2.4141,2.4154,2.3999,2.3574,2.3352,2.3172,2.3043,2.3016,2.2849,2.2446,2.2372,2.2154,2.168,2.0921,2.0415,2.0251,2.0281,2.0473,2.0848,2.095,2.1081,2.1242,2.1282,2.1302,2.1302,2.1681,2.1865,2.1876,2.2254,2.2427,2.2449,2.2923,2.3128,2.316,2.3634,2.3268,2.2427,2.2427,2.2427,2.2427,2.2427,2.2427,2.2427,1.5495,1.5546,1.5546,1.5546,0.0,0.0,0.0,0.0,0.0,0.0,0.0,0.0,0.0,0.0,0.0,0.0,0.0,0.0,0.0,0.0,0.0,0.0,0.0,0.0,0.0,0.0,0.0,0.0,0.0,0.0,0.0,0.0,0.0,0.0,0.0,0.0,0.0,0.0,1.9544,1.9815,1.948,0.0,1.9847,1.9847,2.0135,2.0575,2.0744,2.1103,2.1567,2.2031,2.229,0.0,0.0,2.2756,2.2893,0.0,2.2893,2.2893,0.0,0.0,0.0,2.2895,0.0,0.0,0.0,2.2893,2.3064,2.3626,2.4198,2.4602,2.461,2.4601,2.4592,2.46,2.4539,2.4479,2.4411,2.3947,2.3543,2.341,2.3398,2.3269,2.2938,2.2899,2.2718,2.2285,2.1842,2.1606,2.164,2.1522,2.162,2.198,2.1905,2.1902,2.2006,2.2233,2.2352,2.2352,2.2826,2.3053,2.3064,2.329,2.3397,2.3408,2.3655,2.3752,2.3774,2.3999,2.3817,2.3397,2.3397,2.3397,2.3397,2.3397,2.3397,2.3397,1.6471,1.65,1.65,1.65,0.0,0.0,0.0,0.0,0.0,0.0,0.0,0.0,0.0,0.0,0.0,0.0,0.0,0.0,0.0,0.0,0.0,0.0,1.7052,1.7327,0.0,1.7868,0.0,0.0,0.0,0.0,0.0,0.0,0.0,0.0,0.0,0.0,0.0,0.0,0.0,2.0247,0.0,2.0026,2.0271,2.0271,2.0667,2.1205,2.1249,2.1625,2.2119,2.2397,0.0,2.2539,2.2818,2.2893,0.0,0.0,0.0,0.0,0.0,0.0,0.0,0.0,0.0,2.3041,0.0,0.0,0.0,2.4404,2.4599,2.4599,2.4599,2.4599,2.4626,2.4701,2.4625,2.4681,2.5012,2.4646,2.4222,2.397,2.3931,2.377,2.3361,2.3249,2.308,2.2738,2.2694,2.2791,2.3041,2.29,2.2927,2.3204,2.3051,2.2977,2.2977,2.3354,2.3537,2.3537,2.3924,2.4096,2.4096,2.4096,2.4096,2.4096,2.4182,2.4224,2.4224,2.431,2.4353,2.4332,2.4171,2.4096,2.4096,2.4096,2.4096,2.4096,1.6552,1.65,1.65,1.65,0.0,0.0,0.0,0.0,0.0,0.0,0.0,0.0,0.0,0.0,0.0,0.0,0.0,0.0,1.7302,0.0,0.0,0.0,0.0,0.0,1.7937,1.7977,1.8173,0.0,0.0,0.0,0.0,0.0,0.0,0.0,1.9536,0.0,0.0,0.0,2.0374,0.0,2.0859,2.0859,0.0,2.0891,2.1309,2.1915,2.2165,2.2288,2.2402,0.0,2.2831,2.2853,0.0,2.2893,0.0,0.0,0.0,0.0,0.0,0.0,0.0,0.0,2.357,0.0,0.0,0.0,2.4444,2.4567,0.0,2.4599,2.4599,0.0,0.0,2.5062,2.5111,2.5145,2.5253,2.5202,2.4986,2.4477,2.442,2.4242,2.377,2.3399,2.3181,2.314,2.3015,2.3053,2.3252,2.3462,2.3703,2.3975,2.3956,2.3935,2.3935,2.3988,2.4021,2.4021,2.4074,2.4096,2.4096,2.4096,2.4096,2.4117,2.4482,2.4632,2.4664,2.5081,2.5241,2.5177,2.4396,2.4096,2.4096,2.4096,2.4096,2.4096,1.7104,1.7075,1.7075,1.7075,0.0,0.0,0.0,0.0,0.0,0.0,0.0,0.0,0.0,0.0,0.0,0.0,0.0,0.0,0.0,0.0,0.0,0.0,0.0,0.0,0.0,1.8543,1.872,1.8892,1.8892,0.0,0.0,0.0,0.0,0.0,1.9887,0.0,2.063,0.0,0.0,0.0,0.0,0.0,0.0,2.1641,2.1846,2.2263,2.2574,2.2689,2.2716,0.0,2.2893,0.0,0.0,0.0,0.0,0.0,0.0,0.0,0.0,0.0,0.0,0.0,0.0,0.0,2.3785,0.0,2.4599,0.0,0.0,0.0,0.0,0.0,0.0,0.0,2.5437,2.5669,2.5705,2.5838,2.5672,2.4938,2.4851,2.4681,2.4252,2.4052,2.3913,2.3785,2.3731,2.3865,2.4268,2.4166,2.4215,2.4438,2.4224,2.4096,2.4096,2.4332,2.445,2.445,2.4717,2.4846,2.4846,2.4846,2.4846,2.4856,2.5028,2.5113,2.5124,2.5316,2.5401,2.5359,2.4995,2.4846,2.4846,2.4846,2.4846,2.4846,1.7743,0.0,0.0,0.0,0.0,0.0,0.0,0.0,0.0,0.0,0.0,0.0,1.7937,1.7979,0.0,0.0,0.0,1.8165,0.0,0.0,1.8299,0.0,0.0,0.0,0.0,0.0,0.0,1.924,1.9328,0.0,0.0,0.0,0.0,0.0,0.0,2.0644,2.1162,0.0,0.0,2.2119,2.2119,2.2285,2.2525,2.2328,2.2368,2.2565,2.2805,2.2893,2.2893,2.2893,2.2893,0.0,2.2893,0.0,0.0,0.0,0.0,0.0,2.3479,0.0,0.0,0.0,0.0,0.0,0.0,0.0,0.0,0.0,0.0,0.0,0.0,0.0,0.0,0.0,0.0,2.6034,2.6105,2.6272,2.6119,2.5388,2.5179,2.499,2.4691,2.4662,2.4644,2.458,2.4535,2.4707,2.5168,2.4855,2.4742,2.4887,2.461,2.446,2.446,2.4749,2.4889,2.4899,2.5241,2.5401,2.5401,2.5401,2.5401,2.5401,2.5401,2.5401,2.5401,2.5401,2.5401,2.5412,2.554,2.5594,2.5583,2.5444,2.5401,2.5401,1.8364,1.7896,0.0,0.0,0.0,0.0,0.0,0.0,0.0,0.0,0.0,0.0,0.0,0.0,0.0,0.0,0.0,1.8579,1.8579,0.0,1.9056,0.0,0.0,0.0,0.0,0.0,0.0,0.0,0.0,0.0,0.0,0.0,0.0,0.0,0.0,2.1197,2.1601,2.1865,2.2129,2.2388,2.2388,2.2587,2.288,0.0,2.2889,2.2889,2.2902,0.0,0.0,2.2893,2.2893,2.2893,2.2893,0.0,0.0,0.0,0.0,0.0,0.0,0.0,0.0,2.4478,0.0,0.0,0.0,0.0,2.4599,0.0,0.0,0.0,0.0,0.0,0.0,0.0,0.0,0.0,0.0,2.6396,2.6248,2.5832,2.5388,2.509,2.508,2.508,2.5204,2.5537,2.5372,2.5399,2.5661,2.5478,2.538,2.538,2.5369,2.5359,2.5359,2.5369,2.538,2.538,2.5391,2.5401,2.5401,2.5401,2.5401,2.5401,2.5401,2.5401,2.5401,2.5401,2.5401,2.5444,2.5901,2.6082,2.6029,2.5572,2.5401,2.5401,0.0,0.0,0.0,0.0,0.0,0.0,0.0,1.8719,0.0,0.0,0.0,0.0,0.0,0.0,1.8736,0.0,0.0,1.8932,1.8932,1.924,0.0,0.0,0.0,1.9764,0.0,0.0,0.0,0.0,0.0,0.0,2.0432,2.0605,2.0897,2.1272,0.0,2.1844,0.0,0.0,0.0,0.0,0.0,2.2805,2.2893,0.0,2.2893,2.2893,2.2893,2.2893,2.2893,2.2893,2.301,2.3158,2.3158,2.338,2.363,2.363,2.383,2.4057,2.401,2.4192,2.4429,2.4572,0.0,0.0,0.0,0.0,0.0,0.0,0.0,0.0,0.0,0.0,0.0,0.0,0.0,0.0,0.0,2.6396,2.6347,2.6208,2.605,2.5852,2.5584,2.5722,2.5834,2.5865,2.597,2.6142,2.6409,2.6351,2.6328,2.6328,2.6328,2.6328,2.6328,2.6328,2.6328,2.6328,2.6328,2.6328,2.6328,2.6328,2.6328,2.6328,2.6328,2.6328,2.6328,2.6328,2.6328,2.635,2.6496,2.656,2.6507,2.6039,2.5858,2.5816,1.8885,0.0,0.0,0.0,0.0,0.0,0.0,0.0,0.0,0.0,1.9349,0.0,1.9456,0.0,1.9456,0.0,1.9456,1.9456,1.9456,1.9655,0.0,1.9783,1.9987,0.0,0.0,0.0,0.0,0.0,0.0,2.0735,2.0963,2.1224,2.1499,2.1756,0.0,2.2245,2.2415,0.0,2.2694,0.0,0.0,2.2893,0.0,0.0,2.2893,2.2907,2.3019,2.305,2.3063,2.3188,2.3322,2.3478,2.3478,2.3688,2.3946,2.3946,2.4128,2.4319,2.4233,2.4397,2.4599,2.4599,2.4599,0.0,2.4599,0.0,0.0,0.0,0.0,0.0,0.0,0.0,0.0,0.0,0.0,0.0,0.0,2.6396,2.6396,2.6396,2.6396,2.6337,2.6175,2.6306,2.6471,2.6599,2.6607,2.6744,2.7037,2.6891,2.6806,2.6806,2.6806,2.6806,2.6806,2.6806,2.6806,2.6806,2.6806,2.6806,2.6806,2.6806,2.6806,2.6806,2.6806,2.6806,2.6806,2.6806,2.6806,2.6828,2.6987,2.705,2.6987,2.6518,2.6348,2.6305,0.0,0.0,0.0,0.0,1.9422,0.0,0.0,0.0,2.0122,0.0,2.0098,2.0098,2.0098,2.0098,2.0098,2.0098,2.0098,0.0,2.0098,2.0122,0.0,0.0,2.0138,2.0146,2.0146,0.0,0.0,0.0,0.0,0.0,2.1625,2.1887,2.2021,2.2026,2.2303,0.0,2.245,2.2756,2.2893,2.2893,2.2893,2.2907,2.292,2.292,2.2934,2.2974,2.3203,2.3314,2.3367,2.3692,2.3808,2.3821,2.3821,2.4004,2.4213,2.4213,2.4404,2.4599,2.4599,2.4599,2.4599,2.4599,2.4603,2.4626,2.4681,0.0,2.6148,0.0,0.0,0.0,0.0,0.0,0.0,0.0,0.0,0.0,0.0,0.0,2.6396,2.6423,2.6423,2.652,2.678,2.6834,2.7074,2.7655,2.7306,2.7197,2.7514,2.7114,2.687,2.687,2.687,2.687,2.687,2.687,2.687,2.687,2.687,2.687,2.687,2.687,2.687,2.687,2.687,2.687,2.687,2.687,2.687,2.69,2.7357,2.754,2.7474,2.7008,2.6815,2.6806,2.0044,2.0294,2.0483,0.0,2.0489,2.0437,0.0,0.0,0.0,0.0,2.0098,2.0098,2.0098,2.0098,2.0098,2.0098,2.0098,0.0,0.0,0.0,0.0,2.0472,2.0705,2.084,2.084,2.1163,0.0,2.1347,0.0,0.0,2.19,2.2178,2.2303,2.2316,2.2636,2.2778,2.2778,2.2867,2.2893,2.2893,2.2893,2.3023,2.3198,2.3198,2.3349,2.354,2.3363,2.3465,2.367,2.3768,2.3933,2.4097,2.4097,2.428,2.4502,2.4502,2.4555,2.4599,2.4599,2.4599,2.4599,2.4599,2.4607,2.4822,2.5725,2.5831,2.58,0.0,0.0,0.0,0.0,0.0,0.0,0.0,0.0,0.0,0.0,0.0,0.0,2.667,2.6697,2.6714,2.6794,2.7204,2.7525,2.7682,2.7826,2.7933,2.8023,2.7918,2.7831,2.7831,2.7831,2.7831,2.7831,2.7831,2.7831,2.7831,2.7831,2.7831,2.7831,2.7831,2.7831,2.7831,2.7831,2.7831,2.7831,2.7831,2.7831,2.7841,2.797,2.8023,2.796,2.7484,2.7103,2.6806,2.0367,0.0,0.0,2.1074,0.0,0.0,2.0814,0.0,0.0,2.0567,2.0544,0.0,2.0544,2.0544,2.0544,2.0544,2.0544,0.0,0.0,0.0,0.0,2.1025,2.123,2.1371,2.1483,2.1681,0.0,2.177,0.0,0.0,2.2178,2.248,2.2614,2.2627,2.2827,2.2893,2.2893,2.2893,2.2965,2.3068,2.3068,2.3247,0.0,2.3514,2.371,2.395,2.3759,2.3812,2.399,2.4102,2.4253,2.4377,2.4377,2.4475,2.4599,2.4599,2.4599,2.4599,2.4599,2.4596,2.4605,2.4605,2.5003,2.556,2.6248,2.6136,2.5955,2.6179,2.6193,2.6229,2.6369,0.0,0.0,0.0,0.0,0.0,0.0,0.0,0.0,0.0,2.7034,2.7191,2.7191,2.7509,2.7759,2.7914,2.8085,2.8189,2.8189,2.8189,2.8189,2.8189,2.8189,2.8189,2.8189,2.8189,2.8189,2.8189,2.8189,2.8189,2.8189,2.8189,2.8189,2.8189,2.8189,2.8189,2.8189,2.8189,2.8189,2.8189,2.8189,2.8189,2.8168,2.7897,2.7643,2.7408,0.0,0.0,0.0,0.0,0.0,0.0,0.0,2.1101,0.0,2.1101,0.0,2.1101,2.1101,2.1101,2.1101,2.1101,0.0,2.1114,2.1155,2.1162,2.1304,2.163,2.1657,2.1756,2.1986,2.2026,0.0,0.0,0.0,0.0,2.2477,2.2756,2.2893,2.2893,2.2893,0.0,0.0,2.2952,2.3108,2.3363,2.3363,2.3567,2.3852,2.3852,2.4017,2.4253,2.4253,2.4253,2.4293,2.4528,2.4599,2.4599,2.4599,2.4599,2.4599,2.4599,2.4607,2.4606,2.4606,2.4606,2.4635,2.4789,2.5622,2.6394,2.6394,2.6397,2.6335,2.6104,2.6242,2.6396,2.6396,2.6396,0.0,0.0,0.0,0.0,0.0,0.0,0.0,0.0,0.0,0.0,2.7759,2.7773,2.789,2.8176,2.8189,2.8189,2.8189,2.8189,2.8189,2.8189,2.8189,2.8189,2.8189,2.8189,2.8189,2.8189,2.8189,2.8189,2.8189,2.8189,2.8189,2.8189,2.8189,2.8189,2.8189,2.8189,2.8189,2.8189,2.8189,2.8189,2.8189,2.8189,2.8189,2.8189,0.0,0.0,0.0,0.0,0.0,2.1101,2.1101,2.1101,2.1101,2.1101,2.1101,2.1101,2.1101,2.1101,2.1101,2.1101,2.1101,0.0,0.0,0.0,0.0,2.1922,2.1927,2.1954,2.2007,2.2218,2.233,0.0,0.0,0.0,0.0,2.2867,2.2893,2.2893,2.2893,2.3023,2.3229,2.3229,2.342,2.3705,2.3705,2.387,2.4128,2.4128,2.4293,2.4528,2.4528,2.4528,2.4542,2.4586,2.4599,2.4599,2.4599,2.4599,2.4599,2.4599,2.4597,2.4601,2.4601,2.4597,2.4838,2.5844,2.6242,2.6398,2.6398,2.6397,2.6388,2.6349,2.6379,2.6396,2.6396,2.6396,2.6396,0.0,0.0,0.0,0.0,0.0,0.0,0.0,0.0,2.7799,2.8085,2.8112,2.8136,2.82,2.8189,2.8189,2.8189,2.8189,2.8189,2.8189,2.8189,2.8189,2.8189,2.8189,2.8189,2.8189,2.8189,2.8189,2.8189,2.8189,2.8189,2.8189,2.8189,2.8189,2.8189,2.8189,2.8189,2.8189,2.8189,2.8189,2.8189,2.8189,2.8189,2.8189,0.0,0.0,0.0,0.0,0.0,0.0,0.0,2.1101,2.1101,2.1101,2.1101,2.1101,2.1101,2.1259,2.136,2.136,2.1486,2.1646,2.1796,2.181,2.1935,2.2205,2.2205,0.0,2.2457,2.2596,2.2654,2.2654,0.0,0.0,0.0,2.2893,2.2893,2.2915,2.305,2.3282,2.3554,2.3554,2.3728,2.4013,2.4013,2.4168,2.4404,2.4404,2.4488,2.4599,2.4599,2.4599,2.4599,2.4599,2.4599,2.4599,2.4599,2.46,2.4604,2.4604,2.4601,2.4736,2.5351,2.5527,2.5674,2.6252,2.6402,2.6395,2.6395,2.6391,2.6396,2.6396,2.6396,2.6396,2.6396,2.6396,2.645,0.0,0.0,0.0,0.0,0.0,0.0,0.0,0.0,0.0,0.0,2.8189,2.8189,2.8189,2.8189,2.8189,2.8189,2.8189,2.8189,2.8189,2.8189,2.8189,2.8189,2.8189,2.8189,2.8189,2.8189,2.8189,2.8189,2.8189,2.8189,2.8189,2.8189,2.8189,2.8189,2.8189,2.8189,2.8189,2.8189,2.8189,2.8189,2.8189,2.8189,2.8189,0.0,2.1101,0.0,0.0,2.1101,0.0,2.1101,2.1155,2.1176,2.1114,2.1155,2.121,2.121,2.1494,2.1684,2.1684,2.1882,2.2012,2.2079,2.2093,2.2205,2.249,2.2503,2.2627,2.2893,2.2893,2.2893,0.0,0.0,0.0,2.2893,2.2952,2.3019,2.3094,2.3313,2.3572,2.3888,2.3888,2.4044,2.4293,2.4293,2.4417,2.4599,2.4599,2.4599,2.4613,2.4675,2.4711,2.4715,2.4722,2.4668,2.4596,2.4596,2.4591,2.4595,2.4595,2.4772,2.5184,2.6149,2.6405,2.6405,2.6405,2.6397,2.6396,2.6396,2.6396,2.6396,2.6396,2.6396,2.6396,2.6396,2.645,2.656,2.6767,0.0,0.0,0.0,0.0,0.0,0.0,0.0,0.0,2.8189,2.8189,2.8189,2.8189,2.8189,2.8189,2.8189,2.8189,2.8189,2.8189,2.8189,2.8189,2.8189,2.8189,2.8189,2.8189,2.8189,2.8189,2.8189,2.8189,2.8189,2.8189,2.8189,2.8189,2.8189,2.8189,2.8189,2.8189,2.8189,2.8189,2.8189,2.8189,2.8189,2.8189,0.0,0.0,0.0,0.0,0.0,2.1101,2.1101,2.136,2.144,2.1141,2.1352,2.155,2.155,2.1801,2.1967,2.1967,2.1994,2.2098,2.2356,2.2361,2.2512,2.284,2.2845,2.2867,2.2893,2.2893,2.2893,0.0,0.0,2.2893,2.2915,2.3153,2.3425,2.3723,2.3741,2.3906,2.4168,2.4168,2.432,2.4559,2.4559,2.4582,2.4599,2.4599,2.4599,2.4639,2.4943,2.5046,2.5058,2.5118,2.4899,2.4599,2.4599,2.4604,2.4599,2.4599,2.5373,2.6256,2.6367,2.6404,2.6409,2.6409,2.6403,2.6396,2.6396,2.6396,2.6396,2.6396,2.6396,2.6396,2.6396,2.659,2.6767,2.6794,0.0,0.0,0.0,0.0,0.0,0.0,0.0,0.0,2.8189,2.8189,2.8189,2.8189,2.8189,2.8189,2.8189,2.8189,2.8189,2.8189,2.8189,2.8189,2.8189,2.8189,2.8189,2.8189,2.8189,2.8189,2.8189,2.8189,2.8189,2.8189,2.8189,2.8189,2.8189,2.8189,2.8189,2.8189,2.8189,2.8189,2.8189,2.8189,2.8189,2.8189,0.0,0.0,0.0,0.0,0.0,0.0,0.0,2.1753,2.1788,2.1665,2.1761,2.1842,2.1842,2.2079,2.2236,2.2236,2.2413,2.2591,2.2689,2.2702,2.2764,2.2893,2.2893,2.2893,2.2893,2.2893,2.2893,0.0,0.0,0.0,2.3153,2.3456,2.3763,2.4044,2.4044,2.4195,2.4435,2.4435,2.4502,2.4599,2.4599,2.4599,2.4613,2.4818,2.4903,2.4943,2.5237,2.5264,2.516,2.519,2.5093,2.4921,2.4676,2.4607,2.4736,2.5475,2.6015,2.6406,2.6406,2.6395,2.6396,2.6396,2.6396,2.6396,2.6396,2.6396,2.6396,2.6396,2.6533,2.6643,2.6643,2.6894,2.7148,2.7311,2.7442,0.0,0.0,0.0,0.0,0.0,0.0,0.0,0.0,2.8189,2.8189,2.8189,2.8189,2.8189,2.8189,2.8189,2.8189,2.8189,2.8189,2.8189,2.8189,2.8189,2.8189,2.8189,2.8189,2.8189,2.8189,2.8189,2.8189,2.8189,2.8189,2.8189,2.8189,2.8189,2.8189,2.8189,2.8189,2.8189,2.8189,2.8189,2.8189,2.8189,2.1237,2.1251,2.1352,2.1662,2.1724,2.1783,2.1967,2.2066,2.2119,2.2119,2.2199,2.2235,2.2133,2.2378,2.2552,2.2552,2.2756,2.2893,2.2893,2.2893,2.2893,2.2893,2.2893,0.0,2.301,2.301,2.3072,2.3152,2.3354,0.0,2.3443,2.3777,2.4057,2.432,2.432,2.4422,2.4599,2.4599,2.4599,2.4613,2.4711,2.4751,2.4778,2.509,2.522,2.5251,2.5503,2.55,2.5394,2.5516,2.5552,2.5439,2.4803,2.4843,2.5293,2.6151,2.64,2.6396,2.6396,2.6396,2.6396,2.6396,2.6396,2.6396,2.6396,2.6396,2.6423,2.6493,2.6747,2.6947,2.6947,2.7198,2.7476,2.7669,2.7786,0.0,0.0,2.8189,0.0,0.0,2.8189,2.8189,2.8189,2.8189,2.8189,2.8189,2.8189,2.8189,2.8189,2.8189,2.8189,2.8189,2.8189,2.8189,2.8189,2.8189,2.8189,2.8189,2.8189,2.8189,2.8189,2.8189,2.8189,2.8189,2.8189,2.8189,2.8189,2.8189,2.8189,2.8189,2.8189,2.8189,2.8189,2.8189,2.8189,2.8189,2.1537,2.159,2.1684,2.1954,2.1994,2.1994,2.2007,2.2223,2.2402,2.2402,2.2681,2.2756,2.2428,2.2689,2.2893,2.2893,2.2902,2.2893,2.2893,2.2893,2.2893,0.0,2.2893,2.3023,2.3287,2.3309,2.3452,2.3781,0.0,2.3794,2.3794,2.4071,2.4346,2.4599,2.4599,2.4599,2.4599,2.4599,2.4599,2.4635,2.4957,2.5096,2.5122,2.5388,2.5495,2.5525,2.5719,2.5796,2.5846,2.625,2.6383,2.6178,2.4984,2.542,2.6386,2.6396,2.6396,2.6396,2.6396,2.6396,2.6396,2.6396,2.6396,2.6396,2.6396,2.6396,2.6476,2.674,2.7064,2.7299,2.7299,2.7505,2.7696,2.7696,2.7981,2.82,0.0,2.8189,0.0,2.8189,2.8189,2.8189,2.8189,2.8189,2.8189,2.8189,2.8189,2.8189,2.8189,2.8189,2.8189,2.8189,2.8189,2.8189,2.8189,2.8189,2.8189,2.8189,2.8189,2.8189,2.8189,2.8189,2.8189,2.8189,2.8189,2.8189,2.8189,2.8189,2.8189,2.8189,2.8189,2.8189,2.8189,2.8189,2.8189,2.8189,2.1847,2.1868,2.1962,2.2231,2.2276,2.2352,2.2577,2.2684,2.2743,2.2743,2.2831,2.2853,2.2743,2.284,2.2893,2.2893,2.2893,2.2893,2.2893,2.2893,2.2978,2.3158,2.3171,2.3313,2.363,2.3643,2.3692,2.3794,2.3977,2.4168,2.436,2.4422,2.4515,2.4599,2.4599,2.4599,2.4613,2.4841,2.4943,2.497,2.5251,2.5361,2.5411,2.5724,2.5831,2.5871,2.6126,2.62,2.6236,2.636,2.6396,2.6333,2.5944,2.6082,2.6396,2.6396,2.6396,2.6396,2.6396,2.6396,2.6396,2.6396,2.6396,2.645,2.663,2.6851,2.7045,2.7118,2.7372,2.7572,2.7572,2.7834,2.8045,2.8045,2.8136,2.8189,2.8189,0.0,2.8189,2.8189,2.8189,2.8189,2.8189,2.8189,2.8189,2.8189,2.8189,2.8189,2.8189,2.8189,2.8189,2.8189,2.8189,2.8189,2.8189,2.8189,2.8189,2.8189,2.8189,2.8189,2.8189,2.8189,2.8189,2.8189,2.8189,2.8189,2.8189,2.8189,2.8189,2.8189,2.8189,2.8189,2.8189,2.8189,2.8189,2.8189,2.2124,2.2151,2.2245,2.2547,2.2587,2.2654,2.2867,2.2893,2.2893,2.2893,2.2893,2.2893,2.2893,2.2992,2.301,2.2907,2.2893,2.2938,2.3041,2.3041,2.3189,2.3465,2.3487,2.3634,2.3946,2.3946,2.399,2.4111,2.4266,2.4444,2.4599,2.4599,2.4599,2.4599,2.4599,2.4675,2.48,2.5006,2.5163,2.5273,2.5568,2.5688,2.5728,2.6028,2.6148,2.6175,2.6339,2.6396,2.6396,2.6396,2.6396,2.6396,2.6396,2.6396,2.6396,2.6396,2.6396,2.6396,2.6396,2.6396,2.6433,2.6593,2.659,2.6627,2.6921,2.7225,2.7449,2.7449,2.7676,2.789,2.789,2.8058,2.8189,2.8189,2.8189,2.8189,2.8189,2.8189,2.8189,2.8189,2.8189,2.8189,2.8189,2.8189,2.8189,2.8189,2.8189,2.8189,2.8189,2.8189,2.8189,2.8189,2.8189,2.8189,2.8189,2.8189,2.8189,2.8189,2.8189,2.8189,2.8189,2.8189,2.8189,2.8189,2.8189,2.8189,2.8189,2.8189,2.8189,2.8189,2.8189,2.8189,2.8189,2.8189,2.8259,2.8355,2.2383,2.2428,2.253,2.2853,2.2893,2.2893,2.2893,2.2893,2.2893,2.2893,2.2929,2.2934,2.2934,2.3166,2.3238,2.2987,2.296,2.3063,2.3323,2.3327,2.3478,2.3812,2.3821,2.3959,2.4213,2.4235,2.4351,2.4599,2.4599,2.4599,2.4599,2.4599,2.4613,2.4626,2.4626,2.4827,2.5136,2.5149,2.5314,2.5562,2.5885,2.6034,2.6051,2.6299,2.6396,2.6396,2.6396,2.6396,2.6396,2.6396,2.6396,2.6396,2.6396,2.64,2.6403,2.64,2.6462,2.6515,2.6515,2.6499,2.657,2.6954,2.6951,2.6937,2.7259,2.7542,2.7722,2.7722,2.7981,2.8189,2.8189,2.8189,2.8189,2.8189,2.8189,2.8189,2.8189,2.8189,2.8189,2.8189,2.8189,2.8189,2.8189,2.8189,2.8189,2.8189,2.8189,2.8189,2.8189,2.8189,2.8189,2.8189,2.8189,2.8189,2.8189,2.8189,2.8189,2.8189,2.8189,2.8189,2.8189,2.8189,2.8189,2.8189,2.8189,2.8189,2.8189,2.8189,2.8189,2.8189,2.8189,2.8216,2.8229,2.8229,2.8409,2.862,2.2764,2.2778,2.2805,2.288,2.2893,2.2893,2.2893,2.2893,2.2893,2.2893,2.3082,2.3211,2.3211,2.3496,2.3661,2.3594,2.3589,2.3612,2.3679,2.367,2.3812,2.4088,2.4111,2.4226,2.4502,2.4502,2.4542,2.4599,2.4599,2.4599,2.4599,2.4599,2.4738,2.497,2.497,2.513,2.5415,2.568,2.5814,2.5908,2.6192,2.6312,2.6312,2.6379,2.6396,2.6396,2.6396,2.6396,2.6396,2.6396,2.6396,2.6396,2.6396,2.6391,2.639,2.6404,2.7048,2.7777,2.7777,2.7546,2.7341,2.7429,2.7471,2.7509,2.7586,2.785,2.8085,2.8085,2.8138,2.8189,2.8189,2.8189,2.8189,2.8189,2.8189,2.8189,2.8189,2.8189,2.8189,2.8189,2.8189,2.8189,2.8189,2.8189,2.8189,2.8189,2.8189,2.8189,2.8189,2.8189,2.8189,2.8189,2.8189,2.8189,2.8189,2.8189,2.8189,2.8189,2.8189,2.8189,2.8189,2.8189,2.8189,2.8189,2.8189,2.8189,2.8189,2.8189,2.8189,2.8189,2.8189,2.8326,2.8508,2.8508,2.8684,2.8906,2.2893,2.2893,2.2893,2.2893,2.2893,2.2893,2.2893,2.2997,2.3082,2.3082,2.334,2.3527,2.3527,2.3803,2.3977,2.3977,2.3875,2.3852,2.3964,2.3977,2.4102,2.4364,2.4377,2.4448,2.4599,2.4599,2.4599,2.4599,2.4599,2.4675,2.4827,2.4827,2.4987,2.5277,2.5277,2.5447,2.5741,2.5921,2.6078,2.6202,2.6339,2.6396,2.6396,2.6396,2.6396,2.6396,2.6396,2.6396,2.6396,2.6396,2.6397,2.6391,2.6391,2.6777,2.7216,2.7223,2.7698,2.8166,2.7976,2.7764,2.7611,2.764,2.7789,2.7927,2.7927,2.8072,2.8189,2.8189,2.8189,2.8189,2.8189,2.8189,2.8189,2.8189,2.8189,2.8189,2.8189,2.8189,2.8189,2.8189,2.8189,2.8189,2.8189,2.8189,2.8189,2.8189,2.8189,2.8189,2.8189,2.8189,2.8189,2.8189,2.8189,2.8189,2.8189,2.8189,2.8189,2.8189,2.8189,2.8189,2.8189,2.8189,2.8189,2.8189,2.8189,2.8189,2.8189,2.8189,2.8272,2.8382,2.8382,2.8548,2.8783,2.8783,2.897,2.9234,2.2893,2.2893,2.2893,2.2893,2.2925,2.2965,2.2965,2.3193,2.3376,2.3376,2.3656,2.3861,2.3861,2.4111,2.4253,2.4253,2.4057,2.4026,2.4249,2.4253,2.4364,2.4586,2.4599,2.4599,2.4599,2.4648,2.4675,2.4675,2.4715,2.4885,2.5163,2.5163,2.5314,2.5585,2.5585,2.5764,2.6065,2.6065,2.6189,2.6396,2.6396,2.6396,2.6396,2.6396,2.6396,2.6396,2.6396,2.6393,2.6404,2.6404,2.6407,2.6438,2.6602,2.7365,2.8198,2.8198,2.8194,2.8126,2.7778,2.7689,2.7698,2.7761,2.7981,2.8189,2.8189,2.8189,2.8189,2.8189,2.8189,2.8189,2.8189,2.8189,2.8189,2.8189,2.8189,2.8189,2.8189,2.8189,2.8189,2.8189,2.8189,2.8189,2.8189,2.8189,2.8189,2.8189,2.8189,2.8189,2.8189,2.8189,2.8189,2.8189,2.8189,2.8189,2.8189,2.8189,2.8189,2.8189,2.8189,2.8189,2.8189,2.8189,2.8189,2.8189,2.8189,2.8216,2.8259,2.8259,2.8422,2.866,2.866,2.8823,2.909,2.909,2.9288,2.9564,2.2893,2.2893,2.2893,2.2893,2.3095,2.3243,2.3243,2.3514,2.3719,2.3719,2.3964,2.4151,2.4151,2.4377,2.4542,2.4542,2.4502,2.4488,2.4542,2.4542,2.4568,2.4599,2.4599,2.4599,2.4599,2.489,2.502,2.502,2.5241,2.5388,2.5451,2.5451,2.5608,2.5921,2.5921,2.6082,2.6339,2.6339,2.6356,2.6396,2.6396,2.6396,2.6396,2.6396,2.6396,2.6396,2.6396,2.6404,2.641,2.641,2.641,2.6582,2.7598,2.8044,2.8203,2.8203,2.82,2.8196,2.8123,2.8103,2.81,2.8109,2.8162,2.8189,2.8189,2.8189,2.8189,2.8189,2.8189,2.8189,2.8189,2.8189,2.8189,2.8189,2.8189,2.8189,2.8189,2.8189,2.8189,2.8189,2.8189,2.8189,2.8189,2.8189,2.8189,2.8189,2.8189,2.8189,2.8189,2.8189,2.8189,2.8189,2.8189,2.8189,2.8189,2.8189,2.8189,2.8189,2.8189,2.8189,2.8189,2.8189,2.8189,2.8189,2.8189,2.8339,2.8537,2.8537,2.87,2.8932,2.8932,2.9141,2.943,2.943,2.9593,2.9835,2.3095,2.3122,2.3175,2.3353,2.3491,2.3567,2.3567,2.383,2.4026,2.4026,2.4253,2.4417,2.4417,2.4528,2.4599,2.4599,2.4599,2.4599,2.4599,2.4599,2.4599,2.4599,2.4599,2.4688,2.4877,2.5157,2.5327,2.5327,2.5442,2.5598,2.5778,2.5778,2.5925,2.6215,2.6215,2.6286,2.6396,2.6396,2.6396,2.6396,2.6396,2.6396,2.6396,2.6396,2.64,2.6401,2.6401,2.6399,2.6505,2.7149,2.737,2.7475,2.8026,2.8209,2.8193,2.8193,2.819,2.8207,2.8202,2.8203,2.8189,2.8189,2.8189,2.8189,2.8189,2.8189,2.8189,2.8189,2.8189,2.8189,2.8189,2.8189,2.8189,2.8189,2.8189,2.8189,2.8189,2.8189,2.8189,2.8189,2.8189,2.8189,2.8189,2.8189,2.8189,2.8189,2.8189,2.8189,2.8189,2.8189,2.8189,2.8189,2.8189,2.8189,2.8189,2.8189,2.8189,2.8189,2.8189,2.8189,2.8189,2.8189,2.8272,2.8422,2.8422,2.8575,2.8823,2.8823,2.8996,2.9274,2.9274,2.9448,2.9713,2.9713,2.9795,2.9902,2.3358,2.3425,2.35,2.3754,2.3848,2.3892,2.3892,2.4115,2.4284,2.4284,2.4475,2.4599,2.4599,2.4599,2.4599,2.4599,2.4599,2.4626,2.4702,2.4724,2.4724,2.4724,2.4782,2.4925,2.5193,2.5464,2.5611,2.5611,2.5678,2.5848,2.6082,2.6082,2.6192,2.6396,2.6396,2.6396,2.6396,2.6396,2.6396,2.6396,2.6396,2.6436,2.6503,2.6533,2.6484,2.6434,2.6726,2.6817,2.6963,2.789,2.8197,2.8197,2.8197,2.8196,2.8189,2.8189,2.8189,2.8189,2.8189,2.8189,2.8189,2.8189,2.8189,2.8189,2.8189,2.8189,2.8189,2.8189,2.8189,2.8189,2.8189,2.8189,2.8189,2.8189,2.8189,2.8189,2.8189,2.8189,2.8189,2.8189,2.8189,2.8189,2.8189,2.8189,2.8189,2.8189,2.8189,2.8189,2.8189,2.8189,2.8189,2.8189,2.8189,2.8189,2.8189,2.8189,2.8189,2.8189,2.8189,2.8189,2.8203,2.8259,2.8409,2.8593,2.8673,2.885,2.9117,2.9117,2.9301,2.959,2.959,2.9726,2.9902,2.9902,2.9902,2.9902,2.3692,2.3768,2.3768,2.3803,2.4013,2.4168,2.4168,2.4404,2.4572,2.4572,2.4595,2.4599,2.4599,2.4599,2.4599,2.4599,2.4599,2.4728,2.5033,2.506,2.506,2.506,2.5295,2.5455,2.5468,2.5791,2.5957,2.5957,2.6219,2.6353,2.6369,2.6369,2.6383,2.6396,2.6396,2.6396,2.6396,2.6396,2.6396,2.6396,2.6396,2.6547,2.6777,2.6901,2.6725,2.6547,2.7669,2.8071,2.8072,2.8168,2.8199,2.8194,2.8194,2.8197,2.8189,2.8189,2.8189,2.8189,2.8189,2.8189,2.8189,2.8189,2.8189,2.8189,2.8189,2.8189,2.8189,2.8189,2.8189,2.8189,2.8189,2.8189,2.8189,2.8189,2.8189,2.8189,2.8189,2.8189,2.8189,2.8189,2.8189,2.8189,2.8189,2.8189,2.8189,2.8189,2.8189,2.8189,2.8189,2.8189,2.8189,2.8189,2.8189,2.8189,2.8189,2.8189,2.8189,2.8189,2.8189,2.8189,2.8203,2.8465,2.858,2.8607,2.8865,2.9157,2.9457,2.9457,2.9619,2.9875,2.9875,2.9878,2.9902,2.9902,2.9902,2.9902,2.399,2.4044,2.4111,2.4266,2.4377,2.4457,2.4457,2.4532,2.4599,2.4599,2.4599,2.4599,2.4599,2.4599,2.4688,2.4881,2.4917,2.5028,2.5331,2.5344,2.5344,2.5344,2.5634,2.5804,2.5804,2.6108,2.6255,2.6255,2.6353,2.6396,2.6396,2.6396,2.6396,2.6396,2.6396,2.6396,2.6396,2.6396,2.6503,2.6643,2.6643,2.6841,2.7125,2.7314,2.7197,2.707,2.7906,2.8202,2.8199,2.8199,2.8193,2.8189,2.8189,2.8189,2.8189,2.8189,2.8189,2.8189,2.8189,2.8189,2.8189,2.8189,2.8189,2.8189,2.8189,2.8189,2.8189,2.8189,2.8189,2.8189,2.8189,2.8189,2.8189,2.8189,2.8189,2.8189,2.8189,2.8189,2.8189,2.8189,2.8189,2.8189,2.8189,2.8189,2.8189,2.8189,2.8189,2.8189,2.8189,2.8189,2.8189,2.8189,2.8189,2.8189,2.8189,2.8189,2.8189,2.8203,2.8369,2.8452,2.8465,2.8727,2.8956,2.9152,2.9272,2.9486,2.9753,2.9753,2.9809,2.9902,2.9902,2.9902,2.9902,2.9902,2.9902,2.9902,2.428,2.4333,2.4377,2.4568,2.4599,2.4599,2.4599,2.4599,2.4599,2.4599,2.4599,2.4639,2.4751,2.4764,2.4881,2.5207,2.5233,2.5354,2.5648,2.5732,2.5745,2.5651,2.5951,2.6131,2.6131,2.6312,2.6396,2.6396,2.6396,2.6396,2.6396,2.6396,2.6396,2.6396,2.6396,2.6396,2.641,2.6493,2.663,2.6807,2.6911,2.7145,2.7432,2.7579,2.7609,2.7639,2.8044,2.8199,2.8189,2.8189,2.8189,2.8189,2.8189,2.8189,2.8189,2.8189,2.8189,2.8189,2.8189,2.8189,2.8189,2.8189,2.8189,2.8189,2.8189,2.8189,2.8189,2.8189,2.8189,2.8189,2.8189,2.8189,2.8189,2.8189,2.8189,2.8189,2.8189,2.8189,2.8189,2.8189,2.8189,2.8189,2.8189,2.8189,2.8189,2.8189,2.8189,2.8189,2.8189,2.8189,2.8189,2.8189,2.8189,2.8189,2.8189,2.8189,2.8243,2.8339,2.8508,2.8647,2.874,2.9034,2.9274,2.9497,2.959,2.9726,2.9902,2.9902,2.9902,2.9902,2.9902,2.9902,2.9902,2.9902,2.9902,2.9902,2.4555,2.4599,2.4599,2.4599,2.4599,2.4599,2.4599,2.4599,2.4599,2.4599,2.4599,2.4728,2.5069,2.5096,2.5207,2.5482,2.5499,2.5648,2.5984,2.6246,2.6286,2.6011,2.6269,2.6396,2.6396,2.6396,2.6396,2.6396,2.6396,2.6396,2.6396,2.6396,2.6396,2.6396,2.6396,2.6396,2.6423,2.6697,2.6807,2.6834,2.7168,2.7462,2.7696,2.7696,2.7903,2.8189,2.8189,2.8189,2.8189,2.8189,2.8189,2.8189,2.8189,2.8189,2.8189,2.8189,2.8189,2.8189,2.8189,2.8189,2.8189,2.8189,2.8189,2.8189,2.8189,2.8189,2.8189,2.8189,2.8189,2.8189,2.8189,2.8189,2.8189,2.8189,2.8189,2.8189,2.8189,2.8189,2.8189,2.8189,2.8189,2.8189,2.8189,2.8189,2.8189,2.8189,2.8189,2.8189,2.8189,2.8189,2.8189,2.8189,2.8189,2.8189,2.8203,2.8203,2.8339,2.8593,2.8593,2.8754,2.9026,2.9352,2.9497,2.9521,2.9782,2.9902,2.9902,2.9902,2.9902,2.9902,2.9902,2.9902,2.9902,2.9902,2.9902,2.9902,2.4586,2.4599,2.4599,2.4599,2.4599,2.4599,2.4599,2.4599,2.4688,2.4917,2.4943,2.5064,2.5344,2.5384,2.5514,2.5818,2.5854,2.5965,2.6259,2.6366,2.6356,2.6286,2.6366,2.6396,2.6396,2.6396,2.6396,2.6396,2.6396,2.6396,2.6396,2.6396,2.6396,2.641,2.66,2.6684,2.6697,2.7024,2.7265,2.7442,2.7535,2.777,2.8045,2.8045,2.8112,2.8189,2.8189,2.8189,2.8189,2.8189,2.8189,2.8189,2.8189,2.8189,2.8189,2.8189,2.8189,2.8189,2.8189,2.8189,2.8189,2.8189,2.8189,2.8189,2.8189,2.8189,2.8189,2.8189,2.8189,2.8189,2.8189,2.8189,2.8189,2.8189,2.8189,2.8189,2.8189,2.8189,2.8189,2.8189,2.8189,2.8189,2.8189,2.8189,2.8189,2.8189,2.8189,2.8189,2.8189,2.8189,2.8189,2.8189,2.8189,2.8286,2.8481,2.8481,2.8521,2.8617,2.9029,2.9272,2.9366,2.9659,2.9769,2.9793,2.9875,2.9902,2.9902,2.9902,2.9902,2.9902,2.9902,2.9902,2.9902,2.9902,2.9902,2.9902,2.4599,2.4599,2.4599,2.4599,2.4599,2.4599,2.4599,2.4702,2.4867,2.5073,2.5193,2.5367,2.5661,2.5701,2.5821,2.6135,2.6162,2.6229,2.6383,2.6396,2.6396,2.6396,2.6396,2.6396,2.6396,2.6396,2.6396,2.6396,2.6396,2.6396,2.6396,2.6507,2.656,2.6573,2.6867,2.7001,2.7014,2.7329,2.7546,2.7709,2.784,2.8031,2.8189,2.8189,2.8189,2.8189,2.8189,2.8189,2.8189,2.8189,2.8189,2.8189,2.8189,2.8189,2.8189,2.8189,2.8189,2.8189,2.8189,2.8189,2.8189,2.8189,2.8189,2.8189,2.8189,2.8189,2.8189,2.8189,2.8189,2.8189,2.8189,2.8189,2.8189,2.8189,2.8189,2.8189,2.8189,2.8189,2.8189,2.8189,2.8189,2.8189,2.8189,2.8189,2.8189,2.8189,2.8189,2.8189,2.8189,2.8189,2.8256,2.8355,2.8355,2.8492,2.8756,2.8898,2.8962,2.8951,2.9323,2.955,2.9659,2.9822,2.9902,2.9902,2.9902,2.9902,2.9902,2.9902,2.9902,2.9902,2.9902,2.9902,2.9902,2.9902,2.9902,2.9902,2.4599,2.4599,2.4599,2.4599,2.4626,2.4639,2.4639,2.4921,2.5149,2.5176,2.5384,2.5674,2.5998,2.6038,2.6135,2.6383,2.6396,2.6396,2.6396,2.6396,2.6396,2.6396,2.6396,2.6396,2.6396,2.6396,2.6396,2.6396,2.6423,2.6436,2.6436,2.671,2.6847,2.6857,2.7195,2.7339,2.7352,2.7626,2.7736,2.7773,2.8072,2.8189,2.8189,2.8189,2.8189,2.8189,2.8189,2.8189,2.8189,2.8189,2.8189,2.8189,2.8189,2.8189,2.8189,2.8189,2.8189,2.8189,2.8189,2.8189,2.8189,2.8189,2.8189,2.8189,2.8189,2.8189,2.8189,2.8189,2.8189,2.8189,2.8189,2.8189,2.8189,2.8189,2.8189,2.8189,2.8189,2.8189,2.8189,2.8189,2.8189,2.8189,2.8189,2.8189,2.8189,2.8189,2.8189,2.8189,2.8189,2.8216,2.8342,2.858,2.862,2.878,2.9039,2.9352,2.9497,2.9497,2.9524,2.9659,2.9902,2.9902,2.9902,2.9902,2.9902,2.9902,2.9902,2.9902,2.9902,2.9902,2.9902,2.9902,2.9902,2.9902,2.9902,2.9902,2.4599,2.4599,2.4599,2.4599,2.4814,2.4993,2.4993,2.5224,2.5514,2.5761,2.5864,2.6001,2.6286,2.6312,2.6339,2.6396,2.6396,2.6396,2.6396,2.6396,2.6396,2.6396,2.6396,2.6396,2.6396,2.6396,2.6396,2.6396,2.6603,2.6714,2.6714,2.7038,2.7195,2.7195,2.7489,2.7612,2.7639,2.7965,2.8085,2.8098,2.8176,2.8189,2.8189,2.8189,2.8189,2.8189,2.8189,2.8189,2.8189,2.8189,2.8189,2.8189,2.8189,2.8189,2.8189,2.8189,2.8189,2.8189,2.8189,2.8189,2.8189,2.8189,2.8189,2.8189,2.8189,2.8189,2.8189,2.8189,2.8189,2.8189,2.8189,2.8189,2.8189,2.8189,2.8189,2.8189,2.8189,2.8189,2.8189,2.8189,2.8189,2.8189,2.8189,2.8189,2.8189,2.8189,2.8189,2.8189,2.8189,2.8398,2.8537,2.8604,2.881,2.9063,2.939,2.9457,2.9497,2.9497,2.9713,2.9849,2.9902,2.9902,2.9902,2.9902,2.9902,2.9902,2.9902,2.9902,2.9902,2.9902,2.9902,2.9902,2.9902,2.9902,2.9902,2.9902,2.4599,2.4738,2.4841,2.4841,2.509,2.5291,2.5291,2.5541,2.5804,2.5981,2.6118,2.6246,2.6383,2.6396,2.6396,2.6396,2.6396,2.6396,2.6396,2.6396,2.6396,2.6396,2.652,2.66,2.66,2.6744,2.6744,2.66,2.6894,2.7038,2.7051,2.7345,2.7489,2.7492,2.7797,2.7941,2.7954,2.8136,2.8189,2.8189,2.8189,2.8189,2.8189,2.8189,2.8189,2.8189,2.8189,2.8189,2.8189,2.8189,2.8189,2.8189,2.8189,2.8189,2.8189,2.8189,2.8189,2.8189,2.8189,2.8189,2.8189,2.8189,2.8189,2.8189,2.8189,2.8189,2.8189,2.8189,2.8189,2.8189,2.8189,2.8189,2.8189,2.8189,2.8189,2.8189,2.8189,2.8189,2.8189,2.8189,2.8189,2.8189,2.8189,2.8189,2.8189,2.8189,2.8189,2.8256,2.8371,2.8524,2.8738,2.9018,2.9179,2.9381,2.9686,2.9686,2.9686,2.9686,2.9835,2.9902,2.9902,2.9902,2.9902,2.9902,2.9902,2.9902,2.9902,2.9902,2.9902,2.9902,2.9902,2.9902,2.9902,2.9902,2.9902,2.9902,2.4675,2.4917,2.5109,2.5163,2.5407,2.5585,2.5585,2.5858,2.6078,2.6078,2.6259,2.6396,2.6396,2.6396,2.6396,2.6396,2.6396,2.6396,2.6396,2.644,2.6476,2.6476,2.6747,2.6884,2.6884,2.7198,2.7208,2.6884,2.7208,2.7379,2.7369,2.7652,2.7786,2.781,2.8082,2.8189,2.8189,2.8189,2.8189,2.8189,2.8189,2.8189,2.8189,2.8189,2.8189,2.8189,2.8189,2.8189,2.8189,2.8189,2.8189,2.8189,2.8189,2.8189,2.8189,2.8189,2.8189,2.8189,2.8189,2.8189,2.8189,2.8189,2.8189,2.8189,2.8189,2.8189,2.8189,2.8189,2.8189,2.8189,2.8189,2.8189,2.8189,2.8189,2.8189,2.8189,2.8189,2.8189,2.8189,2.8189,2.8189,2.8189,2.8189,2.8189,2.8189,2.8189,2.8243,2.8369,2.8591,2.8698,2.8978,2.9483,2.9537,2.9673,2.9902,2.9902,2.9902,2.9902,2.9902,2.9902,2.9902,2.9902,2.9902,2.9902,2.9902,2.9902,2.9902,2.9902,2.9902,2.9902,2.9902,2.9902,2.9902,2.9902,2.9902,2.9915,2.4979,2.5069,2.5167,2.5411,2.5724,2.5921,2.5921,2.6175,2.6353,2.6353,2.6379,2.6396,2.6396,2.6396,2.6396,2.6396,2.6396,2.6396,2.6396,2.6627,2.675,2.675,2.7064,2.7222,2.7222,2.7505,2.7505,2.7222,2.7505,2.7652,2.7642,2.7991,2.8125,2.8125,2.8176,2.8189,2.8189,2.8189,2.8189,2.8189,2.8189,2.8189,2.8189,2.8189,2.8189,2.8189,2.8189,2.8189,2.8189,2.8189,2.8189,2.8189,2.8189,2.8189,2.8189,2.8189,2.8189,2.8189,2.8189,2.8189,2.8189,2.8189,2.8189,2.8189,2.8189,2.8189,2.8189,2.8189,2.8189,2.8189,2.8189,2.8189,2.8189,2.8189,2.8189,2.8189,2.8189,2.8189,2.8189,2.8189,2.8189,2.8189,2.8189,2.8189,2.8189,2.8189,2.8412,2.8564,2.8604,2.9085,2.9417,2.9508,2.9726,2.9862,2.9902,2.9902,2.9902,2.9902,2.9902,2.9902,2.9902,2.9902,2.9902,2.9902,2.9902,2.9902,2.9902,2.9902,2.9902,2.9902,2.9902,2.9902,2.9902,2.9902,2.9902,2.9942,2.5264,2.547,2.564,2.5764,2.6028,2.6219,2.6219,2.6316,2.6396,2.6396,2.6396,2.6396,2.6396,2.6396,2.6396,2.6396,2.6396,2.6453,2.6603,2.6727,2.6874,2.7078,2.7358,2.7519,2.7519,2.7823,2.7914,2.7791,2.7914,2.7981,2.7981,2.8136,2.8189,2.8189,2.8189,2.8189,2.8189,2.8189,2.8189,2.8189,2.8189,2.8189,2.8189,2.8189,2.8189,2.8189,2.8189,2.8189,2.8189,2.8189,2.8189,2.8189,2.8189,2.8189,2.8189,2.8189,2.8189,2.8189,2.8189,2.8189,2.8189,2.8189,2.8189,2.8189,2.8189,2.8189,2.8189,2.8189,2.8189,2.8189,2.8189,2.8189,2.8189,2.8189,2.8189,2.8189,2.8189,2.8189,2.8189,2.8189,2.8189,2.8189,2.8189,2.8189,2.8259,2.8412,2.8524,2.8751,2.9072,2.9361,2.9577,2.9726,2.9835,2.9902,2.9902,2.9902,2.9902,2.9902,2.9902,2.9902,2.9902,2.9902,2.9902,2.9902,2.9902,2.9902,2.9902,2.9902,2.9902,2.9902,2.9902,3.0009,3.0178,3.0178,3.0261,3.0421]}]]